     2              OBSERVATION DATA    GPS                 RINEX VERSION / TYPE
teqc 2002Apr3 20050208 23:01:59UTC                          PGM / RUN BY / DATE
                                                            COMMENT
L2: 1 -> 1; 150 -> 5; 250 -> 9                              COMMENT
L2: 1 -> 1; 150 -> 5; 250 -> 9                              COMMENT
L2: 1 -> 1; 150 -> 5; 250 -> 9                              COMMENT
L2: 1 -> 1; 150 -> 5; 250 -> 9                              COMMENT
L2: 1 -> 1; 150 -> 5; 250 -> 9                              COMMENT
Original Marker Name: LUCS                                  COMMENT
Campaign Name: CSUSB June 2004                              COMMENT
4-Character Station Name: LUCS                              COMMENT
6-Character Antenna Code: DMRCHT                            COMMENT
Vertical Measurement Point: BCR                             COMMENT
Vertical Offset to Rinex Ref. Point: 0.0348                 COMMENT
Radial Measurement Point: ECF                               COMMENT
Radial Offset to Rinex Ref. Point: 0.1897                   COMMENT
Antenna Height from Field Measurement: 0.8990 m             COMMENT
Additional Antenna Identification Info.:                    COMMENT
Turborogue and Ashtech Choke Ring                           COMMENT
Original XYZ: -2381305.2500 -4697476.0900 3587266.5200      COMMENT
New XYZ position is based on association with SCEC monument COMMENT
E1F2D1A3+0011. Position of that monument is believed to be  COMMENT
valid to within 1 m horizontally; vertical accuracy         COMMENT
should be no worse than 3-times this value.                 COMMENT
                                                            COMMENT
Revised Rinex header created by UCSD GPS archive for        COMMENT
GSAC on 20-Apr-2005 (2005:110) 16:31:25 GMT                 COMMENT
For assistance contact dagnew@ucsd.edu                      COMMENT
or anderson@python.ucsd.edu                                 COMMENT
                                                            COMMENT
LUCERNE SOUTH BASE                                          MARKER NAME
___ CSUSB                                                   OBSERVER / AGENCY
1606 ASHTECH Z-X ZB00                                       REC # / TYPE / VERS
1201 DORNE-MARGOL. TYPE T                                   ANT # / TYPE
 -2381299.0000 -4697467.0000  3587259.0000                  APPROX POSITION XYZ
        0.8440        0.0000        0.0000                  ANTENNA: DELTA H/E/N
     1     1     0                                          WAVELENGTH FACT L1/2
     7    C1    L1    L2    P1    P2    S1    S2            # / TYPES OF OBSERV
     0                                                      INTERVAL
  2004     6    22    13    40   40.000000                  TIME OF FIRST OBS
  2004     6    22    22    44    0.000000                  TIME OF LAST OBS
                                                            END OF HEADER
 04  6 22 13 40 40.0000000  0  5G21G 6G17G30G29
  22624372.4064   17234104.82253  13432893.23652  22624372.5774   22624366.2884
        52.0004         44.0004
  20753897.9844   17259619.36254  13451715.32252  20753898.6724   20753893.0104
        57.0004         49.0004
  21913059.6234   17390215.71453  13548933.74152  21913060.4574   21913056.6904
        53.0004         46.0004
  21036931.4824   17397590.55254  13553832.84052  21036933.0384   21036927.2604
        57.0004         49.0004
  23712489.9584   17223963.89153  13427216.26352  23712490.9274   23712487.6514
        45.0004         39.0004
 04  6 22 13 41  0.0000000  0  5G21G 6G17G30G29
  22616517.5474   17192832.72843  13400733.16642  22616518.1894   22616512.8564
        52.0004         44.0004
  20748448.0714   17230983.02144  13429401.27142  20748449.5634   20748443.8004
        57.0004         49.0004
  21919959.6764   17426475.32243  13577187.94942  21919960.6924   21919956.5124
        53.0004         46.0004
  21044498.2244   17437354.63844  13584817.81742  21044500.3824   21044494.2964
        57.0004         49.0004
  23703917.0614   17178915.47343  13392113.63442  23703919.3344   23703914.8804
        46.0004         39.0004
 04  6 22 13 41 20.0000000  0  9G21G18G 5G 6G17G30G29G10G26
  22608678.0854   17151638.40043  13368633.69542  22608680.3524   22608672.7684
        52.0004         44.0004
  24290488.8114   -1820373.51653  -1400571.80352  24290491.4064   24290486.3274
        45.0004         39.0004
  23109083.1804   -1337751.90053  -1055074.85452  23109084.1544   23109080.4434
        50.0004         43.0004
  20743020.3624   17202462.52944  13407177.50042  20743022.1474   20743016.6054
        57.0004         49.0004
  21926869.8594   17462788.78743  13605484.13242  21926871.7714   21926866.1464
        53.0004         46.0004
  21052105.0034   17477329.46144  13615967.00242  21052107.2654   21052101.1114
        57.0004         49.0004
  23695362.2494   17133958.82143  13357082.50942  23695364.2444   23695360.0954
        46.0004         39.0004
  21365245.8644   -1428688.69153  -1121427.23052  21365247.2224   21365241.8304
        55.0004         48.0004
  24057340.1344   -1801171.61053  -1388988.36752  24057341.3634   24057337.9984
        45.0004         38.0004
 04  6 22 13 41 40.0000000  0  9G21G18G 5G 6G17G30G29G10G26
  22600855.1934   17110529.38443  13336600.70342  22600856.9644   22600850.2944
        52.0004         44.0004
  24276714.9004   -1892755.11743  -1456973.03042  24276717.5974   24276713.8094
        46.0004         39.0004
  23122097.4064   -1269360.59143  -1001782.97342  23122098.6564   23122095.5124
        50.0004         43.0004
  20737616.4984   17174065.80444  13385050.16842  20737618.4524   20737612.2334
        57.0004         49.0004
  21933791.4874   17499163.34343  13633827.91942  21933793.5544   21933788.5114
        53.0004         46.0004
  21059753.1724   17517521.73044  13647285.61842  21059755.5994   21059749.9894
        57.0004         49.0004
  23686826.2234   17089102.46443  13322129.53042  23686827.7544   23686824.9554
        45.0004         39.0004
  21372934.8694   -1388282.20243  -1089941.67542  21372936.1504   21372931.3594
        55.0004         48.0004
  24045815.5724   -1861731.48243  -1436177.88042  24045818.8604   24045815.0894
        44.0004         37.0004
 04  6 22 13 42  0.0000000  0  9G21G18G 5G 6G17G30G29G10G26
  22593046.4584   17069495.12543  13304625.95342  22593048.9534   22593042.9064
        52.0004         44.0004
  24262948.0684   -1965100.26143  -1513345.86542  24262950.2894   24262945.5304
        47.0004         39.0004
  23135122.2364   -1200912.93743   -948447.18342  23135124.4464   23135120.0264
        50.0004         42.0004
  20732234.3104   17145782.80243  13363011.45042  20732236.4594   20732230.5034
        56.0004         49.0004
  21940723.1654   17535587.92343  13662210.68242  21940724.5114   21940719.8944
        53.0004         46.0004
  21067440.6764   17557920.21944  13678764.92742  21067443.1924   21067436.9914
        57.0004         49.0004
  23678307.0834   17044336.47943  13287246.96442  23678308.4444   23678305.8834
        46.0004         39.0004
  21380664.9264   -1347660.24843  -1058288.22742  21380666.0864   21380661.3194
        55.0004         47.0004
  24034295.3234   -1922263.34343  -1483345.55642  24034299.2034   24034297.3894
        44.0004         37.0004
 04  6 22 13 42 20.0000000  0 10G24G21G18G 5G 6G17G30G29G10G26
  24754924.2204   -1394167.71253  -1095569.88552  24754924.8914   24754923.7504
        43.0004         36.0004
  22585253.1324   17028540.94443  13272713.61642  22585254.4444   22585250.1744
        52.0004         44.0004
  24249190.1474   -2037403.02543  -1569685.68142  24249191.0754   24249187.0684
        47.0004         39.0004
  23148159.7174   -1132404.45443   -895063.99842  23148160.8044   23148156.6804
        50.0004         43.0004
  20726875.0904   17117619.45844  13341065.97542  20726876.9184   20726871.0524
        57.0004         49.0004
  21947665.3474   17572067.77043  13690636.50342  21947666.5404   21947661.4954
        53.0004         46.0004
  21075168.4514   17598529.62244  13710408.58542  21075171.0034   21075164.8634
        57.0004         49.0004
  23669806.4024   16999667.24943  13252439.80242  23669808.4854   23669803.3374
        45.0004         39.0004
  21388436.7504   -1306818.17743  -1026463.25742  21388438.3874   21388433.0534
        56.0004         47.0004
  24022783.9464   -1982760.82743  -1530486.43442  24022785.7434   24022780.4304
        44.0004         37.0004
 04  6 22 13 42 40.0000000  0 10G24G21G18G 5G 6G17G30G29G10G26
  24764888.1484   -1341801.81343  -1054765.38442  24764889.3384   24764888.1604
        42.0004         36.0004
  22577474.8464   16987663.01043  13240860.67442  22577475.9194   22577469.5474
        52.0004         44.0004
  24235437.4404   -2109666.51443  -1625994.87342  24235440.0194   24235435.8314
        46.0004         39.0004
  23161206.4944   -1063839.88343   -841637.10842  23161208.4454   23161203.0104
        50.0004         42.0004
  20721538.0304   17089572.15244  13319210.92042  20721539.9124   20721533.9224
        57.0004         49.0004
  21954617.0574   17608598.54243  13719102.01142  21954617.9824   21954612.9754
        53.0004         46.0004
  21082935.6314   17639345.18644  13742212.89042  21082938.0154   21082931.9484
        57.0004         49.0004
  23661324.5904   16955091.59643  13217705.54542  23661326.2704   23661322.9404
        46.0004         39.0004
  21396249.7294   -1265760.61243   -994470.37442  21396251.2214   21396247.1504
        55.0004         47.0004
  24011276.8744   -2043226.79443  -1577602.77242  24011280.6794   24011276.6714
        44.0004         38.0004
 04  6 22 13 43  0.0000000  0 10G24G21G18G 5G 6G17G30G29G10G26
  24774849.5604   -1289457.13843  -1013977.40542  24774849.4114   24774847.5664
        44.0004         36.0004
  22569711.0264   16946868.18743  13209072.50542  22569713.5274   22569708.2634
        52.0004         44.0004
  24221695.8184   -2181882.90743  -1682267.36842  24221696.9134   24221691.1824
        46.0004         39.0004
  23174266.5764    -995212.77543   -788161.49142  23174268.8224   23174262.9984
        50.0004         42.0004
  20716224.4804   17061648.66144  13297452.34442  20716226.5134   20716220.1614
        57.0004         49.0004
  21961579.9024   17645187.05543  13747612.51942  21961580.6284   21961575.9044
        53.0004         46.0004
  21090743.1004   17680373.50844  13774182.98242  21090745.2504   21090739.3454
        57.0004         49.0004
  23652860.6024   16910617.69843  13183050.58642  23652862.7394   23652859.7424
        46.0004         39.0004
  21404105.2214   -1224481.16743   -962304.59242  21404106.7734   21404101.8134
        56.0004         47.0004
  23999778.8714   -2103653.07543  -1624688.16242  23999781.8414   23999777.7094
        45.0004         38.0004
 04  6 22 13 43 20.0000000  0 10G24G21G18G 5G 6G17G30G29G10G26
  24784805.5324   -1237137.17543   -973208.67842  24784807.1954   24784804.6274
        44.0004         36.0004
  22561963.6074   16906153.31943  13177346.64742  22561965.4404   22561959.7834
        52.0004         44.0004
  24207961.9884   -2254055.18943  -1738505.49642  24207962.9894   24207959.2804
        47.0004         39.0004
  23187336.2794    -926527.37343   -734640.43842  23187338.0954   23187334.0764
        50.0004         42.0004
  20710933.5604   17033846.06744  13275787.97342  20710935.5114   20710929.8954
        57.0004         49.0004
  21968552.2584   17681829.79243  13776165.26942  21968553.7404   21968548.1324
        53.0004         46.0004
  21098590.1104   17721610.58144  13806315.74242  21098592.4814   21098586.6614
        57.0004         49.0004
  23644416.8144   16866242.98243  13148472.90542  23644418.7234   23644415.2754
        46.0004         39.0004
  21412001.7524   -1182983.87643   -929969.06142  21412003.3644   21411998.3294
        55.0004         47.0004
  23988287.0254   -2164042.02743  -1671744.46142  23988289.8924   23988286.1064
        44.0004         38.0004
 04  6 22 13 43 40.0000000  0 10G24G21G18G 5G 6G17G30G29G10G26
  24794756.8754   -1184843.07143   -932460.10042  24794759.5074   24794755.8394
        46.0004         37.0004
  22554231.0344   16865517.41543  13145682.31042  22554232.4674   22554226.7924
        52.0004         44.0004
  24194236.3684   -2326183.34543  -1794709.24442  24194237.1184   24194233.9414
        47.0004         39.0004
  23200417.5534    -857785.19043   -681075.14742  23200418.9514   23200415.3184
        50.0004         42.0004
  20705665.7574   17006164.10844  13254217.60642  20705668.0934   20705662.0414
        57.0004         49.0004
  21975535.2434   17718525.59243  13804759.38442  21975536.1674   21975532.4524
        53.0004         46.0004
  21106476.6714   17763054.76144  13838609.88142  21106479.1994   21106473.1104
        57.0004         49.0004
  23635991.5674   16821967.64643  13113972.66342  23635992.9394   23635989.8494
        46.0004         40.0004
  21419939.6434   -1141270.41243   -897465.08242  21419941.0324   21419936.0314
        55.0004         47.0004
  23976801.4304   -2224393.54943  -1718771.58042  23976803.9934   23976800.9114
        45.0004         38.0004
 04  6 22 13 44  0.0000000  0 10G24G21G18G 5G 6G17G30G29G10G26
  24804703.7574   -1132571.69943   -891729.23142  24804705.7724   24804701.9154
        46.0004         37.0004
  22546513.2694   16824963.30243  13114081.72242  22546515.8684   22546509.6544
        52.0004         44.0004
  24180520.0674   -2398263.73043  -1850875.76942  24180522.9144   24180516.3224
        48.0004         39.0004
  23213510.4764    -788984.21243   -627464.04042  23213511.9894   23213508.2224
        50.0004         42.0004
  20700421.9394   16978606.15744  13232743.86542  20700423.7794   20700418.2584
        57.0004         49.0004
  21982528.9634   17755277.17043  13833396.95542  21982530.1864   21982525.1054
        53.0004         46.0004
  21114403.2004   17804708.40644  13871067.24542  21114405.5714   21114399.7574
        57.0004         49.0004
  23627585.4924   16777795.40543  13079552.75442  23627588.3084   23627583.2114
        46.0004         40.0004
  21427918.9444   -1099338.54943   -864790.93042  21427920.6624   21427915.8324
        55.0004         47.0004
  23965325.9974   -2284703.54243  -1765766.36442  23965328.9574   23965324.6384
        45.0004         38.0004
 04  6 22 13 44 20.0000000  0 10G24G21G18G 5G 6G17G30G29G10G26
  24814645.8624   -1080326.23243   -851018.56942  24814647.4084   24814644.8244
        46.0004         37.0004
  22538811.3564   16784488.12243  13082542.64742  22538813.1204   22538807.4694
        52.0004         44.0004
  24166812.2144   -2470298.57743  -1907006.82342  24166813.2924   24166808.0174
        47.0004         39.0004
  23226613.1434    -720128.20043   -573810.05842  23226614.2864   23226610.6544
        50.0004         42.0004
  20695200.8004   16951169.88044  13211364.94042  20695203.0384   20695197.1724
        57.0004         49.0004
  21989532.5734   17792081.33043  13862075.50042  21989533.3554   21989529.7564
        53.0004         46.0004
  21122368.7804   17846567.87944  13903684.99342  21122370.9954   21122365.4834
        57.0004         49.0004
  23619200.1474   16733724.27243  13045211.62142  23619200.8354   23619197.6264
        47.0004         40.0004
  21435939.0944   -1057191.89343   -831949.40042  21435940.8734   21435935.9734
        55.0004         47.0004
  23953856.7294   -2344973.98843  -1812730.34942  23953858.2084   23953855.5414
        44.0004         38.0004
 04  6 22 13 44 40.0000000  0 10G24G21G18G 5G 6G17G30G29G10G26
  24824582.6584   -1028105.96843   -810327.53642  24824585.1534   24824583.3794
        45.0004         37.0004
  22531124.4154   16744092.59843  13051065.63642  22531126.6194   22531120.3064
        52.0004         44.0004
  24153113.2784   -2542286.32943  -1963101.16542  24153116.0774   24153109.2874
        47.0004         39.0004
  23239726.8634    -651217.16643   -520113.20242  23239727.3994   23239724.0874
        50.0004         42.0004
  20690003.3924   16923856.62944  13190081.88142  20690005.5724   20689999.7834
        57.0004         49.0004
  21996546.2204   17828938.53443  13890795.36842  21996548.1884   21996542.7674
        53.0004         46.0004
  21130373.5784   17888633.29144  13936463.21642  21130376.1314   21130370.1134
        57.0004         49.0004
  23610832.5554   16689756.01643  13010950.67542  23610834.3644   23610831.7364
        47.0004         40.0004
  21444000.5134   -1014830.44643   -798940.50442  21444002.2904   21443997.0174
        55.0004         47.0004
  23942395.0524   -2405202.92543  -1859661.96742  23942397.4374   23942394.7034
        45.0004         38.0004
 04  6 22 13 45  0.0000000  0 10G24G21G18G 5G 6G17G30G29G10G26
  24834515.6664    -975909.32643   -769654.90242  24834516.7594   24834514.2854
        46.0004         37.0004
  22523453.0574   16703778.38443  13019651.97742  22523455.2354   22523449.1914
        52.0004         44.0004
  24139423.5414   -2614224.84443  -2019157.13742  24139422.5564   24139420.4564
        46.0004         39.0004
  23252850.8414    -582250.19043   -466372.74742  23252851.3754   23252848.5734
        50.0004         42.0004
  20684829.8984   16896668.46144  13168896.28542  20684831.7084   20684826.2654
        57.0004         49.0004
  22003570.3514   17865850.22043  13919557.69542  22003571.5074   22003566.3764
        53.0004         46.0004
  21138417.8944   17930905.43744  13969402.52642  21138420.0004   21138414.1784
        57.0004         49.0004
  23602485.3684   16645893.05743  12976771.76742  23602486.6994   23602484.7814
        48.0004         40.0004
  21452102.5344    -972253.25143   -765763.49142  21452103.8584   21452099.0344
        55.0004         47.0004
  23930942.0474   -2465387.98043  -1906559.38642  23930943.8784   23930942.0834
        44.0004         38.0004
 04  6 22 13 45 20.0000000  0 10G24G21G18G 5G 6G17G30G29G10G26
  24844442.9354    -923740.84143   -729004.22442  24844445.1914   24844442.0824
        46.0004         37.0004
  22515795.4374   16663540.97743  12988298.17642  22515798.2844   22515791.3644
        52.0004         44.0004
  24125743.3214   -2686117.78543  -2075177.60842  24125744.6244   24125739.9194
        47.0004         39.0004
  23265984.7494    -513232.71243   -412592.93342  23265985.5224   23265981.9954
        50.0004         42.0004
  20679679.0084   16869601.40044  13147805.05942  20679680.9964   20679675.3924
        57.0004         49.0004
  22010604.1734   17902811.45343  13948358.62642  22010605.3204   22010600.4774
        53.0004         46.0004
  21146500.4514   17973379.21044  14002498.94342  21146502.8714   21146496.6154
        57.0004         49.0004
  23594158.5564   16602131.72343  12942672.04042  23594160.4414   23594155.9354
        47.0004         41.0004
  21460244.8754    -929465.62643   -732422.51042  21460246.4064   21460241.6394
        55.0004         47.0004
  23919498.0804   -2525532.41443  -1953425.16942  23919499.3514   23919496.7684
        45.0004         38.0004
 04  6 22 13 45 40.0000000  0 10G24G21G18G 5G 6G17G30G29G10G26
  24854366.5204    -871596.10143   -688372.03542  24854365.9124   24854365.0644
        46.0004         37.0004
  22508154.4734   16623384.90643  12957007.74542  22508156.4874   22508150.9384
        52.0004         45.0004
  24112072.2924   -2757960.03343  -2131158.59642  24112074.2344   24112070.0484
        47.0004         39.0004
  23279128.7684    -444160.86243   -358770.75942  23279129.2774   23279125.1744
        50.0004         42.0004
  20674552.2964   16842660.53044  13126812.16542  20674554.2134   20674548.5734
        57.0004         49.0004
  22017647.6364   17939826.67743  13977201.63442  22017648.3554   22017643.8834
        53.0004         46.0004
  21154621.9974   18016058.49744  14035755.50842  21154624.5014   21154618.4654
        57.0004         49.0004
  23585850.5864   16558477.54743  12908655.81942  23585851.7754   23585849.7414
        48.0004         41.0004
  21468427.9384    -886463.75243   -698914.57842  21468429.5874   21468423.9104
        55.0004         47.0004
  23908060.5744   -2585630.70643  -2000255.00842  23908063.8444   23908059.4934
        45.0004         38.0004
 04  6 22 13 46  0.0000000  0 10G24G21G18G 5G 6G17G30G29G10G26
  24864283.0024    -819479.45143   -647761.75442  24864285.6044   24864284.1204
        46.0004         37.0004
  22500527.8834   16583305.95243  12925777.41542  22500529.7554   22500523.1704
        53.0004         45.0004
  24098409.8454   -2829755.05443  -2187102.77642  24098410.2234   24098406.4844
        47.0004         39.0004
  23292281.9834    -375039.56343   -304910.04642  23292284.4024   23292278.9314
        50.0004         42.0004
  20669449.1014   16815842.35244  13105914.87342  20669450.7744   20669445.0814
        57.0004         49.0004
  22024700.9094   17976891.55443  14006083.32642  22024701.9654   22024697.5474
        53.0004         46.0004
  21162781.6514   18058938.52644  14069168.49342  21162783.9954   21162778.3884
        57.0004         48.0004
  23577563.3554   16514927.42343  12874720.64442  23577564.7804   23577561.4594
        48.0004         41.0004
  21476650.6194    -843252.49143   -665243.49042  21476652.0414   21476647.3414
        55.0004         47.0004
  23896633.8254   -2645685.90743  -2047051.25342  23896636.3884   23896632.0214
        46.0004         39.0004
 04  6 22 13 46 20.0000000  0 10G24G21G18G 5G 6G17G30G29G10G26
  24874195.6494    -767387.45743   -607170.66642  24874199.2344   24874194.5374
        46.0004         37.0004
  22492916.2124   16543307.64343  12894609.92242  22492918.5094   22492912.1664
        53.0004         45.0004
  24084757.4654   -2901498.60243  -2243006.84542  24084758.4864   24084753.6684
        47.0004         39.0004
  23305445.4504    -305866.18243   -251008.75342  23305446.7804   23305440.9514
        50.0004         42.0004
  20664369.8884   16789150.67844  13085116.15942  20664371.6314   20664366.1954
        57.0004         49.0004
  22031764.4324   18014009.23143  14035006.16742  22031765.2904   22031760.5374
        53.0004         46.0004
  21170980.1304   18102021.98244  14102739.98842  21170982.5174   21170976.8634
        57.0004         48.0004
  23569297.2714   16471485.56143  12840869.86242  23569299.0114   23569295.4274
        48.0004         41.0004
  21484914.1384    -799828.99643   -631407.02142  21484915.6034   21484910.7364
        55.0004         47.0004
  23885213.6644   -2705693.26343  -2093810.22242  23885217.0314   23885213.0624
        46.0004         38.0004
 04  6 22 13 46 40.0000000  0 10G24G21G18G 5G 6G17G30G29G10G26
  24884104.4234    -715321.42043   -566599.81842  24884105.0534   24884102.8744
        46.0004         36.0004
  22485319.6214   16503388.69643  12863504.27642  22485322.3164   22485316.1434
        53.0004         45.0004
  24071114.6814   -2973191.42243  -2298871.38442  24071116.7214   24071111.9414
        47.0004         39.0004
  23318617.8564    -236642.75143   -197068.46442  23318620.0714   23318615.1154
        49.0004         42.0004
  20659314.5714   16762585.00144  13064415.62242  20659316.3454   20659310.7604
        57.0004         49.0004
  22038837.3294   18051178.18943  14063968.96242  22038838.7444   22038834.1344
        53.0004         46.0004
  21179217.3464   18145306.95144  14136468.50242  21179219.6654   21179213.8774
        57.0004         48.0004
  23561051.5274   16428151.77543  12807103.28542  23561053.6054   23561048.5624
        49.0004         41.0004
  21493217.1704    -756195.32743   -597406.78242  21493218.2714   21493213.8664
        55.0004         47.0004
  23873803.2664   -2765653.24943  -2140532.23642  23873806.9554   23873801.9024
        44.0004         39.0004
 04  6 22 13 47  0.0000000  0 10G24G21G18G 5G 6G17G30G29G10G26
  24894006.7594    -663282.15943   -526049.83342  24894008.1284   24894005.5024
        46.0004         37.0004
  22477738.8504   16463548.09143  12832459.66042  22477740.2034   22477734.5154
        53.0004         45.0004
  24057482.0494   -3044833.53443  -2354696.43042  24057481.8124   24057477.5934
        47.0004         39.0004
  23331799.8564    -167370.96643   -143090.48842  23331801.5864   23331797.5154
        49.0004         41.0004
  20654283.3114   16736144.76844  13043812.83242  20654285.3174   20654279.3514
        57.0004         49.0004
  22045919.8124   18088397.40743  14092970.92442  22045921.5464   22045915.8134
        53.0004         46.0004
  21187492.1574   18188791.82044  14170352.78842  21187494.4144   21187488.7074
        57.0004         48.0004
  23552825.6734   16384925.99643  12773420.86242  23552827.6874   23552823.5264
        49.0004         41.0004
  21501560.0514    -712353.13943   -563244.06042  21501561.7944   21501556.4494
        55.0004         47.0004
  23862403.7594   -2825565.58343  -2187217.14442  23862404.5954   23862400.7334
        45.0004         39.0004
 04  6 22 13 47 20.0000000  0  9G21G18G 5G 6G17G30G29G10G26
  22470175.7684   16423807.00343  12801492.59042  22470177.5354   22470171.5094
        53.0004         44.0004
  24043862.5074   -3116403.15343  -2410464.92942  24043865.7254   24043860.3564
        46.0004         39.0004
  23344994.9114     -98030.56343    -89059.04942  23344997.2434   23344991.5274
        49.0004         41.0004
  20649279.9254   16709851.74044  13023324.74942  20649281.8304   20649276.0584
        57.0004         49.0004
  22053016.2934   18125687.61543  14122028.19842  22053016.8694   22053012.5394
        53.0004         45.0004
  21195808.9834   18232497.16044  14204408.86842  21195811.6634   21195805.8084
        57.0004         48.0004
  23544624.8294   16341830.23943  12739839.77142  23544627.0394   23544622.2884
        48.0004         41.0004
  21509946.5154    -668282.08143   -528902.99842  21509948.5924   21509943.1844
        55.0004         47.0004
  23851015.8364   -2885408.06843  -2233847.64542  23851017.1094   23851014.4894
        46.0004         39.0004
 04  6 22 13 47 40.0000000  0  9G21G18G 5G 6G17G30G29G10G26
  22462624.0434   16384121.34543  12770568.71542  22462625.9324   22462619.4204
        53.0004         44.0004
  24030248.8294   -3187943.95543  -2466211.01142  24030249.6914   24030246.0924
        48.0004         39.0004
  23358195.1554     -28666.57643    -35009.22542  23358196.7374   23358191.6504
        49.0004         41.0004
  20644296.0214   16683662.31744  13002917.39642  20644297.9024   20644292.6054
        57.0004         49.0004
  22060117.3184   18163004.61443  14151106.35242  22060117.8054   22060113.7604
        53.0004         45.0004
  21204159.0334   18276377.90244  14238601.62642  21204161.8914   21204156.0414
        57.0004         48.0004
  23536440.1534   16298821.09843  12706326.16042  23536443.0544   23536440.4064
        49.0004         41.0004
  21518368.2194    -624027.08343   -494418.60442  21518369.6554   21518364.9934
        55.0004         47.0004
  23839632.7444   -2945223.96943  -2280457.40942  23839635.9214   23839632.2104
        46.0004         39.0004
 04  6 22 13 48  0.0000000  0  9G21G18G 5G 6G17G30G29G10G26
  22455088.3774   16344522.38243  12739712.39742  22455091.4844   22455083.8654
        53.0004         45.0004
  24016647.2334   -3259423.28443  -2521909.20242  24016648.8244   24016643.2534
        48.0004         39.0004
  23371404.2864      40751.94243     19083.08642  23371405.5354   23371400.3024
        49.0004         41.0004
  20639337.9194   16657608.47244  12982615.68742  20639339.9484   20639334.4844
        57.0004         49.0004
  22067229.2624   18200379.52843  14180229.63442  22067229.7964   22067226.8454
        53.0004         45.0004
  21212548.7964   18320464.95644  14272955.15242  21212551.4174   21212545.2874
        57.0004         48.0004
  23528278.5144   16255931.26943  12672905.53542  23528280.4284   23528276.6704
        48.0004         41.0004
  21526830.4184    -579557.35143   -459766.88842  21526832.0614   21526827.1534
        55.0004         47.0004
  23828262.2104   -3004980.50343  -2327020.90742  23828265.5964   23828261.5024
        46.0004         39.0004
 04  6 22 13 48 20.0000000  0  9G21G18G 5G 6G17G30G29G10G26
  22447567.3404   16304997.58743  12708913.86542  22447568.9104   22447562.6984
        53.0004         44.0004
  24003053.9654   -3330853.53843  -2577569.13142  24003057.1624   24003050.0624
        48.0004         39.0004
  23384621.7544     110211.58043     73207.41742  23384623.0134   23384620.8614
        48.0004         41.0004
  20634403.8484   16631678.23544  12962410.30142  20634405.7824   20634399.8254
        57.0004         49.0004
  22074350.3464   18237799.51743  14209388.04842  22074351.7884   22074347.0364
        53.0004         45.0004
  21220974.9554   18364744.95843  14307459.02242  21220977.1864   21220971.6594
        56.0004         48.0004
  23520137.6734   16213148.78743  12639568.54842  23520139.6514   23520135.1684
        48.0004         41.0004
  21535331.0404    -534886.29143   -424958.29242  21535332.2734   21535327.8264
        55.0004         47.0004
  23816899.0724   -3064689.36443  -2373547.26942  23816901.2814   23816898.7744
        47.0004         39.0004
 04  6 22 13 48 40.0000000  0  9G21G18G 5G 6G17G30G29G10G26
  22440061.3684   16265554.49843  12678179.00742  22440063.3994   22440057.8024
        52.0004         44.0004
  23989472.4124   -3402226.55643  -2633184.47242  23989474.1044   23989468.9554
        48.0004         39.0004
  23397848.9874     179718.68543    127368.74442  23397849.3084   23397845.4374
        48.0004         41.0004
  20629494.5424   16605879.33744  12942307.25642  20629496.2324   20629490.8234
        57.0004         49.0004
  22081480.8714   18275271.63643  14238587.06942  22081482.3254   22081478.0534
        53.0004         45.0004
  21229439.0854   18409224.52244  14342118.39542  21229441.7284   21229435.7394
        57.0004         48.0004
  23512018.9854   16170482.07943  12606321.76742  23512020.5304   23512015.4134
        48.0004         41.0004
  21543871.5124    -490007.21643   -389987.60942  21543873.0574   21543868.2104
        55.0004         47.0004
  23805548.7444   -3124342.23943  -2420030.00642  23805551.1604   23805546.3554
        47.0004         39.0004
 04  6 22 13 49  0.0000000  0  9G21G18G 5G 6G17G30G29G10G26
  22432570.5884   16226190.43543  12647505.73242  22432572.5884   22432566.9504
        53.0004         44.0004
  23975901.5384   -3473544.31743  -2688756.75742  23975903.8094   23975896.7714
        48.0004         40.0004
  23411084.4074     249270.11443    181564.62242  23411085.4154   23411080.6324
        48.0004         41.0004
  20624609.7194   16580209.77244  12922304.98542  20624611.7004   20624606.1164
        57.0004         49.0004
  22088621.1004   18312793.23243  14267824.64642  22088622.4844   22088617.6064
        53.0004         45.0004
  21237940.5604   18453900.35544  14376930.70342  21237943.1664   21237937.7404
        57.0004         48.0004
  23503920.5634   16127929.40843  12573163.83842  23503924.3194   23503919.9934
        48.0004         41.0004
  21552450.7064    -444923.45943   -354857.43142  21552452.2094   21552447.6154
        55.0004         47.0004
  23794205.9484   -3183940.49643  -2466470.18142  23794208.7934   23794206.8444
        46.0004         38.0004
 04  6 22 13 49 20.0000000  0  9G21G18G 5G 6G17G30G29G10G26
  22425094.6604   16186903.60143  12616892.64242  22425096.7784   22425090.5524
        53.0004         44.0004
  23962340.0494   -3544807.52743  -2744286.54042  23962342.7454   23962337.3694
        48.0004         39.0004
  23424326.8774     318863.60743    235793.27042  23424327.8064   23424324.6494
        48.0004         41.0004
  20619749.4394   16554668.49344  12902402.68142  20619751.2864   20619745.5204
        57.0004         50.0004
  22095770.0934   18350362.37443  14297099.27042  22095771.0424   22095766.9584
        53.0004         45.0004
  21246479.1894   18498770.25444  14411894.22742  21246481.5734   21246475.5624
        57.0004         48.0004
  23495844.8284   16085490.17743  12540094.31842  23495846.1454   23495842.6864
        47.0004         41.0004
  21561068.5424    -399637.42243   -319569.63242  21561069.4884   21561065.1974
        55.0004         47.0004
  23782876.0094   -3243484.64643  -2512868.17342  23782878.3504   23782873.7174
        46.0004         39.0004
 04  6 22 13 49 40.0000000  0  9G21G18G 5G 6G17G30G29G10G26
  22417634.3594   16147698.25743  12586343.03842  22417636.7324   22417629.6314
        53.0004         45.0004
  23948790.4914   -3616011.35143  -2799770.03242  23948792.6034   23948785.3404
        48.0004         39.0004
  23437579.4214     388502.33543    290057.16442  23437582.0104   23437578.5534
        48.0004         41.0004
  20614914.4094   16529260.20244  12882604.00442  20614916.4954   20614910.5454
        57.0004         50.0004
  22102929.5204   18387982.99143  14326414.00942  22102930.5664   22102926.3934
        53.0004         45.0004
  21255055.4194   18543837.54643  14447011.56642  21255057.8474   21255051.6174
        56.0004         48.0004
  23487791.0124   16043169.34343  12507117.06742  23487793.6634   23487789.0314
        47.0004         41.0004
  21569724.9294    -354145.73143   -284121.58142  21569726.0424   21569721.6644
        55.0004         47.0004
  23771556.2404   -3302969.57543  -2559220.04442  23771558.2874   23771555.4274
        46.0004         39.0004
 04  6 22 13 50  0.0000000  0  9G21G18G 5G 6G17G30G29G10G26
  22410188.1334   16108568.49843  12555852.33142  22410190.0564   22410183.2494
        53.0004         45.0004
  23935251.7294   -3687161.16243  -2855211.46442  23935255.9534   23935249.4714
        49.0004         39.0004
  23450838.2904     458179.47443    344350.99842  23450838.6564   23450836.1484
        48.0004         40.0004
  20610103.6924   16503979.54244  12862904.77942  20610105.4464   20610100.0644
        57.0004         50.0004
  22110096.8654   18425648.89343  14355764.03142  22110098.7134   22110093.1234
        53.0004         45.0004
  21263667.5234   18589095.62943  14482277.57642  21263669.9864   21263664.4414
        56.0004         48.0004
  23479759.1284   16000961.78643  12474228.08042  23479761.3154   23479758.0774
        47.0004         41.0004
  21578419.7764    -308455.03543   -248518.46542  21578421.4574   21578416.2324
        55.0004         47.0004
  23760245.6504   -3362400.08943  -2605529.51742  23760249.2934   23760247.5514
        45.0004         39.0004
 04  6 22 13 50 20.0000000  0  9G21G18G 5G 6G17G30G29G10G26
  22402757.5754   16069521.17043  12525425.86442  22402759.9744   22402753.3544
        53.0004         45.0004
  23921723.5254   -3758249.19243  -2910604.72842  23921726.5734   23921722.0584
        48.0004         39.0004
  23464106.1714     527901.43643    398679.75742  23464107.7384   23464103.4774
        49.0004         40.0004
  20605318.6344   16478833.95344  12843310.80042  20605320.4364   20605314.7844
        57.0004         50.0004
  22117274.5004   18463366.91143  14385154.66842  22117275.5714   22117270.5594
        53.0004         45.0004
  21272317.3074   18634550.79143  14517697.15242  21272319.6064   21272314.0254
        56.0004         48.0004
  23471750.6504   15958875.44043  12441433.53042  23471753.0964   23471749.8154
        47.0004         41.0004
  21587153.5194    -262559.07043   -212755.39942  21587154.7274   21587150.0594
        55.0004         47.0004
  23748949.0114   -3421768.03643  -2651790.23642  23748951.9754   23748948.7864
        46.0004         39.0004
 04  6 22 13 50 40.0000000  0  9G21G18G 5G 6G17G30G29G10G26
  22395341.8184   16030552.07443  12495060.35742  22395343.4984   22395337.8214
        53.0004         45.0004
  23908206.7394   -3829279.05343  -2965952.66642  23908207.1464   23908204.4654
        47.0004         39.0004
  23477381.5224     597663.19443    453039.53442  23477382.8264   23477378.2774
        48.0004         41.0004
  20600558.6574   16453819.82344  12823819.26142  20600560.4634   20600554.9784
        57.0004         50.0004
  22124460.8914   18501132.54343  14414582.39842  22124461.9844   22124457.1684
        53.0004         45.0004
  21281003.8194   18680198.05543  14553266.41042  21281006.5634   21281000.6424
        56.0004         48.0004
  23463764.5684   15916907.21643  12408731.03342  23463766.8184   23463762.5074
        48.0004         40.0004
  21595925.2014    -216462.89843   -176836.32942  21595926.9154   21595921.7674
        55.0004         47.0004
  23737663.9984   -3481076.63643  -2698004.71742  23737665.8184   23737661.3504
        47.0004         39.0004
 04  6 22 13 51  0.0000000  0  9G21G18G 5G 6G17G30G29G10G26
  22387940.9874   15991661.68643  12464756.17742  22387942.6684   22387937.0834
        53.0004         45.0004
  23894702.1454   -3900249.45843  -3021254.27742  23894703.2724   23894697.5604
        47.0004         39.0004
  23490663.9554     667464.21943    507429.92242  23490664.9824   23490660.3194
        49.0004         41.0004
  20595823.8154   16428938.24144  12804431.00742  20595825.7764   20595820.0584
        57.0004         50.0004
  22131656.5684   18538946.09043  14444047.46842  22131658.2124   22131653.2144
        53.0004         45.0004
  21289726.7484   18726037.13443  14588985.13942  21289729.1924   21289723.5654
        56.0004         48.0004
  23455801.2714   15875058.27743  12376121.46842  23455803.2184   23455799.1414
        47.0004         40.0004
  21604735.1584    -170166.86143   -140761.51242  21604736.2574   21604731.2074
        55.0004         47.0004
  23726388.1854   -3540324.45143  -2744171.81442  23726389.5864   23726387.3664
        46.0004         39.0004
 04  6 22 13 51 20.0000000  0  9G21G18G 5G 6G17G30G29G10G26
  22380555.8104   15952850.84143  12434513.97842  22380558.2104   22380551.9694
        53.0004         45.0004
  23881207.6654   -3971159.11043  -3076508.53942  23881209.6704   23881205.4604
        47.0004         39.0004
  23503954.3594     737304.59143    561850.93142  23503956.2894   23503951.4274
        49.0004         41.0004
  20591114.5194   16404190.25744  12785146.85742  20591116.6684   20591110.7764
        57.0004         50.0004
  22138861.5974   18576807.98043  14473550.21642  22138863.0284   22138858.4954
        53.0004         45.0004
  21298486.2164   18772068.11843  14624853.41042  21298488.3034   21298482.8224
        56.0004         48.0004
  23447859.7804   15833330.17743  12343606.07342  23447863.1924   23447856.9534
        47.0004         40.0004
  21613582.7584    -123671.00143   -104530.99342  21613584.0554   21613579.0434
        54.0004         47.0004
  23715126.2944   -3599509.65643  -2790290.11142  23715127.4044   23715125.0314
        47.0004         39.0004
 04  6 22 13 51 40.0000000  0  9G21G18G 5G 6G17G30G29G10G26
  22373185.2254   15914117.90143  12404332.48442  22373187.1734   22373181.0284
        53.0004         45.0004
  23867726.1314   -4042008.96943  -3131716.20542  23867727.4664   23867722.1474
        47.0004         40.0004
  23517251.4084     807181.96343    616300.79242  23517253.8394   23517250.1544
        48.0004         41.0004
  20586430.2984   16379574.92144  12765966.07242  20586432.3634   20586426.7004
        57.0004         50.0004
  22146075.1874   18614716.58543  14503089.35942  22146075.7884   22146071.8354
        52.0004         45.0004
  21307281.5784   18818288.73943  14660869.45142  21307284.3744   21307278.6054
        56.0004         48.0004
  23439942.7634   15791722.38343  12311184.42742  23439944.6614   23439939.2384
        47.0004         40.0004
  21622468.4714     -76977.47443    -68146.44842  21622469.6634   21622465.5834
        54.0004         47.0004
  23703876.0584   -3658632.56343  -2836359.89742  23703877.9774   23703873.9404
        47.0004         38.0004
 04  6 22 13 52  0.0000000  0  9G21G18G 5G 6G17G30G29G10G26
  22365829.5254   15875463.55243  12374212.23542  22365830.9714   22365825.1844
        53.0004         45.0004
  23854255.2224   -4112797.55743  -3186876.13942  23854256.3764   23854251.1844
        47.0004         39.0004
  23530555.3264     877096.35643    670779.51142  23530557.6674   23530553.7484
        48.0004         41.0004
  20581771.6194   16355093.57344  12746889.68942  20581773.6664   20581768.2004
        57.0004         50.0004
  22153298.2784   18652672.36643  14532665.25842  22153299.0674   22153293.9334
        53.0004         45.0004
  21316113.3924   18864698.90543  14697033.19042  21316115.5424   21316110.1784
        56.0004         48.0004
  23432048.1304   15750236.54043  12278857.80442  23432049.7064   23432046.5214
        47.0004         40.0004
  21631391.5164     -30086.34643    -31607.92242  21631393.0434   21631387.4214
        54.0004         47.0004
  23692637.0854   -3717691.50143  -2882379.86242  23692639.1504   23692635.7384
        46.0004         38.0004
 04  6 22 13 52 20.0000000  0  9G21G18G 5G 6G17G30G29G10G26
  22358488.7084   15836887.29143  12344152.81842  22358489.8464   22358483.6004
        53.0004         45.0004
  23840795.8244   -4183524.37243  -3241987.92442  23840797.0904   23840792.9164
        46.0004         39.0004
  23543867.0614     947046.63143    725286.16742  23543870.4114   23543864.2194
        49.0004         41.0004
  20577138.6234   16330746.48044  12727917.91942  20577140.5314   20577134.8774
        57.0004         50.0004
  22160529.9744   18690674.79843  14562277.51242  22160531.1104   22160527.2324
        53.0004         45.0004
  21324980.7814   18911297.60643  14733343.83942  21324983.6394   21324977.7554
        56.0004         48.0004
  23424176.3774   15708873.15843  12246626.59742  23424179.1294   23424174.5634
        46.0004         40.0004
  21640352.1274      17001.41143      5083.81442  21640353.8064   21640348.8234
        55.0004         47.0004
  23681410.3774   -3776685.73343  -2928349.34742  23681413.6774   23681410.3554
        46.0004         38.0004
 04  6 22 13 52 40.0000000  0  9G21G18G 5G 6G17G30G29G10G26
  22351163.2604   15798390.93243  12314155.65842  22351165.0654   22351158.9644
        53.0004         45.0004
  23827349.5544   -4254187.13343  -3297049.80742  23827350.1584   23827346.5124
        47.0004         39.0004
  23557185.2634    1017033.64643    779821.45842  23557186.4774   23557181.0164
        49.0004         41.0004
  20572531.5814   16306535.74544  12709052.40542  20572533.5084   20572527.7444
        57.0004         50.0004
  22167770.9334   18728725.20443  14591927.15142  22167771.6674   22167767.6864
        53.0004         45.0004
  21333884.2984   18958085.69343  14769802.05342  21333886.7324   21333881.3504
        56.0004         48.0004
  23416328.8344   15667634.92343  12214492.91842  23416330.4314   23416328.2444
        46.0004         40.0004
  21649350.0894      64286.55343     41929.36042  21649351.3154   21649346.3854
        54.0004         47.0004
  23670197.8914   -3835612.32243  -2974266.12842  23670197.5684   23670196.7754
        46.0004         38.0004
 04  6 22 13 53  0.0000000  0  9G21G18G 5G 6G17G30G29G10G26
  22343852.4564   15759972.46843  12284219.20342  22343854.5504   22343847.7424
        53.0004         45.0004
  23813914.7234   -4324787.28743  -3352062.89542  23813916.2514   23813912.8034
        47.0004         39.0004
  23570510.0824    1087054.72743    834383.28142  23570511.4994   23570507.3534
        49.0004         41.0004
  20567949.9604   16282459.75744  12690291.88942  20567952.1534   20567946.1514
        57.0004         50.0004
  22175020.0164   18766821.38643  14621612.45842  22175021.8774   22175016.4204
        53.0004         45.0004
  21342823.3094   19005060.41943  14806405.70142  21342825.3124   21342819.9144
        56.0004         48.0004
  23408505.2674   15626520.40943  12182455.65842  23408506.4034   23408504.7324
        47.0004         39.0004
  21658384.8004     111766.18343     78926.45142  21658386.5044   21658382.2764
        54.0004         47.0004
  23658996.2604   -3894472.42143  -3020131.11542  23658998.6624   23658995.8784
        46.0004         38.0004
 04  6 22 13 53 20.0000000  0  9G21G18G 5G 6G17G30G29G10G26
  22336556.7324   15721632.42743  12254343.85242  22336558.9294   22336551.3454
        53.0004         45.0004
  23800492.9784   -4395323.30143  -3407026.02242  23800494.3024   23800489.6714
        47.0004         39.0004
  23583840.6384    1157109.66943    888971.51642  23583841.4834   23583839.9404
        48.0004         41.0004
  20563394.2854   16258519.88144  12671637.43542  20563396.5354   20563390.6564
        57.0004         50.0004
  22182278.4434   18804963.77343  14651333.77042  22182279.8054   22182276.0484
        52.0004         45.0004
  21351797.6004   19052221.69143  14843154.71442  21351800.0634   21351794.5704
        56.0004         48.0004
  23400705.5044   15585531.30243  12150516.10242  23400706.5154   23400703.6654
        46.0004         39.0004
  21667457.4234     159440.31143    116075.10142  21667458.8984   21667454.1474
        54.0004         47.0004
  23647808.9024   -3953264.27143  -3065942.93642  23647811.6244   23647805.5434
        45.0004         38.0004
 04  6 22 13 53 40.0000000  0  9G21G18G 5G 6G17G30G29G10G26
  22329275.6724   15683370.98943  12224529.74942  22329277.5294   22329271.0754
        53.0004         45.0004
  23787081.7554   -4465794.66443  -3461938.77642  23787083.1814   23787080.8584
        47.0004         39.0004
  23597177.8284    1227197.71643    943585.50142  23597181.2464   23597174.3824
        48.0004         41.0004
  20558864.7364   16234716.65144  12653089.46242  20558866.8174   20558860.9894
        57.0004         50.0004
  22189545.3744   18843152.30143  14681091.02742  22189546.9034   22189541.9384
        52.0004         45.0004
  21360807.5214   19099568.89143  14880048.60942  21360810.2864   21360804.8234
        56.0004         48.0004
  23392929.5744   15544668.66343  12118675.10642  23392931.7614   23392927.2164
        46.0004         40.0004
  21676566.4934     207308.23843    153374.76542  21676567.6944   21676562.8684
        54.0004         47.0004
  23636634.6694   -4011986.75643  -3111700.67542  23636636.4344   23636635.5504
        46.0004         38.0004
 04  6 22 13 54  0.0000000  0  9G21G18G 5G 6G17G30G29G10G26
  22322009.3414   15645187.29543  12194776.23142  22322012.4784   22322005.6244
        53.0004         45.0004
  23773683.5614   -4536201.42043  -3516801.18642  23773685.6664   23773680.0644
        46.0004         39.0004
  23610521.5184    1297317.12343    998223.95342  23610523.1064   23610518.3964
        48.0004         41.0004
  20554361.0704   16211049.76644  12634647.72742  20554362.9474   20554357.5834
        57.0004         50.0004
  22196820.9634   18881386.00143  14710883.48942  22196822.3904   22196817.9124
        52.0004         45.0004
  21369852.5664   19147100.48243  14917086.18642  21369855.2144   21369849.6564
        56.0004         48.0004
  23385177.6674   15503932.46243  12086932.62142  23385181.3084   23385175.8444
        47.0004         40.0004
  21685711.9934     255368.41743    190824.23542  21685713.4964   21685708.4794
        54.0004         46.0004
  23625472.8914   -4070639.59643  -3157404.14542  23625476.4454   23625472.4494
        46.0004         38.0004
 04  6 22 13 54 20.0000000  0  9G21G18G 5G 6G17G30G29G10G26
  22314758.3084   15607083.67443  12165085.10642  22314760.6074   22314754.0674
        53.0004         45.0004
  23760298.7564   -4606540.48843  -3571610.85542  23760299.8054   23760295.2184
        46.0004         39.0004
  23623871.3684    1367469.77143   1052888.29342  23623871.4274   23623869.5774
        48.0004         41.0004
  20549883.9084   16187522.28944  12616314.62342  20549885.7624   20549880.6224
        57.0004         50.0004
  22204105.5124   18919667.01843  14740712.82942  22204106.4534   22204102.6134
        52.0004         45.0004
  21378933.0254   19194818.13643  14954268.74142  21378935.3274   21378929.8644
        56.0004         48.0004
  23377450.5624   15463326.06143  12055291.28442  23377452.3604   23377448.0964
        47.0004         40.0004
  21694894.5194     303622.33543    228424.67642  21694895.7334   21694890.8844
        54.0004         46.0004
  23614326.1524   -4129219.23343  -3203050.59742  23614326.4944   23614321.3434
        46.0004         37.0004
 04  6 22 13 54 40.0000000  0  9G21G18G 5G 6G17G30G29G10G26
  22307522.4494   15569057.82843  12135454.59542  22307524.7704   22307517.7074
        53.0004         45.0004
  23746926.0894   -4676813.34543  -3626368.91042  23746928.2474   23746923.0164
        47.0004         39.0004
  23637226.8104    1437652.66243   1107576.20242  23637228.6944   23637224.9014
        48.0004         41.0004
  20545433.0374   16164132.52144  12598088.82342  20545435.2524   20545429.4254
        57.0004         50.0004
  22211398.5634   18957992.91043  14770577.13542  22211400.3024   22211395.9554
        52.0004         45.0004
  21388048.2664   19242718.73643  14991593.86142  21388050.8134   21388044.9964
        56.0004         48.0004
  23369748.2514   15422848.16143  12023750.08842  23369749.3914   23369746.3974
        47.0004         40.0004
  21704113.1314     352067.08343    266173.81242  21704114.3244   21704110.1144
        54.0004         47.0004
  23603192.4084   -4187726.88343  -3248640.95942  23603196.5564   23603190.2594
        46.0004         38.0004
 04  6 22 13 55  0.0000000  0  9G21G18G 5G 6G17G30G29G10G26
  22300301.6394   15531110.82543  12105885.51242  22300303.9664   22300297.4484
        54.0004         45.0004
  23733567.0674   -4747018.45643  -3681074.18842  23733568.7904   23733562.2284
        48.0004         40.0004
  23650587.8424    1507866.09743   1162287.90342  23650587.3714   23650585.2964
        48.0004         41.0004
  20541008.7094   16140881.90244  12579971.45342  20541010.9004   20541005.2194
        57.0004         50.0004
  22218700.8214   18996364.52543  14800477.06742  22218702.5034   22218697.3044
        52.0004         45.0004
  21397198.2174   19290802.65143  15029061.82342  21397200.9684   21397195.1974
        56.0004         48.0004
  23362070.1434   15382500.56443  11992310.43242  23362072.4104   23362068.2794
        48.0004         40.0004
  21713368.1324     400702.81143    304071.76442  21713368.9014   21713365.1714
        54.0004         46.0004
  23592072.7404   -4246160.30943  -3294173.46642  23592075.9144   23592071.7324
        46.0004         39.0004
 04  6 22 13 55 20.0000000  0  9G21G18G 5G 6G17G30G29G10G26
  22293094.8864   15493241.06043  12076376.62442  22293096.9024   22293091.0104
        53.0004         45.0004
  23720219.8994   -4817156.46143  -3735727.18342  23720221.4824   23720216.6234
        48.0004         40.0004
  23663954.3734    1578107.86843   1217021.69042  23663955.2664   23663952.6184
        48.0004         41.0004
  20536610.4464   16117769.56344  12561961.82842  20536612.3594   20536606.6484
        57.0004         50.0004
  22226011.2404   19034779.96343  14830411.14442  22226011.6644   22226007.5404
        52.0004         45.0004
  21406382.7964   19339067.65743  15066670.89742  21406385.4694   21406379.6274
        56.0004         48.0004
  23354417.0264   15342282.62843  11960971.78742  23354418.0744   23354414.1544
        47.0004         40.0004
  21722659.1524     449527.21643    342116.73342  21722660.2894   21722656.0644
        54.0004         46.0004
  23580966.5684   -4304520.08943  -3339648.57742  23580968.9194   23580965.9084
        46.0004         39.0004
 04  6 22 13 55 40.0000000  0  9G21G18G 5G 6G17G30G29G10G26
  22285903.5824   15455449.59943  12046928.74642  22285905.5504   22285899.8014
        53.0004         45.0004
  23706886.3524   -4887225.75343  -3790326.61542  23706888.2244   23706883.9834
        49.0004         40.0004
  23677326.6114    1648377.96043   1271777.55242  23677328.2994   23677323.7484
        49.0004         41.0004
  20532238.9504   16094796.84544  12544060.99942  20532240.7724   20532235.4764
        57.0004         50.0004
  22233329.8004   19073240.23743  14860380.16042  22233331.1914   22233326.6554
        52.0004         45.0004
  21415601.7654   19387513.83043  15104421.13942  21415604.4144   21415598.9154
        56.0004         48.0004
  23346788.5884   15302196.33243  11929735.74142  23346791.3524   23346787.1414
        48.0004         40.0004
  21731986.1884     498540.54243    380308.91742  21731986.9734   21731982.4814
        54.0004         46.0004
  23569876.4484   -4362804.06443  -3385064.62842  23569879.5484   23569874.4254
        46.0004         39.0004
 04  6 22 13 56  0.0000000  0  9G21G18G 5G 6G17G30G29G10G26
  22278726.8804   15417735.69643  12017541.31442  22278728.7354   22278722.6464
        54.0004         45.0004
  23693565.5864   -4957226.38043  -3844872.56642  23693567.7944   23693561.8714
        49.0004         41.0004
  23690703.8514    1718674.86743   1326554.31442  23690704.8504   23690700.8514
        49.0004         41.0004
  20527893.9624   16071963.83344  12526269.03442  20527896.0574   20527890.2444
        57.0004         50.0004
  22240657.0674   19111744.21943  14890383.24142  22240658.3844   22240654.4624
        52.0004         45.0004
  21424855.0224   19436139.77643  15142311.46242  21424857.5294   21424851.8754
        56.0004         48.0004
  23339185.7754   15262241.68443  11898602.28442  23339187.0684   23339182.7664
        48.0004         40.0004
  21741348.5654     547741.30043    418647.15342  21741350.9504   21741345.5914
        54.0004         46.0004
  23558799.5194   -4421011.91743  -3430421.37742  23558801.5264   23558798.3164
        47.0004         39.0004
 04  6 22 13 56 20.0000000  0  9G21G18G 5G 6G17G30G29G10G26
  22271565.4884   15380102.15443  11988216.48842  22271567.6874   22271561.3824
        54.0004         45.0004
  23680258.2164   -5027154.90243  -3899362.31342  23680260.2734   23680255.5594
        49.0004         41.0004
  23704085.8504    1789000.72643   1381353.63242  23704087.7894   23704083.8304
        49.0004         41.0004
  20523576.4224   16049273.68544  12508588.39142  20523578.1444   20523572.3834
        57.0004         50.0004
  22247993.1874   19150294.77643  14920422.61442  22247994.4524   22247989.3154
        52.0004         45.0004
  21434143.1694   19484947.49543  15180343.42242  21434145.2194   21434139.8254
        56.0004         48.0004
  23331608.3384   15222422.48143  11867574.36642  23331611.3504   23331607.1524
        48.0004         40.0004
  21750747.2424     597131.59043    457133.07442  21750748.2874   21750744.0134
        54.0004         46.0004
  23547738.2824   -4479139.82043  -3475715.81242  23547740.0934   23547736.0664
        46.0004         39.0004
 04  6 22 13 56 40.0000000  0  9G21G18G 5G 6G17G30G29G10G26
  22264418.6274   15342545.57143  11958951.63242  22264420.2994   22264414.4044
        54.0004         45.0004
  23666965.0294   -5097013.79643  -3953797.80742  23666967.4564   23666961.5754
        49.0004         41.0004
  23717473.5774    1859351.31443   1436172.22642  23717474.1554   23717470.1924
        49.0004         41.0004
  20519285.1064   16026723.75644  12491017.01042  20519287.0554   20519281.3524
        57.0004         50.0004
  22255337.0114   19188888.23943  14950495.41642  22255337.7024   22255334.7144
        52.0004         45.0004
  21443464.7264   19533933.02943  15218513.93942  21443467.2364   21443461.0314
        56.0004         47.0004
  23324056.4274   15182736.20343  11836650.01642  23324058.2864   23324053.9984
        48.0004         40.0004
  21760181.3314     646707.35443    495763.51742  21760182.6474   21760178.3344
        54.0004         46.0004
  23536691.6694   -4537189.90243  -3520949.59442  23536693.8494   23536687.2164
        47.0004         39.0004
 04  6 22 13 57  0.0000000  0  9G21G18G 5G 6G17G30G29G10G26
  22257286.5424   15305065.47243  11929746.37542  22257289.1964   22257281.8084
        54.0004         45.0004
  23653684.1954   -5166802.85143  -4008178.88242  23653686.9214   23653680.2924
        49.0004         41.0004
  23730865.8564    1929725.68243   1491009.35442  23730867.2884   23730863.3264
        49.0004         41.0004
  20515020.5594   16004314.16744  12473554.98342  20515022.4904   20515017.3624
        57.0004         50.0004
  22262689.0664   19227524.17243  14980601.30742  22262689.9914   22262686.3474
        52.0004         45.0004
  21452820.0604   19583095.24343  15256822.12542  21452821.8594   21452816.8874
        56.0004         47.0004
  23316529.2644   15143183.44943  11805829.70742  23316530.6444   23316527.6244
        48.0004         40.0004
  21769650.4254     696467.43343    534537.58642  21769651.8164   21769647.3374
        54.0004         46.0004
  23525658.7574   -4595161.42143  -3566122.20342  23525661.3944   23525656.6154
        46.0004         39.0004
 04  6 22 13 57 20.0000000  0  9G21G18G 5G 6G17G30G29G10G26
  22250169.4554   15267666.23143  11900604.12442  22250171.3824   22250164.9324
        54.0004         45.0004
  23640418.5224   -5236517.44143  -4062501.93042  23640420.8804   23640416.7404
        49.0004         41.0004
  23744262.6414    2000127.06943   1545867.52142  23744263.9484   23744261.2454
        49.0004         41.0004
  20510783.8074   15982049.34044  12456205.76042  20510786.2994   20510780.4104
        57.0004         50.0004
  22270050.1014   19266206.26343  15010743.17142  22270051.6614   22270047.2354
        52.0004         45.0004
  21462209.2254   19632437.30443  15295270.45542  21462211.8074   21462206.5284
        56.0004         47.0004
  23309029.9634   15103769.09243  11775117.24542  23309029.8804   23309025.7584
        48.0004         40.0004
  21779154.9774     746414.97743    573457.73342  21779156.6404   21779152.2844
        54.0004         46.0004
  23514643.6234   -4653049.28043  -3611229.57642  23514644.7284   23514640.8194
        47.0004         39.0004
 04  6 22 13 57 40.0000000  0  9G21G18G 5G 6G17G30G29G10G26
  22243067.0914   15230342.90343  11871521.03242  22243069.2184   22243062.3524
        54.0004         45.0004
  23627165.7174   -5306161.50043  -4116770.03542  23627167.7524   23627163.5234
        49.0004         41.0004
  23757663.4424    2070550.03743   1600742.50342  23757664.7294   23757661.5814
        48.0004         41.0004
  20506573.7804   15959925.17344  12438966.14142  20506575.5764   20506570.2404
        57.0004         50.0004
  22277419.0384   19304929.61943  15040917.18342  22277420.3654   22277416.1924
        52.0004         45.0004
  21471632.2724   19681953.77843  15333854.69542  21471634.3474   21471629.1524
        56.0004         47.0004
  23301554.6414   15064489.37143  11744509.70142  23301556.8664   23301550.5934
        48.0004         40.0004
  21788694.3764     796544.32143    612519.53942  21788695.5764   21788691.0694
        54.0004         46.0004
  23503644.0304   -4710857.09743  -3656274.59142  23503646.5694   23503642.8534
        47.0004         39.0004
 04  6 22 13 58  0.0000000  0  9G21G18G 5G 6G17G30G29G10G26
  22235979.6824   15193099.52943  11842500.23542  22235982.4594   22235976.2954
        54.0004         45.0004
  23613926.8094   -5375730.38643  -4170979.55342  23613929.5144   23613923.2674
        49.0004         41.0004
  23771069.3584    2140997.93843   1655636.91542  23771070.8634   23771067.1144
        48.0004         40.0004
  20502391.4764   15937946.49144  12421839.88942  20502393.2214   20502387.7134
        57.0004         50.0004
  22284796.3364   19343698.31743  15071126.52042  22284798.2204   22284793.7094
        52.0004         45.0004
  21481088.6174   19731648.00743  15372577.43742  21481091.5154   21481085.6794
        56.0004         47.0004
  23294106.5374   15025349.28243  11714010.95442  23294108.6034   23294103.5804
        48.0004         41.0004
  21798269.4204     846858.97443    651725.73842  21798270.6494   21798266.6374
        54.0004         46.0004
  23492659.2374   -4768579.67643  -3701253.19842  23492659.8744   23492658.1664
        47.0004         40.0004
 04  6 22 13 58 20.0000000  0  9G21G18G 5G 6G17G30G29G10G26
  22228907.7294   15155933.24143  11813539.50042  22228909.1414   22228902.6894
        54.0004         45.0004
  23600702.5804   -5445226.15443  -4225132.08842  23600703.3754   23600699.3944
        49.0004         41.0004
  23784479.4554    2211467.05643   1710547.85942  23784480.9864   23784479.0394
        48.0004         40.0004
  20498236.5024   15916110.84944  12404825.09942  20498238.3344   20498232.6334
        57.0004         50.0004
  22292181.9224   19382509.20543  15101368.73942  22292184.0134   22292179.0804
        52.0004         44.0004
  21490578.1624   19781516.42343  15411435.91442  21490580.8114   21490574.8914
        56.0004         47.0004
  23286684.2054   14986346.72543  11683619.37342  23286687.6764   23286681.5264
        48.0004         41.0004
  21807878.1854     897355.28343    691073.48742  21807879.3874   21807874.5664
        54.0004         46.0004
  23481691.3614   -4826218.83743  -3746166.80342  23481693.1014   23481688.9814
        48.0004         40.0004
 04  6 22 13 58 40.0000000  0  9G21G18G 5G 6G17G30G29G10G26
  22221850.1754   15118845.65743  11784640.10142  22221852.0324   22221845.1944
        54.0004         45.0004
  23587491.7524   -5514646.56743  -4279225.91642  23587492.9224   23587487.4574
        49.0004         41.0004
  23797893.3714    2281958.02643   1765475.85242  23797893.7654   23797891.1794
        47.0004         40.0004
  20494108.5564   15894420.15944  12387923.25542  20494110.6474   20494105.2074
        57.0004         50.0004
  22299575.8064   19421363.68443  15131644.93742  22299576.8894   22299573.0824
        52.0004         45.0004
  21500100.9384   19831559.60043  15450430.56542  21500103.2574   21500097.9904
        56.0004         47.0004
  23279289.0134   14947483.97643  11653336.73942  23279289.9624   23279286.6084
        48.0004         40.0004
  21817522.1204     948033.91543    730563.31142  21817523.7354   21817519.5194
        54.0004         46.0004
  23470738.6434   -4883771.92643  -3791013.32942  23470741.4934   23470738.4644
        47.0004         40.0004
 04  6 22 13 59  0.0000000  0  9G21G18G 5G 6G17G30G29G10G26
  22214806.6384   15081833.04443  11755799.11042  22214809.0884   22214802.1284
        54.0004         45.0004
  23574295.8234   -5583994.59543  -4333263.33542  23574297.9774   23574292.9904
        49.0004         41.0004
  23811311.1034    2352466.52943   1820417.46842  23811311.9944   23811307.3034
        47.0004         40.0004
  20490007.8874   15872871.51744  12371132.10042  20490010.0584   20490004.5714
        57.0004         50.0004
  22306977.0584   19460257.85943  15161952.05242  22306978.3424   22306974.3524
        52.0004         44.0004
  21509656.6774   19881773.21743  15489558.02842  21509659.0554   21509653.5424
        56.0004         47.0004
  23271920.3474   14908758.49943  11623161.05642  23271924.2064   23271915.6894
        48.0004         41.0004
  21827199.7684     998890.54643    770191.82942  21827200.7554   21827196.9154
        54.0004         46.0004
  23459803.0074   -4941241.49543  -3835794.78542  23459804.2874   23459801.1624
        47.0004         40.0004
 04  6 22 13 59 20.0000000  0  9G21G18G 5G 6G17G30G29G10G26
  22207778.1334   15044899.99143  11727020.12142  22207780.4394   22207774.2304
        54.0004         45.0004
  23561114.0474   -5653265.01843  -4387240.29942  23561116.2164   23561110.6474
        49.0004         41.0004
  23824731.6774    2422996.62343   1875375.93742  23824732.5004   23824730.2434
        47.0004         40.0004
  20485935.5364   15851470.13944  12354455.69342  20485937.5434   20485931.9014
        57.0004         50.0004
  22314387.0024   19499196.28843  15192293.65842  22314388.2514   22314383.2964
        52.0004         44.0004
  21519245.0634   19932161.26943  15528821.40842  21519247.2674   21519242.1954
        56.0004         47.0004
  23264577.3024   14870175.75843  11593096.60342  23264580.1704   23264575.6394
        48.0004         41.0004
  21836912.1464    1049929.03343    809962.05442  21836913.9784   21836908.9254
        54.0004         46.0004
  23448883.7764   -4998621.83743  -3880506.67442  23448885.5614   23448881.6524
        47.0004         40.0004
 04  6 22 13 59 40.0000000  0  9G21G18G 5G 6G17G30G29G10G26
  22200765.3724   15008043.92643  11698301.12842  22200766.7964   22200760.9024
        54.0004         45.0004
  23547946.5714   -5722459.67943  -4441158.20142  23547949.9294   23547942.8134
        49.0004         41.0004
  23838156.8714    2493544.97543   1930348.63042  23838157.8244   23838155.4984
        48.0004         40.0004
  20481890.5054   15830213.97444  12337892.43842  20481892.3804   20481886.9944
        57.0004         50.0004
  22321804.1674   19538176.27343  15222667.64642  22321805.9524   22321801.8524
        52.0004         44.0004
  21528866.1534   19982720.25843  15568217.99242  21528868.5334   21528863.3134
        56.0004         47.0004
  23257262.6224   14831734.16043  11563142.15242  23257265.5724   23257260.6984
        48.0004         41.0004
  21846658.2554    1101145.99343    849871.35742  21846659.6584   21846655.4574
        54.0004         46.0004
  23437980.9864   -5055914.34543  -3925150.12942  23437983.5524   23437979.7004
        47.0004         40.0004
 04  6 22 14  0  0.0000000  0  9G21G18G 5G 6G17G30G29G10G26
  22193766.3484   14971266.41043  11669643.33242  22193767.8034   22193761.9504
        54.0004         45.0004
  23534794.2354   -5791576.39243  -4495015.38142  23534795.7594   23534791.7684
        49.0004         41.0004
  23851585.0334    2564112.20043   1985336.01542  23851588.1414   23851584.9414
        46.0004         39.0004
  20477873.7114   15809104.72444  12321443.66442  20477875.7544   20477869.8274
        57.0004         50.0004
  22329230.4574   19577198.80943  15253074.79842  22329231.5944   22329227.2754
        52.0004         44.0004
  21538519.8784   20033450.82543  15607748.26942  21538522.3444   21538517.3764
        56.0004         47.0004
  23249974.3094   14793435.81843  11533299.31542  23249976.0294   23249971.2694
        48.0004         41.0004
  21856438.8164    1152542.01043    889920.17742  21856440.5834   21856435.1964
        54.0004         46.0004
  23427095.8534   -5113116.50843  -3969723.21742  23427098.3184   23427094.5874
        47.0004         40.0004
 04  6 22 14  0 20.0000000  0  9G21G18G 5G 6G17G30G29G10G26
  22186782.3644   14934565.25943  11641045.03842  22186784.5704   22186778.0814
        54.0004         45.0004
  23521656.3754   -5860616.35743  -4548812.74342  23521656.9434   23521653.0004
        49.0004         41.0004
  23865016.9044    2634695.53843   2040335.96742  23865017.1204   23865014.8204
        47.0004         39.0004
  20473884.2914   15788141.33044  12305108.54442  20473886.4364   20473880.6474
        57.0004         50.0004
  22336663.3074   19616261.95743  15283513.59042  22336664.6994   22336660.7894
        52.0004         44.0004
  21548205.9964   20084350.37743  15647410.22342  21548208.2694   21548202.3724
        55.0004         47.0004
  23242713.9214   14755279.71243  11503567.31142  23242716.4604   23242712.3224
        49.0004         41.0004
  21866252.6034    1204114.43543    930106.45742  21866254.4114   21866249.5994
        54.0004         46.0004
  23416228.0534   -5170229.13443  -4014226.51642  23416229.5644   23416227.4154
        48.0004         40.0004
 04  6 22 14  0 40.0000000  0  9G21G18G 5G 6G17G30G29G10G26
  22179813.8314   14897942.88743  11612508.13342  22179815.2804   22179808.7264
        54.0004         45.0004
  23508533.5994   -5929576.70143  -4602548.06442  23508535.2454   23508532.6574
        49.0004         41.0004
  23878451.7774    2705296.55743   2095349.69642  23878453.7264   23878448.9814
        47.0004         39.0004
  20469923.4134   15767326.46244  12288889.15942  20469925.2494   20469920.0344
        57.0004         50.0004
  22344105.5894   19655367.79743  15313985.64342  22344106.6114   22344102.7174
        51.0004         44.0004
  21557924.1984   20135420.37043  15687204.99242  21557926.7654   21557921.0794
        56.0004         47.0004
  23235480.5994   14717268.95043  11473948.56142  23235483.8144   23235478.4814
        49.0004         41.0004
  21876100.5674    1255864.66443    970431.29242  21876102.5074   21876097.2304
        54.0004         46.0004
  23405377.3904   -5227248.92243  -4058657.46742  23405381.4654   23405376.9704
        47.0004         40.0004
 04  6 22 14  1  0.0000000  0  9G21G18G 5G 6G17G30G29G10G26
  22172858.8964   14861398.05343  11584031.65142  22172861.4784   22172854.7344
        54.0004         45.0004
  23495425.8504   -5998457.84943  -4656221.68442  23495427.1484   23495423.3044
        49.0004         41.0004
  23891889.4554    2775913.33043   2150375.68842  23891891.5814   23891886.9884
        46.0004         39.0004
  20465990.7604   15746659.44944  12272784.98642  20465992.6314   20465987.0214
        57.0004         50.0004
  22351554.8664   19694514.97443  15344489.91542  22351556.4014   22351552.0744
        52.0004         44.0004
  21567674.8574   20186658.80743  15727131.02042  21567676.5814   21567671.4554
        56.0004         47.0004
  23228274.9484   14679403.42143  11444442.98142  23228276.2864   23228273.6384
        49.0004         41.0004
  21885981.6404    1307790.81743   1010893.20242  21885983.2364   21885978.5394
        54.0004         46.0004
  23394544.4144   -5284175.98743  -4103016.17242  23394546.9514   23394543.2354
        48.0004         40.0004
 04  6 22 14  1 20.0000000  0  9G21G18G 5G 6G17G30G29G10G26
  22165920.1574   14824931.46243  11555616.13742  22165921.7044   22165915.7284
        54.0004         45.0004
  23482333.3104   -6067258.53243  -4709832.61242  23482335.4644   23482331.1164
        48.0004         41.0004
  23905330.5934    2846546.05443   2205414.12542  23905330.6164   23905329.5194
        46.0004         39.0004
  20462086.2774   15726141.78744  12256797.19042  20462088.1564   20462082.6464
        57.0004         50.0004
  22359012.8884   19733704.26743  15375026.99742  22359014.3014   22359009.7814
        52.0004         44.0004
  21577457.1004   20238065.76143  15767188.35142  21577459.5424   21577453.9214
        56.0004         47.0004
  23221097.7514   14641684.52543  11415051.65842  23221100.6994   23221093.9304
        49.0004         41.0004
  21895896.4164    1359892.96643   1051492.25942  21895897.6844   21895892.9154
        54.0004         46.0004
  23383729.0684   -5341008.24643  -4147301.00342  23383731.3904   23383728.7224
        47.0004         40.0004
 04  6 22 14  1 40.0000000  0  9G21G18G 5G 6G17G30G29G10G26
  22158994.9794   14788540.56443  11527259.60542  22158996.8834   22158990.5994
        54.0004         46.0004
  23469255.7184   -6135980.40343  -4763382.11842  23469257.5584   23469251.2444
        48.0004         41.0004
  23918774.0194    2917191.33043   2260462.34242  23918775.8724   23918772.2104
        47.0004         39.0004
  20458209.7914   15705771.35944  12240924.12442  20458212.1734   20458206.3254
        57.0004         50.0004
  22366477.2494   19772932.84443  15405594.69042  22366478.6104   22366474.7764
        52.0004         44.0004
  21587270.8944   20289637.85643  15807374.36542  21587272.8134   21587268.1074
        56.0004         47.0004
  23213947.3954   14604110.74443  11385773.40542  23213950.2444   23213944.2864
        49.0004         41.0004
  21905844.2014    1412167.72943   1092225.81742  21905845.7054   21905840.7444
        53.0004         46.0004
  23372932.6814   -5397747.23443  -4191513.13442  23372934.8634   23372931.4344
        47.0004         41.0004
 04  6 22 14  2  0.0000000  0  9G21G18G 5G 6G17G30G29G10G26
  22152084.6614   14752228.56343  11498964.54242  22152087.6804   22152080.3384
        54.0004         45.0004
  23456194.9844   -6204619.82543  -4816867.36142  23456197.7014   23456190.7524
        49.0004         41.0004
  23932220.8174    2987851.28443   2315521.98642  23932221.3074   23932217.1654
        47.0004         39.0004
  20454362.3104   15685551.48344  12225168.37042  20454364.3024   20454358.4954
        57.0004         50.0004
  22373950.3604   19812203.41443  15436195.10942  22373951.1464   22373948.1404
        51.0004         44.0004
  21597116.5894   20341377.23943  15847690.74242  21597119.1204   21597113.5844
        55.0004         47.0004
  23206825.8994   14566685.83843  11356611.14542  23206828.1774   23206822.1204
        49.0004         41.0004
  21915824.5094    1464617.02743   1133095.37542  21915826.4444   21915821.4504
        53.0004         46.0004
  23362153.7764   -5454388.99343  -4235649.50442  23362155.8224   23362152.8854
        48.0004         40.0004
 04  6 22 14  2 20.0000000  0  9G21G18G 5G 6G17G30G29G10G26
  22145190.1344   14715993.64643  11470729.55142  22145191.6654   22145185.6694
        54.0004         46.0004
  23443148.8054   -6273177.86443  -4870289.20642  23443149.3914   23443145.7994
        49.0004         41.0004
  23945669.1204    3058523.59043   2370591.26742  23945670.9864   23945667.9794
        47.0004         39.0004
  20450542.9994   15665481.32744  12209529.28242  20450545.0504   20450539.7524
        57.0004         50.0004
  22381431.0184   19851514.28543  15466826.92542  22381431.8904   22381428.1664
        52.0004         44.0004
  21606993.5944   20393281.55443  15888135.63542  21606996.0754   21606990.8364
        56.0004         47.0004
  23199732.0014   14529408.99843  11327564.27642  23199734.8874   23199729.8194
        49.0004         41.0004
  21925838.1104    1517238.61343   1174099.17942  21925839.6844   21925835.1314
        53.0004         46.0004
  23351393.5934   -5510934.00343  -4279710.48742  23351395.4154   23351393.0444
        47.0004         40.0004
 04  6 22 14  2 40.0000000  0  9G21G18G 5G 6G17G30G29G10G26
  22138308.3604   14679833.56343  11442552.87142  22138310.4514   22138304.1374
        54.0004         46.0004
  23430117.6074   -6341656.15643  -4923648.91842  23430117.8464   23430114.4644
        49.0004         41.0004
  23959119.2594    3129205.18543   2425667.77742  23959121.6914   23959119.4744
        47.0004         39.0004
  20446751.9024   15645559.10844  12194005.46542  20446754.0434   20446748.1374
        57.0004         50.0004
  22388919.0824   19890863.13543  15497488.34842  22388920.5654   22388916.5634
        51.0004         44.0004
  21616901.3634   20445347.74143  15928706.66842  21616904.3594   21616898.4304
        55.0004         47.0004
  23192666.4834   14492278.97543  11298631.79642  23192667.3504   23192663.9224
        49.0004         41.0004
  21935884.2084    1570029.50643   1215234.91542  21935885.8034   21935881.2054
        53.0004         46.0004
  23340651.8384   -5567383.35343  -4323696.91942  23340653.8244   23340649.6214
        48.0004         40.0004
 04  6 22 14  3  0.0000000  0  9G21G18G 5G 6G17G30G29G10G26
  22131442.9234   14643754.56943  11414439.37442  22131445.0494   22131438.5134
        54.0004         46.0004
  23417102.9044   -6410047.76743  -4976941.08042  23417104.3264   23417099.4354
        49.0004         41.0004
  23972572.0974    3199901.53743   2480755.77442  23972573.6124   23972570.8934
        47.0004         39.0004
  20442990.1944   15625791.59544  12178602.20242  20442992.4114   20442986.9104
        57.0004         50.0004
  22396414.7974   19930255.95843  15528184.02542  22396415.7704   22396411.8044
        52.0004         44.0004
  21626841.2724   20497581.21343  15969408.04142  21626843.6514   21626837.6514
        55.0004         47.0004
  23185630.4324   14455302.72343  11269819.14242  23185632.2334   23185628.3834
        49.0004         42.0004
  21945963.3964    1622995.04643   1256506.74342  21945964.8454   21945959.7944
        54.0004         46.0004
  23329928.9474   -5623729.70643  -4367603.07642  23329931.8454   23329926.5444
        48.0004         40.0004
 04  6 22 14  3 20.0000000  0  9G21G18G 5G 6G17G30G29G10G26
  22124591.3214   14607749.72343  11386383.66142  22124593.0544   22124587.4254
        54.0004         46.0004
  23404103.4994   -6478358.97943  -5030170.58942  23404104.0144   23404102.1724
        48.0004         41.0004
  23986026.4464    3270605.28743   2535849.55142  23986029.5364   23986025.8054
        46.0004         39.0004
  20439257.0054   15606172.43344  12163314.53642  20439258.9254   20439253.2924
        57.0004         50.0004
  22403918.3364   19969685.58243  15558908.38442  22403919.8684   22403914.4134
        51.0004         44.0004
  21636811.5144   20549974.35143  16010233.83342  21636814.0644   21636808.4914
        55.0004         47.0004
  23178622.2974   14418474.34043  11241121.70942  23178624.8224   23178619.6364
        49.0004         42.0004
  21956073.8464    1676127.75743   1297908.82642  21956075.7274   21956070.8964
        53.0004         46.0004
  23319225.0474   -5679978.83543  -4411433.46042  23319226.7234   23319225.2464
        48.0004         40.0004
 04  6 22 14  3 40.0000000  0  9G21G18G 5G 6G17G30G29G10G26
  22117755.5824   14571824.57643  11358390.04842  22117757.2164   22117750.8064
        54.0004         46.0004
  23391121.3954   -6546583.30443  -5083332.39342  23391123.4004   23391120.5654
        49.0004         41.0004
  23999483.4544    3341321.07743   2590952.70042  23999484.5304   23999481.1014
        47.0004         39.0004
  20435552.9164   15586707.86744  12148147.32842  20435555.2684   20435549.4204
        57.0004         50.0004
  22411429.5594   20009157.79343  15589665.91942  22411431.4904   22411426.6454
        52.0004         44.0004
  21646812.6934   20602532.02343  16051187.82842  21646814.9194   21646810.4774
        55.0004         47.0004
  23171642.4094   14381800.19443  11212544.46242  23171645.0254   23171641.1414
        49.0004         42.0004
  21966217.7734    1729432.35043   1339444.84442  21966219.3674   21966214.3764
        54.0004         46.0004
  23308541.5604   -5736124.05143  -4455182.91642  23308545.0664   23308539.3884
        48.0004         40.0004
 04  6 22 14  4  0.0000000  0  9G21G18G 5G 6G17G30G29G10G26
  22110932.9384   14535974.01243  11330454.55342  22110935.1754   22110928.8654
        54.0004         46.0004
  23378154.3434   -6614725.11243  -5136429.89242  23378155.7944   23378152.7324
        49.0004         41.0004
  24012941.6824    3412043.19943   2646060.78842  24012942.8804   24012941.2854
        47.0004         39.0004
  20431877.5434   15567393.19044  12133096.92542  20431879.4664   20431873.8704
        57.0004         50.0004
  22418948.0404   20048667.10243  15620452.37142  22418948.7264   22418943.8724
        51.0004         44.0004
  21656844.4514   20655248.38543  16092265.47842  21656846.5054   21656842.0154
        55.0004         47.0004
  23164692.6614   14345276.23643  11184084.24342  23164693.9874   23164690.0054
        49.0004         42.0004
  21976392.7324    1782902.92443   1381110.19842  21976394.2504   21976389.5634
        53.0004         46.0004
  23297875.9284   -5792169.37343  -4498854.54042  23297877.2434   23297874.2884
        48.0004         40.0004
 04  6 22 14  4 20.0000000  0  9G21G18G 5G 6G17G30G29G10G26
  22104126.0234   14500202.37743  11302580.55742  22104127.8604   22104121.7564
        54.0004         46.0004
  23365203.4464   -6682779.61343  -5189459.35342  23365206.0454   23365199.3354
        49.0004         41.0004
  24026401.4504    3482775.25943   2701176.63242  24026403.3734   24026399.1454
        46.0004         39.0004
  20428231.5674   15548233.39444  12118167.20242  20428233.6504   20428228.0524
        57.0004         50.0004
  22426473.9874   20088217.72343  15651271.00742  22426476.0184   22426471.3314
        51.0004         44.0004
  21666906.8524   20708126.76543  16133469.38042  21666909.4034   21666904.0294
        55.0004         47.0004
  23157771.8104   14308907.37443  11155744.87542  23157774.6704   23157771.0204
        49.0004         42.0004
  21986600.2434    1836542.93443   1422907.58242  21986602.3524   21986596.2614
        53.0004         46.0004
  23287231.1694   -5848109.44243  -4542444.17142  23287233.0834   23287228.7544
        48.0004         40.0004
 04  6 22 14  4 40.0000000  0  9G21G18G 5G 6G17G30G29G10G26
  22097333.2794   14464507.08043  11274766.04242  22097335.1004   22097329.2014
        54.0004         46.0004
  23352269.9624   -6750748.46443  -5242422.07942  23352273.3014   23352268.0124
        49.0004         41.0004
  24039862.2114    3553513.84543   2756297.54142  24039863.6344   24039861.2974
        47.0004         39.0004
  20424614.4944   15529226.34444  12103356.50842  20424616.4444   20424611.0864
        57.0004         50.0004
  22434007.9964   20127806.94843  15682119.72742  22434009.1424   22434004.9504
        51.0004         44.0004
  21676999.7404   20761163.95543  16174797.02442  21677001.7764   21676996.3994
        55.0004         47.0004
  23150880.0314   14272691.89643  11127525.02642  23150882.4984   23150878.0704
        49.0004         42.0004
  21996838.9944    1890349.11243   1464834.44142  21996840.5684   21996835.6974
        53.0004         46.0004
  23276605.8784   -5903945.64743  -4585952.85942  23276607.6064   23276601.7124
        47.0004         40.0004
 04  6 22 14  5  0.0000000  0  9G21G18G 5G 6G17G30G29G10G26
  22090555.2234   14428887.98343  11247010.90842  22090557.4524   22090550.7644
        54.0004         46.0004
  23339351.5474   -6818631.47743  -5295317.93342  23339355.3264   23339348.1254
        50.0004         41.0004
  24053325.1094    3624257.60443   2811422.50042  24053328.1724   24053322.4464
        47.0004         39.0004
  20421026.9704   15510371.97544  12088664.78242  20421028.9074   20421023.2164
        57.0004         50.0004
  22441548.4204   20167434.08143  15712997.98742  22441549.9384   22441544.3184
        51.0004         44.0004
  21687121.9964   20814358.48643  16216247.27742  21687124.6844   21687118.8194
        55.0004         47.0004
  23144017.8624   14236630.19343  11099425.02042  23144017.8644   23144017.8494
        49.0004         42.0004
  22007109.2074    1944320.01343   1506889.66742  22007110.6964   22007106.3624
        53.0004         46.0004
  23266000.7824   -5959677.41443  -4629380.18642  23266001.9264   23265998.8874
        48.0004         41.0004
 04  6 22 14  5 20.0000000  0  9G21G18G 5G 6G17G30G29G10G26
  22083791.9234   14393348.16643  11219317.54542  22083794.2874   22083788.1714
        54.0004         46.0004
  23326451.3884   -6886424.48543  -5348143.65642  23326453.7064   23326449.5714
        50.0004         41.0004
  24066788.7044    3695009.73443   2866553.98042  24066790.2874   24066785.8824
        47.0004         39.0004
  20417469.0584   15491674.65844  12074095.43442  20417470.7024   20417465.0394
        57.0004         50.0004
  22449097.6444   20207102.78243  15743908.63042  22449098.6304   22449094.2634
        51.0004         44.0004
  21697275.3434   20867713.37643  16257822.48542  21697278.1034   21697272.1274
        55.0004         47.0004
  23137185.6244   14200726.92643  11071448.45942  23137186.6124   23137184.0914
        49.0004         42.0004
  22017411.5704    1998458.66943   1549075.60342  22017413.0084   22017408.6774
        53.0004         46.0004
  23255415.5414   -6015299.92643  -4672722.36442  23255418.0374   23255413.1034
        47.0004         40.0004
 04  6 22 14  5 40.0000000  0  9G21G18G 5G 6G17G30G29G10G26
  22077043.8954   14357883.80443  11191682.98442  22077045.8024   22077039.3884
        54.0004         46.0004
  23313567.2914   -6954131.18843  -5400902.11542  23313568.9224   23313564.3804
        50.0004         42.0004
  24080253.3404    3765765.35943   2921688.16542  24080255.7534   24080250.5334
        48.0004         39.0004
  20413940.1394   15473130.84544  12059645.69942  20413941.5574   20413936.5184
        57.0004         50.0004
  22456653.2844   20246808.51543  15774848.13242  22456654.6304   22456649.5404
        51.0004         44.0004
  21707458.0414   20921223.64743  16299518.76142  21707460.5204   21707455.2454
        55.0004         47.0004
  23130382.8854   14164978.64843  11043592.67042  23130384.8614   23130380.8644
        49.0004         42.0004
  22027744.6164    2052759.89643   1591388.21342  22027746.0904   22027741.7144
        53.0004         45.0004
  23244851.5604   -6070816.25443  -4715981.80742  23244854.2224   23244849.4454
        48.0004         40.0004
 04  6 22 14  6  0.0000000  0  9G21G18G 5G 6G17G30G29G10G26
  22070309.2514   14322495.47343  11164107.66642  22070310.9964   22070305.0454
        54.0004         46.0004
  23300699.8504   -7021749.93243  -5453592.04542  23300701.6234   23300695.6024
        50.0004         42.0004
  24093717.8974    3836524.13943   2976824.81442  24093720.1384   24093717.2664
        48.0004         39.0004
  20410440.7564   15454741.53244  12045316.35842  20410442.4974   20410437.3584
        57.0004         50.0004
  22464215.9804   20286551.96243  15805817.02442  22464218.5434   22464213.3114
        51.0004         44.0004
  21717670.2274   20974889.14543  16341335.99442  21717672.6774   21717667.2644
        55.0004         47.0004
  23123610.6164   14129386.81243  11015858.77742  23123611.2384   23123608.3874
        48.0004         42.0004
  22038108.7784    2107223.56143   1633827.39542  22038109.9004   22038105.8974
        53.0004         45.0004
  23234308.4964   -6126224.64343  -4759157.15542  23234308.3684   23234305.6594
        47.0004         40.0004
 04  6 22 14  6 20.0000000  0  9G21G18G 5G 6G17G30G29G10G26
  22063590.0254   14287184.94843  11136592.98342  22063591.8784   22063585.7924
        54.0004         46.0004
  23287849.5814   -7089278.27643  -5506211.53442  23287851.5834   23287848.1534
        50.0004         42.0004
  24107184.1074    3907287.25243   3031964.87042  24107183.6354   24107180.1634
        47.0004         39.0004
  20406971.2964   15436509.21444  12031109.34442  20406972.9804   20406967.7684
        57.0004         50.0004
  22471786.6744   20326334.80743  15836816.61242  22471787.4444   22471783.5004
        51.0004         44.0004
  21727912.0164   21028710.89943  16383274.98642  21727914.8464   21727909.5424
        55.0004         46.0004
  23116867.7994   14093954.23743  10988249.00042  23116868.0804   23116866.2974
        49.0004         42.0004
  22048504.0134    2161850.86043   1676394.08742  22048505.8634   22048500.8594
        53.0004         45.0004
  23223784.1624   -6181522.13443  -4802246.08842  23223786.4524   23223782.1604
        47.0004         40.0004
 04  6 22 14  6 40.0000000  0  9G21G18G 5G 6G17G30G29G10G26
  22056885.0744   14251951.03943  11109137.99842  22056887.1824   22056880.8454
        54.0004         46.0004
  23275017.1614   -7156716.77643  -5558761.00442  23275018.4064   23275011.8804
        51.0004         42.0004
  24120650.1314    3978053.07243   3087107.00142  24120652.4904   24120648.4954
        47.0004         39.0004
  20403531.3954   15418433.16344  12017024.09942  20403533.4694   20403527.9984
        57.0004         50.0004
  22479364.2644   20366155.79643  15867845.93142  22479366.0394   22479361.4024
        51.0004         44.0004
  21738183.4374   21082686.86743  16425334.14642  21738185.5314   21738180.6354
        55.0004         46.0004
  23110155.7544   14058680.45543  10960762.94942  23110158.5744   23110154.9604
        49.0004         41.0004
  22058930.2564    2216639.85943   1719086.77842  22058931.1534   22058926.8594
        53.0004         45.0004
  23213282.8404   -6236708.75643  -4845248.62742  23213285.6594   23213280.4214
        47.0004         40.0004
 04  6 22 14  7  0.0000000  0  9G21G18G 5G 6G17G30G29G10G26
  22050194.9524   14216793.75343  11081742.72142  22050196.7394   22050190.0424
        54.0004         46.0004
  23262200.5774   -7224064.79743  -5611239.98442  23262201.0694   23262198.3304
        51.0004         42.0004
  24134116.8174    4048820.66343   3142250.52042  24134117.5904   24134113.7564
        46.0004         39.0004
  20400121.6054   15400513.86144  12003060.99942  20400123.4314   20400117.7464
        57.0004         50.0004
  22486949.3914   20406014.60043  15898904.70542  22486951.2694   22486946.8964
        51.0004         44.0004
  21748484.0334   21136816.28143  16467512.87542  21748486.7994   21748481.0894
        55.0004         46.0004
  23103473.4194   14023566.41443  10933401.37742  23103476.6874   23103470.4764
        49.0004         42.0004
  22069386.6204    2271589.71043   1761904.81542  22069387.7404   22069383.9394
        53.0004         45.0004
  23202802.0714   -6291783.53543  -4888164.03142  23202804.0164   23202799.9574
        47.0004         40.0004
 04  6 22 14  7 20.0000000  0  9G21G18G 5G 6G17G30G29G10G26
  22043519.4904   14181713.20243  11054407.23842  22043520.8514   22043515.1694
        54.0004         46.0004
  23249401.9004   -7291321.70343  -5663647.95742  23249404.9354   23249398.3504
        50.0004         42.0004
  24147583.7534    4119589.14943   3197394.72442  24147585.9114   24147582.5224
        47.0004         39.0004
  20396741.5794   15382751.88544  11989220.48942  20396743.3084   20396738.0944
        57.0004         50.0004
  22494540.6624   20445911.13343  15929992.88642  22494542.9674   22494538.5934
        51.0004         44.0004
  21758813.4404   21191098.30743  16509810.51942  21758815.9234   21758809.8574
        55.0004         46.0004
  23096821.2634   13988612.78343  10906164.79042  23096824.3754   23096819.5324
        48.0004         42.0004
  22079873.9704    2326699.51443   1804847.48542  22079876.0794   22079870.9164
        53.0004         45.0004
  23192342.5774   -6346745.37243  -4930991.41842  23192343.0754   23192342.2384
        46.0004         40.0004
 04  6 22 14  7 40.0000000  0  9G21G18G 5G 6G17G30G29G10G26
  22036858.0864   14146707.66843  11027130.21542  22036859.4274   22036853.7854
        54.0004         46.0004
  23236620.8004   -7358488.24843  -5715985.50742  23236621.6194   23236619.8804
        51.0004         42.0004
  24161050.6224    4190356.40843   3252537.98742  24161052.0494   24161049.0064
        47.0004         39.0004
  20393391.4334   15365146.39344  11975501.91242  20393393.3464   20393387.6944
        57.0004         50.0004
  22502140.0614   20485843.79243  15961109.21742  22502142.1504   22502137.4764
        51.0004         44.0004
  21769171.5354   21245530.70343  16552225.34142  21769174.5914   21769168.6584
        55.0004         46.0004
  23090200.4724   13953819.10843  10879052.86842  23090202.6194   23090198.9344
        48.0004         41.0004
  22090391.0874    2381967.19743   1847913.17842  22090392.3724   22090388.0384
        53.0004         45.0004
  23181905.6454   -6401594.55843  -4973731.01042  23181907.2064   23181904.7334
        46.0004         39.0004
 04  6 22 14  8  0.0000000  0  9G21G18G 5G 6G17G30G29G10G26
  22030211.3624   14111780.88943  10999914.55742  22030213.6884   22030207.8364
        54.0004         46.0004
  23223857.4864   -7425559.98443  -5768249.19442  23223860.3704   23223854.5834
        51.0004         42.0004
  24174517.4034    4261125.44643   3307682.62542  24174519.6664   24174515.3674
        47.0004         39.0004
  20390071.6374   15347701.41644  11961908.41442  20390073.7234   20390068.1584
        57.0004         50.0004
  22509747.2384   20525816.24543  15992256.55642  22509749.0074   22509744.0274
        51.0004         44.0004
  21779559.1354   21300116.28743  16594759.53042  21779561.6324   21779556.5944
        55.0004         46.0004
  23083610.8294   13919189.70443  10852068.93042  23083614.3104   23083608.8844
        48.0004         41.0004
  22100938.7274    2437395.57843   1891104.10042  22100939.7334   22100936.4014
        53.0004         45.0004
  23171491.2464   -6456326.24443  -5016379.06042  23171491.3974   23171489.9904
        46.0004         39.0004
 04  6 22 14  8 20.0000000  0  9G21G18G 5G 6G17G30G29G10G26
  22023579.3174   14076928.48643  10972756.85542  22023581.5844   22023575.2044
        54.0004         46.0004
  23211111.0304   -7492540.66843  -5820441.93742  23211112.7854   23211109.9054
        50.0004         42.0004
  24187983.9524    4331891.33143   3362824.80542  24187985.7124   24187983.1774
        46.0004         39.0004
  20386781.9184   15330413.22644  11948437.08642  20386783.7804   20386778.5334
        57.0004         50.0004
  22517359.4434   20565823.90043  16023431.31742  22517362.2684   22517356.8384
        51.0004         43.0004
  21789974.4604   21354849.97443  16637409.11942  21789977.1994   21789971.7444
        55.0004         46.0004
  23077051.5854   13884721.15643  10825210.34642  23077052.6844   23077051.0574
        48.0004         41.0004
  22111515.9394    2492979.46343   1934416.18942  22111517.1934   22111513.1584
        53.0004         45.0004
  23161097.1494   -6510943.58443  -5058938.02442  23161099.5984   23161096.9114
        47.0004         39.0004
 04  6 22 14  8 40.0000000  0  9G21G18G 5G 6G17G30G29G10G26
  22016962.2454   14042153.68143  10945659.61842  22016963.9194   22016957.8974
        54.0004         46.0004
  23198383.3094   -7559426.65843  -5872560.87842  23198385.8214   23198378.6954
        50.0004         42.0004
  24201450.1164    4402656.37743   3417966.32542  24201451.4254   24201446.9654
        47.0004         39.0004
  20383522.5534   15313285.53244  11935090.82442  20383524.6864   20383519.1474
        57.0004         50.0004
  22524980.3464   20605869.76643  16054635.84942  22524981.7344   22524976.8184
        51.0004         43.0004
  21800418.6974   21409734.14143  16680175.97242  21800421.5244   21800415.7384
        55.0004         46.0004
  23070523.9844   13850417.41943  10798480.19542  23070524.4404   23070521.4224
        48.0004         41.0004
  22122123.1524    2548721.15743   1977851.24142  22122124.7034   22122120.5114
        52.0004         45.0004
  23150725.6894   -6565442.64743  -5101404.78342  23150728.3594   23150725.4194
        46.0004         39.0004
 04  6 22 14  9  0.0000000  0  9G21G18G 5G 6G17G30G29G10G26
  22010359.1794   14007455.62243  10918622.18142  22010361.2174   22010355.0414
        54.0004         46.0004
  23185673.3874   -7626218.01843  -5924606.08142  23185675.1574   23185670.9404
        50.0004         42.0004
  24214916.6874    4473418.96943   3473105.94742  24214917.0894   24214913.3604
        47.0004         40.0004
  20380294.0454   15296318.01444  11921869.37242  20380295.9474   20380290.2744
        57.0004         50.0004
  22532608.0144   20645952.93043  16085869.44642  22532608.8624   22532604.1184
        51.0004         43.0004
  21810891.2064   21464766.97043  16723058.65642  21810893.6934   21810888.7234
        55.0004         46.0004
  23064027.0544   13816278.46243  10771878.43942  23064029.3364   23064025.4544
        48.0004         41.0004
  22132760.2734    2604619.07143   2021408.02942  22132761.9124   22132756.6554
        52.0004         45.0004
  23140378.1624   -6619823.00043  -5143779.08242  23140379.1114   23140376.9164
        46.0004         39.0004
 04  6 22 14  9 20.0000000  0  9G21G18G 5G 6G17G30G29G10G26
  22003771.0224   13972832.88943  10891643.43742  22003772.2324   22003766.5244
        54.0004         46.0004
  23172981.3354   -7692915.54943  -5976578.17742  23172982.6374   23172979.1924
        50.0004         42.0004
  24228380.0594    4544177.00943   3528242.01742  24228381.3024   24228376.1144
        47.0004         39.0004
  20377095.5014   15279509.75644  11908772.01942  20377097.2324   20377091.8744
        57.0004         50.0004
  22540242.7204   20686071.76543  16117130.85042  22540244.5874   22540239.9554
        51.0004         43.0004
  21821391.3704   21519946.34043  16766055.53042  21821393.7694   21821388.9294
        55.0004         46.0004
  23057561.9034   13782303.72343  10745404.64342  23057565.1764   23057560.2594
        48.0004         42.0004
  22143427.0054    2660670.98243   2065084.80742  22143428.3284   22143423.1074
        53.0004         45.0004
  23130053.0264   -6674084.94443  -5186061.09242  23130054.9634   23130049.5284
        47.0004         39.0004
 04  6 22 14  9 40.0000000  0  9G21G18G 5G 6G17G30G29G10G26
  21997196.4944   13938285.34043  10864723.28242  21997198.2224   21997192.0274
        55.0004         46.0004
  23160307.0854   -7759518.31843  -6028476.43342  23160309.8184   23160303.9374
        50.0004         42.0004
  24241844.1374    4614929.87243   3583374.04842  24241846.5284   24241841.3754
        46.0004         39.0004
  20373927.3784   15262861.29944  11895799.18642  20373929.2854   20373923.8854
        57.0004         50.0004
  22547883.7164   20726226.34943  16148420.09442  22547885.0374   22547880.0154
        51.0004         43.0004
  21831919.4084   21575271.48343  16809165.99942  21831921.9334   21831916.3404
        55.0004         46.0004
  23051128.3404   13748494.09843  10719059.50242  23051129.5564   23051126.7464
        48.0004         42.0004
  22154122.4864    2716876.18243   2108881.03242  22154123.1104   22154118.9764
        53.0004         45.0004
  23119750.0114   -6728227.31543  -5228249.92842  23119751.8904   23119747.0234
        47.0004         39.0004
 04  6 22 14 10  0.0000000  0  9G21G18G 5G 6G17G30G29G10G26
  21990637.0794   13903815.24743  10837863.47742  21990639.4924   21990632.4794
        55.0004         46.0004
  23147651.2994   -7826023.76943  -6080298.86342  23147653.0164   23147647.9224
        50.0004         42.0004
  24255308.5144    4685678.77643   3638502.99042  24255308.8844   24255305.9574
        47.0004         40.0004
  20370790.2974   15246375.17344  11882952.84542  20370792.1944   20370786.5704
        57.0004         50.0004
  22555532.2744   20766418.58843  16179738.68742  22555532.6244   22555530.1364
        50.0004         43.0004
  21842475.3224   21630743.61643  16852390.99942  21842477.5264   21842472.3934
        55.0004         46.0004
  23044726.7764   13714852.44643  10692845.24542  23044729.7714   23044726.0474
        49.0004         42.0004
  22164847.5894    2773235.79843   2152797.58042  22164849.8014   22164844.1964
        53.0004         45.0004
  23109470.1914   -6782247.04643  -5270343.22542  23109473.4394   23109468.7184
        48.0004         39.0004
 04  6 22 14 10 20.0000000  0  9G21G18G 5G 6G17G30G29G10G26
  21984092.1804   13869421.99243  10811063.54142  21984094.1324   21984088.0844
        54.0004         46.0004
  23135014.5664   -7892431.67943  -6132045.27842  23135015.9594   23135011.2654
        50.0004         42.0004
  24268769.8654    4756422.49043   3693627.89342  24268771.6354   24268768.5944
        46.0004         39.0004
  20367683.7094   15230051.56044  11870233.13642  20367685.7384   20367680.3334
        57.0004         50.0004
  22563187.1604   20806647.58243  16211085.91042  22563187.7584   22563183.5704
        50.0004         43.0004
  21853059.2694   21686361.35743  16895729.46242  21853061.4394   21853056.7884
        55.0004         46.0004
  23038356.6544   13681378.93043  10666762.01342  23038359.2584   23038355.7884
        49.0004         42.0004
  22175601.6454    2829748.64243   2196833.52842  22175602.8884   22175598.2754
        53.0004         45.0004
  23099214.0134   -6836143.55243  -5312340.48842  23099218.3724   23099210.8354
        47.0004         39.0004
 04  6 22 14 10 40.0000000  0  9G21G18G 5G 6G17G30G29G10G26
  21977561.8114   13835105.32343  10784323.29142  21977563.9004   21977558.4814
        54.0004         46.0004
  23122395.8154   -7958741.42543  -6183715.20742  23122398.1024   23122392.9174
        50.0004         42.0004
  24282230.9204    4827160.24643   3748748.14342  24282231.1454   24282230.6584
        46.0004         39.0004
  20364608.6404   15213890.82544  11857640.34342  20364610.5254   20364605.1824
        57.0004         50.0004
  22570849.7594   20846913.47943  16242461.89742  22570851.6284   22570847.7544
        51.0004         43.0004
  21863670.5664   21742123.87443  16939180.74042  21863673.3004   21863667.6454
        55.0004         46.0004
  23032019.2464   13648074.41243  10640810.44942  23032022.1724   23032016.8864
        48.0004         42.0004
  22186384.2694    2886413.69143   2240988.07142  22186384.9994   22186380.8094
        53.0004         45.0004
  23088980.6004   -6889915.62643  -5354240.79942  23088984.9244   23088978.8284
        48.0004         39.0004
 04  6 22 14 11  0.0000000  0  9G21G18G 5G 6G17G30G29G10G26
  21971045.7684   13800861.29543  10757639.63642  21971047.9924   21971041.1374
        54.0004         46.0004
  23109796.0204   -8024956.72643  -6235311.54442  23109797.1854   23109792.7094
        50.0004         42.0004
  24295689.6024    4897887.11343   3803859.92642  24295691.0734   24295686.3204
        45.0004         39.0004
  20361563.2724   15197889.05344  11845171.42342  20361565.4144   20361559.9624
        57.0004         50.0004
  22578518.0274   20887211.68443  16273863.05242  22578518.3844   22578515.2614
        51.0004         43.0004
  21874308.4164   21798026.07143  16982740.85942  21874310.7274   21874305.6234
        55.0004         46.0004
  23025713.5394   13614935.29343  10614987.78042  23025715.0084   23025709.9654
        49.0004         42.0004
  22197195.2394    2943226.01243   2285257.37442  22197196.2454   22197192.2414
        53.0004         45.0004
  23078771.6504   -6943566.52443  -5396046.68342  23078773.1764   23078771.0384
        48.0004         40.0004
 04  6 22 14 11 20.0000000  0  9G21G18G 5G 6G17G30G29G10G26
  21964543.9274   13766696.01643  10731017.34542  21964546.0534   21964539.5534
        54.0004         46.0004
  23097214.6594   -8091070.60243  -6286828.85942  23097216.6584   23097211.8334
        50.0004         42.0004
  24309147.8824    4968608.71043   3858967.60342  24309150.0834   24309144.9944
        46.0004         39.0004
  20358549.8734   15182053.30844  11832831.87342  20358552.0704   20358546.4344
        57.0004         50.0004
  22586194.0704   20927548.46343  16305294.27642  22586195.2524   22586191.4244
        50.0004         43.0004
  21884973.8634   21854073.43843  17026414.10042  21884976.6484   21884970.6664
        55.0004         46.0004
  23019439.7044   13581968.93943  10589299.73242  23019443.3394   23019438.1404
        49.0004         42.0004
  22208035.5344    3000191.03143   2329645.66442  22208035.8734   22208032.1704
        53.0004         45.0004
  23068587.5124   -6997088.89543  -5437752.41242  23068589.7134   23068584.9284
        48.0004         40.0004
 04  6 22 14 11 40.0000000  0  9G21G18G 5G 6G17G30G29G10G26
  21958056.9284   13732605.24743  10704453.10742  21958058.1334   21958052.2654
        54.0004         46.0004
  23084652.6694   -8157086.51743  -6338269.81642  23084653.7484   23084649.0644
        50.0004         42.0004
  24322603.5254    5039319.94843   3914067.18842  24322606.4454   24322601.5844
        44.0004         38.0004
  20355567.3954   15166379.76244  11820618.71342  20355569.3924   20355564.1824
        57.0004         50.0004
  22593876.7784   20967919.50743  16336752.19442  22593878.3574   22593872.8384
        51.0004         43.0004
  21895666.0334   21910260.88843  17070196.49042  21895668.4944   21895663.4194
        54.0004         46.0004
  23013198.4754   13549171.70743  10563743.46442  23013200.4954   23013195.9394
        49.0004         42.0004
  22218903.6444    3057303.79243   2374149.08142  22218905.3364   22218900.5544
        53.0004         45.0004
  23058425.4584   -7050485.87443  -5479360.42942  23058427.3814   23058424.5484
        47.0004         40.0004
 04  6 22 14 12  0.0000000  0  9G21G18G 5G 6G17G30G29G10G26
  21951584.3594   13698591.23843  10677948.68542  21951586.0574   21951580.2384
        55.0004         46.0004
  23072109.0964   -8223001.89843  -6389632.43942  23072111.6034   23072105.6554
        50.0004         42.0004
  24336057.4504    5110022.28343   3969159.84242  24336056.3024   24336056.7544
        44.0004         38.0004
  20352616.3704   15150871.29044  11808534.18042  20352618.2954   20352613.0154
        57.0004         50.0004
  22601566.2414   21008326.71043  16368238.28442  22601567.7904   22601562.9194
        50.0004         43.0004
  21906385.1434   21966589.78543  17114089.09842  21906386.8924   21906382.8124
        54.0004         46.0004
  23006990.3684   13516546.65243  10538321.37142  23006993.4114   23006987.0384
        49.0004         42.0004
  22229800.5454    3114565.53743   2418768.58442  22229801.3284   22229797.6164
        52.0004         45.0004
  23048289.3204   -7103754.10743  -5520868.11742  23048291.6624   23048288.0934
        48.0004         40.0004
 04  6 22 14 12 20.0000000  0  9G21G18G 5G 6G17G30G29G10G26
  21945126.2244   13664653.06243  10651503.34942  21945127.7574   21945121.9874
        55.0004         46.0004
  23059585.0834   -8288816.87843  -6440916.82342  23059586.3204   23059580.3394
        51.0004         42.0004
  24349510.8394    5180714.37543   4024244.51242  24349513.6404   24349508.4184
        44.0004         38.0004
  20349696.5074   15135527.31144  11796577.82842  20349698.3534   20349693.1044
        57.0004         50.0004
  22609261.9584   21048769.30843  16399751.95042  22609263.4564   22609259.7064
        50.0004         43.0004
  21917130.2954   22023058.50343  17158090.65542  21917132.7184   21917128.5534
        54.0004         46.0004
  23000814.8174   13484093.81743  10513033.47342  23000818.6994   23000812.0754
        49.0004         42.0004
  22240724.9864    3171974.72243   2463502.97242  22240725.9634   22240721.2984
        52.0004         45.0004
  23038177.2774   -7156893.28243  -5562275.25342  23038178.9984   23038175.4854
        48.0004         40.0004
 04  6 22 14 12 40.0000000  0  9G21G18G 5G 6G17G30G29G10G26
  21938682.0244   13630791.06943  10625117.38942  21938683.9914   21938677.8544
        54.0004         46.0004
  23047080.1014   -8354530.36743  -6492122.13842  23047082.8474   23047077.1504
        50.0004         42.0004
  24362960.8894    5251395.62443   4079320.73942  24362963.3304   24362959.6204
        44.0004         38.0004
  20346807.9184   15120348.70844  11784750.33542  20346809.7834   20346804.6434
        57.0004         50.0004
  22616964.2704   21089247.41243  16431293.29542  22616965.8624   22616961.7744
        50.0004         43.0004
  21927902.6284   22079666.47143  17202200.72142  21927905.4874   21927900.4144
        54.0004         46.0004
  22994671.9674   13451814.13443  10487880.47942  22994674.5874   22994671.2334
        49.0004         41.0004
  22251677.7084    3229530.81843   2508351.84542  22251679.0344   22251675.1784
        52.0004         45.0004
  23028090.3184   -7209902.17043  -5603580.84442  23028093.6784   23028089.3764
        48.0004         40.0004
 04  6 22 14 13  0.0000000  0  9G21G18G 5G 6G17G30G29G10G26
  21932252.9214   13597003.99443  10598789.80042  21932254.4434   21932248.0524
        55.0004         46.0004
  23034594.2294   -8420142.93343  -6543248.79842  23034597.0164   23034589.8954
        50.0004         42.0004
  24376408.9084    5322064.27543   4134387.12642  24376410.2494   24376407.2904
        44.0004         38.0004
  20343951.1244   15105334.87244  11773051.23542  20343952.9894   20343947.6774
        57.0004         50.0004
  22624673.8194   21129759.74943  16462861.31642  22624675.1344   22624672.1144
        50.0004         43.0004
  21938701.1904   22136411.69643  17246417.73942  21938703.9914   21938698.3474
        54.0004         46.0004
  22988562.2994   13419707.40743  10462862.27042  22988564.1344   22988560.1234
        49.0004         42.0004
  22262657.5414    3287231.99443   2553313.76542  22262659.0974   22262654.2924
        52.0004         45.0004
  23018028.1734   -7262780.73243  -5644784.88242  23018031.6674   23018025.5344
        48.0004         40.0004
 04  6 22 14 13 20.0000000  0  9G21G18G 5G 6G17G30G29G10G26
  21925837.9944   13563293.94343  10572522.23542  21925840.3584   21925833.9264
        54.0004         46.0004
  23022127.9704   -8485651.95843  -6594294.78542  23022131.1034   23022125.5374
        50.0004         42.0004
  24389853.9774    5392721.66143   4189444.75442  24389854.9494   24389852.5844
        44.0004         38.0004
  20341125.7844   15090488.42544  11761482.55742  20341127.7894   20341122.2774
        57.0004         50.0004
  22632390.0274   21170308.38643  16494457.62042  22632391.5274   22632387.3764
        50.0004         43.0004
  21949526.1034   22193295.43843  17290742.70342  21949528.5224   21949523.0224
        54.0004         46.0004
  22982486.0114   13387776.31443  10437980.91342  22982488.8314   22982485.3504
        49.0004         41.0004
  22273665.4484    3345079.42343   2598389.64342  22273667.4514   22273663.1754
        52.0004         45.0004
  23007989.9474   -7315525.82743  -5685884.91942  23007992.5924   23007990.1534
        48.0004         41.0004
 04  6 22 14 13 40.0000000  0  9G21G18G 5G 6G17G30G29G10G26
  21919437.0504   13529657.48343  10546312.00642  21919439.4024   21919432.9634
        55.0004         46.0004
  23009681.9934   -8551060.05643  -6645262.14142  23009684.3614   23009679.2704
        51.0004         42.0004
  24403296.3434    5463363.40243   4244490.18942  24403298.5494   24403293.4524
        44.0004         38.0004
  20338331.8024   15075806.20544  11750041.85242  20338334.0204   20338328.2904
        57.0004         50.0004
  22640111.9484   21210889.45443  16526079.18942  22640113.0254   22640109.9254
        50.0004         43.0004
  21960376.1634   22250313.30643  17335172.17242  21960378.1684   21960373.9184
        54.0004         46.0004
  22976442.5274   13356018.21243  10413234.35342  22976445.2274   22976441.4674
        48.0004         42.0004
  22284700.6924    3403068.68643   2643576.04142  22284702.6064   22284697.8664
        52.0004         44.0004
  22997978.6324   -7368139.91443  -5726882.87942  22997981.3554   22997976.7304
        49.0004         41.0004
 04  6 22 14 14  0.0000000  0  9G21G18G 5G 6G17G30G29G10G26
  21913051.0604   13496098.38743  10520162.06542  21913052.5704   21913046.7774
        55.0004         46.0004
  22997254.8524   -8616362.81843  -6696147.39142  22997255.6044   22997251.3484
        51.0004         42.0004
  24416737.2664    5533992.80643   4299526.00242  24416738.2594   24416736.4044
        44.0004         38.0004
  20335570.0654   15061292.75244  11738732.66442  20335572.0674   20335566.8834
        57.0004         50.0004
  22647841.6464   21251506.82443  16557729.04542  22647843.1554   22647838.5674
        51.0004         43.0004
  21971252.1324   22307468.49843  17379708.64342  21971254.9784   21971249.8874
        54.0004         46.0004
  22970433.0214   13324437.74543  10388626.22342  22970435.3654   22970430.9714
        49.0004         41.0004
  22295763.1144    3461202.83643   2688875.33942  22295764.5064   22295760.0134
        52.0004         45.0004
  22987992.2554   -7420617.95743  -5767774.82642  22987993.8704   22987988.7784
        49.0004         41.0004
 04  6 22 14 14 20.0000000  0  9G21G18G 5G 6G17G30G29G10G26
  21906679.7124   13462614.69243  10494070.87242  21906681.0404   21906674.8134
        55.0004         46.0004
  22984848.4804   -8681561.63843  -6746951.65942  22984848.6134   22984845.3054
        51.0004         42.0004
  24430174.5484    5604607.51243   4354550.37542  24430176.0484   24430172.5414
        44.0004         38.0004
  20332840.2524   15046946.71144  11727553.92142  20332842.1554   20332836.7014
        57.0004         50.0004
  22655577.7644   21292158.54143  16589405.66642  22655579.2404   22655574.7214
        50.0004         43.0004
  21982154.1454   22364758.15243  17424349.89542  21982156.0564   21982151.3804
        54.0004         46.0004
  22964457.1174   13293033.79543  10364155.63942  22964458.6064   22964454.8264
        49.0004         41.0004
  22306852.4234    3519479.14343   2734285.40642  22306853.6554   22306849.4374
        51.0004         44.0004
  22978031.9904   -7472960.71843  -5808561.35542  22978033.8304   22978030.8884
        49.0004         41.0004
 04  6 22 14 14 40.0000000  0  9G21G18G 5G 6G17G30G29G10G26
  21900321.6994   13429206.49643  10468038.51542  21900324.0814   21900318.2214
        55.0004         46.0004
  22972461.1994   -8746655.44143  -6797674.08742  22972462.7004   22972458.5654
        51.0004         42.0004
  24443609.3174    5675206.68743   4409562.63942  24443611.2754   24443608.9584
        44.0004         38.0004
  20330142.1604   15032768.77444  11716506.17242  20330144.0644   20330138.8734
        57.0004         50.0004
  22663319.7104   21332844.54743  16621109.00642  22663322.2014   22663317.1674
        51.0004         43.0004
  21993081.5664   22422181.56043  17469095.37542  21993083.9874   21993078.9274
        54.0004         46.0004
  22958514.7994   13261807.24143  10339823.26642  22958518.9424   22958513.0014
        49.0004         42.0004
  22317969.5754    3577897.08943   2779805.84142  22317970.9054   22317966.9074
        51.0004         44.0004
  22968096.8404   -7525167.13343  -5849241.64242  22968099.4334   22968095.1654
        49.0004         41.0004
 04  6 22 14 15  0.0000000  0  9G21G18G 5G 6G17G30G29G10G26
  21893979.0074   13395873.19043  10442064.50842  21893980.8014   21893975.3434
        55.0004         46.0004
  22960094.3624   -8811644.56043  -6848314.94042  22960097.0094   22960091.1354
        51.0004         43.0004
  24457040.8204    5745789.01843   4464561.76742  24457042.6464   24457037.8814
        45.0004         38.0004
  20327476.1314   15018758.27344  11705588.89042  20327478.0004   20327472.6124
        57.0004         50.0004
  22671068.1514   21373564.29243  16652838.64842  22671069.3154   22671065.1514
        50.0004         43.0004
  22004034.1984   22479737.32843  17513943.99142  22004036.2124   22004031.2604
        54.0004         46.0004
  22952606.5184   13230758.30343  10315629.31142  22952609.1694   22952604.2324
        49.0004         42.0004
  22329112.9234    3636455.16243   2825435.46742  22329113.8034   22329110.4924
        52.0004         44.0004
  22958188.9294   -7577236.66343  -5889815.27042  22958191.2464   22958185.8154
        49.0004         41.0004
 04  6 22 14 15 20.0000000  0  9G21G18G 5G 6G17G30G29G10G26
  21887649.8274   13362613.38743  10416147.78542  21887652.1834   21887645.3444
        55.0004         46.0004
  22947746.5734   -8876529.88243  -6898874.92042  22947749.3454   22947743.4234
        51.0004         43.0004
  24470467.5334    5816352.06043   4519545.87842  24470469.0484   24470468.6704
        45.0004         38.0004
  20324841.9454   15004914.88144  11694801.82642  20324843.7154   20324838.0174
        57.0004         50.0004
  22678823.2874   21414315.76643  16684593.01342  22678824.3354   22678820.8244
        50.0004         43.0004
  22015011.2284   22537422.92843  17558893.76742  22015013.5654   22015008.5564
        54.0004         46.0004
  22946732.0614   13199886.12643  10291573.08042  22946732.9104   22946728.7234
        49.0004         42.0004
  22340282.2904    3695150.88943   2871172.35342  22340283.6144   22340279.3314
        52.0004         44.0004
  22948305.8414   -7629169.80043  -5930282.61042  22948308.2534   22948303.5004
        49.0004         41.0004
 04  6 22 14 15 40.0000000  0  9G21G18G 5G 6G17G30G29G10G26
  21881335.2364   13329431.66543  10390291.90242  21881337.5864   21881331.4534
        55.0004         46.0004
  22935420.7674   -8941305.70943  -6949349.56842  22935422.8994   22935417.8194
        52.0004         43.0004
  24483893.1834    5886899.81143   4574518.06742  24483894.3824   24483892.1024
        44.0004         38.0004
  20322240.2284   14991243.36844  11684148.68942  20322242.1884   20322236.8454
        57.0004         50.0004
  22686584.5684   21455103.81443  16716375.85942  22686585.6184   22686582.4654
        50.0004         43.0004
  22026014.1904   22595242.27743  17603947.76342  22026015.7074   22026011.0784
        54.0004         45.0004
  22940891.5194   13169196.19143  10267658.86142  22940893.2284   22940889.4964
        49.0004         42.0004
  22351478.8024    3753988.24843   2917019.60142  22351480.0734   22351476.0274
        52.0004         44.0004
  22938450.8274   -7680960.76943  -5970639.18442  22938451.6274   22938449.5824
        49.0004         41.0004
 04  6 22 14 16  0.0000000  0  9G21G18G 5G 6G17G30G29G10G26
  21875035.5614   13296325.06343  10364494.55242  21875037.2244   21875031.2174
        55.0004         46.0004
  22923114.6554   -9005974.45743  -6999740.79342  22923115.6734   22923110.6504
        52.0004         43.0004
  24497314.2294    5957428.98743   4629475.78442  24497317.6484   24497313.9254
        45.0004         37.0004
  20319671.0354   14977741.63444  11673627.85242  20319672.9754   20319667.4544
        57.0004         50.0004
  22694353.2274   21495925.67443  16748185.06742  22694354.5664   22694350.7974
        50.0004         43.0004
  22037041.5384   22653191.92243  17649103.29042  22037043.6144   22037039.4514
        54.0004         46.0004
  22935085.8994   13138686.57443  10243885.15042  22935088.7524   22935083.3284
        50.0004         42.0004
  22362701.6184    3812963.88643   2962974.60142  22362702.3394   22362699.2524
        52.0004         44.0004
  22928621.4654   -7732611.03643  -6010886.11642  22928623.5554   22928620.8934
        49.0004         41.0004
 04  6 22 14 16 20.0000000  0  9G21G18G 5G 6G17G30G29G10G26
  21868749.8414   13263292.39643  10338754.81442  21868751.6324   21868744.7034
        55.0004         46.0004
  22910828.7514   -9070537.17643  -7050049.40342  22910830.9114   22910824.4294
        52.0004         43.0004
  24510732.3564    6027937.24743   4684417.19542  24510734.1474   24510731.3364
        45.0004         37.0004
  20317133.7234   14964408.40544  11663238.31442  20317135.6104   20317130.4654
        57.0004         50.0004
  22702127.6094   21536779.38443  16780019.08942  22702129.1954   22702124.8944
        50.0004         43.0004
  22048093.0214   22711269.17843  17694358.25042  22048095.5504   22048090.4694
        54.0004         45.0004
  22929314.2834   13108356.37143  10220251.23042  22929315.1104   22929312.2614
        50.0004         42.0004
  22373949.9194    3872075.08043   3009035.23742  22373951.6754   22373946.6764
        52.0004         45.0004
  22918819.5704   -7784121.41643  -6051024.05042  22918822.3934   22918817.4424
        49.0004         42.0004
 04  6 22 14 16 40.0000000  0  9G21G18G 5G 6G17G30G29G10G26
  21862478.1444   13230335.17843  10313073.87142  21862480.2324   21862473.6094
        55.0004         46.0004
  22898563.0574   -9134991.13143  -7100273.25342  22898564.6854   22898560.8544
        51.0004         43.0004
  24524145.3924    6098425.82943   4739343.26042  24524148.2344   24524144.5424
        46.0004         37.0004
  20314629.0324   14951246.16144  11652982.01442  20314630.7474   20314625.5224
        57.0004         50.0004
  22709907.6274   21577666.93743  16811879.48442  22709908.6634   22709904.0914
        50.0004         42.0004
  22059169.4454   22769475.30843  17739713.63642  22059171.7284   22059167.1524
        54.0004         45.0004
  22923577.1064   13078208.24243  10196759.19742  22923578.4664   22923575.0484
        50.0004         42.0004
  22385224.8294    3931323.16743   3055202.53742  22385225.6754   22385221.9344
        52.0004         44.0004
  22909044.5514   -7835488.75943  -6091050.51542  22909046.8074   22909044.0274
        49.0004         41.0004
 04  6 22 14 17  0.0000000  0  9G21G18G 5G 6G17G30G29G10G26
  21856221.0644   13197455.04843  10287452.99042  21856222.9434   21856216.7394
        55.0004         46.0004
  22886319.8044   -9199333.91943  -7150410.47942  22886322.0904   22886316.2284
        52.0004         43.0004
  24537555.4674    6168895.83743   4794254.89242  24537556.3604   24537552.4724
        45.0004         37.0004
  20312157.3244   14938257.17244  11642860.71542  20312159.3784   20312153.6394
        57.0004         50.0004
  22717695.1174   21618589.87943  16843767.46242  22717697.1464   22717691.5424
        50.0004         43.0004
  22070270.7124   22827811.04443  17785170.01142  22070272.7354   22070268.4074
        54.0004         45.0004
  22917875.3104   13048244.48543  10173410.81542  22917878.0634   22917870.7594
        50.0004         42.0004
  22396525.2314    3990708.95143   3101477.13342  22396527.6714   22396522.8124
        52.0004         44.0004
  22899297.5444   -7886710.34943  -6130963.41642  22899298.7914   22899295.9854
        49.0004         42.0004
 04  6 22 14 17 20.0000000  0  9G21G18G 5G 6G17G30G29G10G26
  21849978.2184   13164647.15943  10261888.40242  21849979.4304   21849973.5294
        55.0004         46.0004
  22874095.3244   -9263569.95843  -7200464.52942  22874097.1334   22874091.7514
        51.0004         43.0004
  24550961.6014    6239341.77843   4849147.74742  24550961.2704   24550958.9314
        47.0004         37.0004
  20309717.7474   14925437.06544  11632871.01542  20309719.8654   20309714.4144
        57.0004         50.0004
  22725488.6734   21659543.26743  16875679.15942  22725488.8874   22725485.4984
        50.0004         43.0004
  22081395.1284   22886270.83843  17830723.05242  22081398.3444   22081391.9994
        54.0004         45.0004
  22912207.7474   13018461.28243  10150203.14742  22912209.3694   22912204.9634
        50.0004         42.0004
  22407850.9334    4050226.85043   3147854.67942  22407852.7974   22407849.1724
        52.0004         44.0004
  22889577.3904   -7937789.84843  -6170765.58942  22889578.9994   22889576.8094
        49.0004         42.0004
 04  6 22 14 17 40.0000000  0  9G21G18G 5G 6G17G30G29G10G26
  21843748.8454   13131914.18643  10236382.19242  21843751.4004   21843745.2844
        55.0004         46.0004
  22861892.7434   -9327696.18643  -7250433.01542  22861894.0814   22861889.7994
        51.0004         43.0004
  24564361.9844    6309765.13743   4904023.00542  24564363.4814   24564359.9504
        47.0004         37.0004
  20307310.9224   14912788.59644  11623015.05842  20307312.8114   20307307.4444
        57.0004         50.0004
  22733287.9774   21700529.44743  16907616.41142  22733290.1494   22733284.9994
        50.0004         43.0004
  22092543.4694   22944856.04643  17876373.82442  22092545.7194   22092540.7144
        54.0004         45.0004
  22906574.6084   12988861.62743  10127138.48942  22906576.9784   22906572.6444
        50.0004         42.0004
  22419202.9034    4109878.46943   3194336.42942  22419203.5734   22419199.6184
        52.0004         44.0004
  22879884.9734   -7988723.70143  -6210454.27142  22879887.1384   22879882.2374
        50.0004         42.0004
 04  6 22 14 18  0.0000000  0  9G21G18G 5G 6G17G30G29G10G26
  21837534.8804   13099259.06343  10210936.63842  21837536.7864   21837530.7984
        55.0004         46.0004
  22849711.5394   -9391709.07143  -7300313.16342  22849713.8784   22849707.9594
        52.0004         43.0004
  24577759.5154    6380168.36143   4958882.60542  24577761.4524   24577759.5294
        47.0004         37.0004
  20304937.2394   14900315.37544  11613295.65842  20304939.1864   20304933.7544
        57.0004         50.0004
  22741094.6964   21741551.15343  16939581.34742  22741096.4734   22741091.2044
        50.0004         42.0004
  22103716.0044   23003568.95943  17922124.10442  22103719.0214   22103713.8164
        53.0004         45.0004
  22900978.2184   12959449.32943  10104219.82342  22900981.1864   22900976.8014
        50.0004         42.0004
  22430579.6014    4169665.81043   3240923.92942  22430580.8684   22430576.8754
        51.0004         44.0004
  22870220.8634   -8039507.98043  -6250026.40842  22870223.8214   22870218.8554
        50.0004         42.0004
 04  6 22 14 18 20.0000000  0  9G21G18G 5G 6G17G30G29G10G26
  21831335.0024   13066676.39643  10185547.55642  21831336.7464   21831330.7654
        55.0004         46.0004
  22837550.8764   -9455613.31843  -7350108.67442  22837552.5094   22837548.0304
        52.0004         43.0004
  24591151.5384    6450545.24243   5013721.64942  24591153.3914   24591150.9264
        48.0004         37.0004
  20302596.0874   14888012.42344  11603708.93242  20302598.2054   20302592.6324
        57.0004         50.0004
  22748906.2784   21782603.12043  16971569.84842  22748907.8544   22748904.6914
        50.0004         42.0004
  22114911.8104   23062403.28743  17967968.99942  22114914.4174   22114908.5614
        53.0004         45.0004
  22895416.1814   12930219.74943  10081443.53242  22895415.4034   22895414.4654
        50.0004         42.0004
  22441981.5954    4229582.59243   3287612.29442  22441982.5084   22441979.1284
        51.0004         44.0004
  22860584.7214   -8090147.04043  -6289485.38442  22860586.2514   22860582.3284
        50.0004         42.0004
 04  6 22 14 18 40.0000000  0  9G21G18G 5G 6G17G30G29G10G26
  21825149.2634   13034169.39443  10160217.42142  21825150.8804   21825144.6134
        55.0004         46.0004
  22825411.8574   -9519404.61343  -7399816.16842  22825413.9664   22825408.3654
        52.0004         43.0004
  24604539.6714    6520898.62043   5068542.38942  24604541.7184   24604541.8584
        46.0004         37.0004
  20300288.1704   14875883.82344  11594258.07042  20300290.0894   20300284.6494
        57.0004         50.0004
  22756724.4234   21823688.57143  17003584.44942  22756726.5244   22756723.5354
        50.0004         42.0004
  22126131.3914   23121361.65043  18013910.53642  22126133.3144   22126128.6254
        54.0004         45.0004
  22889889.3784   12901177.00543  10058812.83442  22889891.6544   22889886.5584
        50.0004         42.0004
  22453408.6054    4289631.79943   3334403.84542  22453410.0894   22453405.7884
        51.0004         44.0004
  22850976.5284   -8140636.28643  -6328827.61242  22850979.2274   22850975.8914
        49.0004         42.0004
 04  6 22 14 19  0.0000000  0  9G21G18G 5G 6G17G30G29G10G26
  21818977.1544   13001737.24443  10134945.62042  21818979.0184   21818972.9574
        55.0004         46.0004
  22813293.6774   -9583083.43643  -7449436.01342  22813295.6034   22813291.8874
        52.0004         43.0004
  24617922.6384    6591226.88843   5123343.56842  24617923.1444   24617922.6714
        47.0004         37.0004
  20298013.2054   14863929.07244  11584942.67042  20298015.1924   20298009.8284
        57.0004         50.0004
  22764549.2044   21864806.57243  17035624.40742  22764549.0864   22764547.6904
        50.0004         42.0004
  22137374.3464   23180442.30443  18059947.36542  22137375.9974   22137371.0004
        54.0004         45.0004
  22884398.1654   12872321.01143  10036327.65442  22884399.5564   22884396.6754
        50.0004         42.0004
  22464860.2014    4349811.69843   3381297.23442  22464860.6994   22464857.2424
        51.0004         44.0004
  22841397.8224   -8190975.53743  -6368052.97942  22841400.4894   22841396.6614
        49.0004         41.0004
 04  6 22 14 19 20.0000000  0  9G21G18G 5G 6G17G30G29G10G26
  21812820.3064   12969380.64343  10109732.69242  21812821.8274   21812815.3494
        55.0004         46.0004
  22801198.1984   -9646648.56243  -7498967.26842  22801200.9354   22801195.5044
        52.0004         43.0004
  24631300.8854    6661529.95043   5178125.07942  24631303.1944   24631299.1654
        47.0004         37.0004
  20295771.4704   14852149.24144  11575763.57342  20295773.4824   20295768.3604
        57.0004         50.0004
  22772379.8784   21905957.56343  17067690.07742  22772380.8864   22772378.1874
        49.0004         42.0004
  22148640.0554   23239644.90243  18106079.22042  22148642.0494   22148636.6624
        54.0004         45.0004
  22878942.6814   12843653.05743  10013988.99142  22878945.4084   22878939.5524
        50.0004         42.0004
  22476337.3584    4410121.85343   3428292.12242  22476338.6984   22476335.2484
        51.0004         44.0004
  22831846.8934   -8241163.11043  -6407160.15042  22831848.4804   22831845.1584
        49.0004         41.0004
 04  6 22 14 19 40.0000000  0  9G21G18G 5G 6G17G30G29G10G26
  21806676.9454   12937098.07243  10084577.44642  21806678.7024   21806672.1444
        55.0004         46.0004
  22789123.4004   -9710100.69143  -7548410.47742  22789125.4764   22789120.9484
        52.0004         43.0004
  24644674.2894    6731805.54943   5232885.21342  24644673.1654   24644673.1314
        47.0004         37.0004
  20293563.0704   14840543.36844  11566720.02842  20293565.1014   20293559.5414
        57.0004         50.0004
  22780216.5344   21947140.08243  17099780.32442  22780219.0124   22780213.3234
        49.0004         42.0004
  22159928.7674   23298967.28043  18152304.40742  22159931.5424   22159925.7494
        53.0004         45.0004
  22873523.3374   12815172.44543   9991796.32142  22873525.2184   22873521.1294
        50.0004         42.0004
  22487837.8104    4470560.05943   3475386.79142  22487839.0544   22487835.5134
        51.0004         44.0004
  22822325.5474   -8291199.32343  -6446149.37942  22822326.6474   22822325.5644
        49.0004         41.0004
 04  6 22 14 20  0.0000000  0  9G21G18G 5G 6G17G30G29G10G26
  21800547.6844   12904889.95143  10059480.20842  21800549.7014   21800543.0264
        55.0004         46.0004
  22777070.8214   -9773438.50743  -7597764.61042  22777072.5274   22777067.1864
        52.0004         44.0004
  24658041.8604    6802053.82143   5287624.03142  24658044.4324   24658041.8724
        47.0004         37.0004
  20291387.9834   14829112.84244  11557813.12042  20291389.8594   20291384.6834
        57.0004         50.0004
  22788059.1184   21988354.75843  17131895.61542  22788059.7274   22788058.1094
        49.0004         42.0004
  22171240.1964   23358409.42243  18198622.91442  22171242.9984   22171237.8884
        53.0004         45.0004
  22868139.5984   12786880.76043   9969750.87342  22868139.5264   22868136.3644
        50.0004         42.0004
  22499363.6464    4531126.31143   3522581.24142  22499365.5094   22499361.5394
        51.0004         44.0004
  22812833.3374   -8341082.34843  -6485019.25042  22812835.4414   22812831.3954
        49.0004         42.0004
 04  6 22 14 20 20.0000000  0  9G21G18G 5G 6G17G30G29G10G26
  21794432.7164   12872755.54143  10034440.40942  21794434.9534   21794428.5874
        55.0004         46.0004
  22765039.1784   -9836662.63543  -7647030.14442  22765041.6084   22765036.9964
        52.0004         44.0004
  24671403.8854    6872272.97443   5342340.17142  24671404.2904   24671402.3864
        47.0004         37.0004
  20289245.9744   14817856.68944  11549042.08642  20289248.0064   20289242.3364
        57.0004         50.0004
  22795908.1604   22029600.36643  17164035.01642  22795908.7474   22795905.6414
        49.0004         42.0004
  22182574.2684   23417969.18643  18245033.08442  22182576.8404   22182571.7344
        53.0004         45.0004
  22862791.1304   12758777.53343   9947852.26042  22862793.2464   22862788.3244
        50.0004         42.0004
  22510912.9374    4591818.63743   3569873.92942  22510914.1374   22510910.3154
        51.0004         44.0004
  22803369.6224   -8390812.50443  -6523769.98942  22803371.2574   22803367.1784
        49.0004         41.0004
 04  6 22 14 20 40.0000000  0  9G21G18G 5G 6G17G30G29G10G26
  21788332.6714   12840697.56043  10009460.17342  21788334.2014   21788328.7804
        55.0004         46.0004
  22753030.8614   -9899769.33543  -7696204.18542  22753032.2794   22753028.1604
        52.0004         44.0004
  24684761.5214    6942465.27743   5397035.38542  24684765.7874   24684762.6114
        46.0004         37.0004
  20287137.8204   14806778.61444  11540409.80842  20287139.7484   20287134.6104
        57.0004         50.0004
  22803763.7144   22070879.76043  17196200.73742  22803764.8574   22803760.8164
        49.0004         42.0004
  22193930.7444   23477648.71643  18291536.56542  22193932.7784   22193928.0654
        53.0004         45.0004
  22857479.9424   12730866.17943   9926103.16442  22857482.2584   22857477.5934
        50.0004         42.0004
  22522486.6334    4652639.17743   3617266.53142  22522488.8784   22522483.6134
        51.0004         44.0004
  22793936.2184   -8440385.48443  -6562398.27542  22793937.1504   22793935.2364
        49.0004         41.0004
 04  6 22 14 21  0.0000000  0  9G21G18G 5G 6G17G30G29G10G26
  21782246.1944   12808713.88243   9984537.83442  21782248.3474   21782241.2704
        55.0004         47.0004
  22741043.7604   -9962760.47643  -7745288.16842  22741046.2474   22741040.6224
        52.0004         44.0004
  24698113.1864    7012627.61243   5451707.26042  24698116.1204   24698111.6034
        46.0004         37.0004
  20285063.2014   14795876.39844  11531914.56642  20285065.1594   20285059.8404
        57.0004         50.0004
  22811624.6504   22112190.42943  17228390.83342  22811625.8044   22811622.9984
        49.0004         42.0004
  22205309.4814   23537444.69643  18338130.79842  22205312.4974   22205307.3284
        53.0004         45.0004
  22852205.0784   12703145.22943   9904502.43142  22852207.0824   22852203.5304
        50.0004         42.0004
  22534084.3474    4713584.85543   3664756.63742  22534085.7414   22534080.7214
        52.0004         44.0004
  22784532.7234   -8489802.77343  -6600905.22042  22784532.8214   22784529.2274
        48.0004         41.0004
 04  6 22 14 21 20.0000000  0  9G21G18G 5G 6G17G30G29G10G26
  21776174.1554   12776805.32243   9959674.02342  21776175.7064   21776169.7224
        55.0004         46.0004
  22729079.5364  -10025634.67343  -7794281.02942  22729082.1804   22729077.0784
        52.0004         44.0004
  24711459.4554    7082760.14343   5506355.87642  24711460.8254   24711460.2124
        46.0004         37.0004
  20283022.5024   14785151.61544  11523557.58042  20283024.0764   20283019.0214
        57.0004         50.0004
  22819492.0044   22153533.22943  17260605.96042  22819492.4474   22819489.2834
        50.0004         42.0004
  22216710.5924   23597357.34343  18384815.93842  22216712.5624   22216707.9124
        53.0004         45.0004
  22846966.2324   12675616.34143   9883051.34142  22846967.2144   22846964.3674
        50.0004         42.0004
  22545706.0004    4774655.58543   3712344.18342  22545708.4514   22545703.4964
        51.0004         44.0004
  22775158.0584   -8539062.34043  -6639289.28942  22775161.7904   22775157.2584
        48.0004         41.0004
 04  6 22 14 21 40.0000000  0  9G21G18G 5G 6G17G30G29G10G26
  21770115.9764   12744968.34343   9934865.99442  21770117.2724   21770111.1014
        55.0004         47.0004
  22717136.5564  -10088394.78843  -7843184.99442  22717139.2344   22717134.2314
        52.0004         44.0004
  24724798.1374    7152858.86543   5560978.15442  24724800.7924   24724799.8624
        45.0004         37.0004
  20281014.6524   14774601.44444  11515336.65842  20281016.7074   20281011.4224
        57.0004         50.0004
  22827364.8634   22194904.65743  17292843.40342  22827365.8104   22827363.5114
        49.0004         42.0004
  22228132.8864   23657382.14243  18431588.46742  22228135.8774   22228130.9974
        53.0004         45.0004
  22841764.0264   12648276.65543   9861747.69842  22841766.2564   22841762.3314
        50.0004         42.0004
  22557349.8904    4835847.23343   3760025.95042  22557351.2464   22557347.6994
        51.0004         44.0004
  22765814.4594   -8588166.52343  -6677552.26942  22765815.9094   22765811.9574
        48.0004         41.0004
 04  6 22 14 22  0.0000000  0  9G21G18G 5G 6G17G30G29G10G26
  21764072.3714   12713208.59143   9910118.13442  21764073.9564   21764067.6324
        55.0004         47.0004
  22705216.5284  -10151034.45943  -7891995.12142  22705219.1034   22705213.5734
        52.0004         44.0004
  24738132.7494    7222928.67243   5615577.91242  24738133.9364   24738130.6784
        46.0004         38.0004
  20279041.5154   14764231.80444  11507256.40742  20279043.2244   20279037.8774
        57.0004         50.0004
  22835243.7994   22236310.23943  17325107.45342  22835246.5724   22835242.4994
        49.0004         42.0004
  22239577.8504   23717524.02743  18478452.23842  22239579.3984   22239576.3754
        53.0004         45.0004
  22836598.6754   12621132.71743   9840596.58142  22836601.7124   22836595.7294
        50.0004         42.0004
  22569018.2954    4897164.69243   3807805.75242  22569019.8944   22569015.9054
        51.0004         44.0004
  22756500.6424   -8637108.68443  -6715688.99942  22756503.7634   22756498.5474
        48.0004         41.0004
 04  6 22 14 22 20.0000000  0  9G21G18G 5G 6G17G30G29G10G26
  21758042.1634   12681521.10143   9885426.58742  21758044.0254   21758037.7794
        55.0004         46.0004
  22693318.4974  -10213557.75443  -7940714.55842  22693321.2744   22693315.3644
        52.0004         44.0004
  24751459.4054    7292964.02143   5670150.78942  24751462.6874   24751457.5274
        45.0004         38.0004
  20277101.6864   14754038.27444  11499313.38242  20277103.6214   20277098.2614
        57.0004         50.0004
  22843129.2714   22277745.23043  17357394.42042  22843129.6154   22843127.5574
        50.0004         42.0004
  22251043.5354   23777777.30443  18525402.80442  22251045.8564   22251041.4144
        53.0004         45.0004
  22831469.5354   12594180.34643   9819594.73642  22831472.5074   22831468.2764
        50.0004         42.0004
  22580709.8454    4958602.31943   3855679.18742  22580711.1944   22580705.8844
        51.0004         44.0004
  22747217.2574   -8685892.39943  -6753702.25542  22747219.5024   22747216.7674
        48.0004         41.0004
 04  6 22 14 22 40.0000000  0  9G21G18G 5G 6G17G30G29G10G26
  21752026.7254   12649909.68943   9860794.31642  21752028.4904   21752022.3584
        55.0004         47.0004
  22681443.8154  -10275960.53243  -7989340.07342  22681445.3364   22681441.2214
        52.0004         44.0004
  24764779.9874    7362967.88243   5724699.15042  24764783.2034   24764779.4594
        45.0004         38.0004
  20275196.4054   14744025.15144  11491510.93442  20275198.3544   20275192.9624
        57.0004         50.0004
  22851020.0234   22319213.00443  17389706.93142  22851021.6254   22851018.0434
        50.0004         42.0004
  22262531.0694   23838144.75343  18572442.33442  22262534.1114   22262529.3134
        53.0004         45.0004
  22826377.9614   12567423.83743   9798745.51442  22826378.6434   22826375.4064
        50.0004         42.0004
  22592424.1684    5020162.92543   3903648.46242  22592426.4684   22592421.7704
        51.0004         44.0004
  22737965.8294   -8734513.11943  -6791588.51042  22737967.4784   22737963.4864
        48.0004         42.0004
 04  6 22 14 23  0.0000000  0  9G21G18G 5G 6G17G30G29G10G26
  21746025.3904   12618371.37843   9836219.01042  21746027.2984   21746021.2424
        55.0004         47.0004
  22669591.4224  -10338245.07443  -8037873.47742  22669594.2344   22669588.3954
        52.0004         44.0004
  24778095.8454    7432936.56143   5779220.08142  24778097.3374   24778093.7534
        44.0004         37.0004
  20273324.6844   14734189.45344  11483846.73742  20273326.6314   20273321.0324
        57.0004         50.0004
  22858916.9134   22360710.64143  17422042.71042  22858918.3784   22858915.4874
        50.0004         42.0004
  22274039.7254   23898622.56543  18619567.85942  22274041.7614   22274037.7084
        53.0004         45.0004
  22821323.3064   12540860.99343   9778047.18942  22821325.4144   22821321.8474
        50.0004         42.0004
  22604161.6474    5081842.59443   3951710.50442  22604162.7514   22604159.7744
        51.0004         44.0004
  22728743.9924   -8782972.69143  -6829349.18242  22728746.1264   22728742.7394
        48.0004         41.0004
 04  6 22 14 23 20.0000000  0  9G21G18G 5G 6G17G30G29G10G26
  21740038.0454   12586908.31343   9811702.33342  21740039.7304   21740033.4514
        55.0004         46.0004
  22657762.4854  -10400408.53043  -8086312.52142  22657764.1084   22657760.1584
        52.0004         44.0004
  24791403.2494    7502871.71543   5833714.90242  24791405.8434   24791402.7674
        43.0004         38.0004
  20271487.4944   14724534.71144  11476323.54942  20271489.5644   20271483.9154
        58.0004         50.0004
  22866819.9894   22402240.31643  17454403.46242  22866821.5194   22866817.3114
        50.0004         42.0004
  22285569.3534   23959212.26743  18666780.57742  22285571.6684   22285566.9474
        53.0004         45.0004
  22816306.1824   12514494.82143   9757502.12542  22816306.6224   22816303.8134
        50.0004         42.0004
  22615921.6644    5143643.10243   3999866.71142  22615922.6044   22615920.0434
        51.0004         44.0004
  22719554.0414   -8831267.78843  -6866981.73342  22719555.9074   22719552.8544
        49.0004         41.0004
 04  6 22 14 23 40.0000000  0  9G21G18G 5G 6G17G30G29G10G26
  21734064.8564   12555519.25443   9787243.32842  21734066.9504   21734060.2944
        55.0004         47.0004
  22645955.9454  -10462451.60643  -8134657.76742  22645957.8054   22645952.6204
        52.0004         44.0004
  24804705.1024    7572771.48743   5888182.13742  24804704.9894   24804705.5424
        43.0004         37.0004
  20269684.4614   14715059.87444  11468940.54342  20269686.5664   20269680.9024
        57.0004         50.0004
  22874728.4424   22443800.78243  17486788.21842  22874731.0504   22874726.1714
        49.0004         42.0004
  22297120.3514   24019911.63443  18714078.74842  22297123.4934   22297117.9054
        53.0004         45.0004
  22811325.8544   12488324.65143   9737109.78742  22811327.1164   22811323.5094
        50.0004         42.0004
  22627705.0054    5205562.27943   4048115.39242  22627705.5974   22627702.4604
        51.0004         44.0004
  22710394.9674   -8879398.62543  -6904486.26642  22710396.4714   22710393.3304
        49.0004         41.0004
 04  6 22 14 24  0.0000000  0  9G21G18G 5G 6G17G30G29G10G26
  21728105.4494   12524203.23643   9762841.24142  21728107.5404   21728100.9394
        55.0004         47.0004
  22634172.0874  -10524374.97843  -8182909.73242  22634173.6644   22634169.1544
        52.0004         44.0004
  24818000.1934    7642633.90343   5942620.24542  24818000.1074   24817999.9844
        42.0004         37.0004
  20267915.5124   14705764.02144  11461697.00242  20267917.3814   20267912.2664
        57.0004         50.0004
  22882642.5134   22485390.73443  17519195.93242  22882643.6344   22882640.5584
        49.0004         42.0004
  22308691.6094   24080718.54043  18761460.70442  22308693.7584   22308688.6644
        53.0004         44.0004
  22806382.7134   12462350.02643   9716869.82642  22806385.3844   22806381.0234
        49.0004         42.0004
  22639509.5624    5267598.04243   4096454.91142  22639510.7684   22639507.0334
        51.0004         44.0004
  22701267.0094   -8927365.33643  -6941862.91242  22701268.7644   22701264.7524
        49.0004         42.0004
 04  6 22 14 24 20.0000000  0  9G21G18G 5G 6G17G30G29G10G26
  21722160.7864   12492962.95243   9738498.16542  21722162.7074   21722156.3114
        55.0004         47.0004
  22622412.0584  -10586174.85743  -8231065.47142  22622414.9914   22622408.3584
        53.0004         44.0004
  24831286.6724    7712461.40243   5997031.16542  24831285.7394   24831285.4514
        40.0004         37.0004
  20266181.1624   14696650.59044  11454595.61142  20266183.1784   20266177.9554
        57.0004         50.0004
  22890562.8484   22527012.81743  17551628.67742  22890563.9614   22890563.4784
        49.0004         42.0004
  22320283.8244   24141635.12943  18808928.13342  22320286.0774   22320280.8674
        53.0004         44.0004
  22801477.9464   12436574.42843   9696784.93642  22801480.1224   22801473.9284
        50.0004         42.0004
  22651337.1434    5329752.61943   4144887.01242  22651339.2804   22651335.2184
        51.0004         44.0004
  22692171.3544   -8975163.93543  -6979108.56642  22692173.6224   22692169.1294
        49.0004         41.0004
 04  6 22 14 24 40.0000000  0  8G21G18G 6G17G30G29G10G26
  21716232.3174   12461809.69643   9714222.90842  21716234.0984   21716228.3454
        55.0004         47.0004
  22610677.5074  -10647839.73943  -8279116.01142  22610678.1424   22610674.8444
        52.0004         44.0004
  20264483.9934   14687731.39744  11447645.58242  20264485.9304   20264480.6254
        57.0004         50.0004
  22898491.6134   22568678.31743  17584095.25242  22898492.8604   22898490.7404
        49.0004         42.0004
  22331898.7244   24202671.83543  18856489.15942  22331900.8514   22331896.3784
        53.0004         44.0004
  22796613.0264   12411009.90843   9676864.53842  22796615.2414   22796609.6834
        49.0004         42.0004
  22663189.6464    5392036.26043   4193419.69442  22663190.8654   22663187.7114
        51.0004         43.0004
  22683109.3284   -9022782.19943  -7016213.69042  22683110.9744   22683107.9454
        49.0004         42.0004
 04  6 22 14 25  0.0000000  0  8G21G18G 6G17G30G29G10G26
  21710315.8174   12430715.72043   9689993.83942  21710317.6704   21710311.4504
        55.0004         47.0004
  22598963.1914  -10709396.23243  -8327082.07842  22598965.6964   22598960.4864
        52.0004         44.0004
  20262818.7094   14678978.97144  11440825.49542  20262820.4264   20262815.0814
        57.0004         50.0004
  22906423.9254   22610359.74843  17616574.24742  22906423.4584   22906421.6004
        49.0004         42.0004
  22343530.6604   24263800.18943  18904121.59842  22343533.4014   22343528.0844
        53.0004         44.0004
  22791783.9384   12385629.62243   9657087.69742  22791785.9044   22791781.7974
        49.0004         42.0004
  22675061.3764    5454420.73643   4242030.94242  22675062.0454   22675058.6174
        51.0004         43.0004
  22674077.5604   -9070246.44343  -7053198.79542  22674079.4664   22674077.5054
        49.0004         42.0004
 04  6 22 14 25 20.0000000  0  8G21G18G 6G17G30G29G10G26
  21704412.5034   12399694.21343   9665821.23642  21704414.4274   21704407.4344
        55.0004         47.0004
  22587273.5304  -10770830.60243  -8374952.99542  22587275.4364   22587270.8794
        52.0004         44.0004
  20261187.4354   14670407.68944  11434146.56442  20261189.5784   20261184.0584
        57.0004         50.0004
  22914361.1444   22652070.25643  17649075.89942  22914361.0674   22914358.2514
        50.0004         42.0004
  22355182.9074   24325032.75143  18951835.23742  22355184.6794   22355180.0504
        53.0004         44.0004
  22786991.6524   12360447.51743   9637465.27042  22786992.8914   22786989.9274
        49.0004         42.0004
  22686953.8784    5516918.58143   4290730.52542  22686955.0084   22686951.4234
        51.0004         43.0004
  22665077.8264   -9117542.41943  -7090052.78442  22665080.3734   22665076.4454
        49.0004         42.0004
 04  6 22 14 25 40.0000000  0  8G21G18G 6G17G30G29G10G26
  21698523.8374   12368749.65943   9641708.60042  21698525.3294   21698519.6524
        55.0004         47.0004
  22575606.8154  -10832138.40543  -8422725.28142  22575608.5994   22575603.1804
        53.0004         44.0004
  20259591.5894   14662021.25644  11427611.66942  20259593.7574   20259588.1374
        57.0004         50.0004
  22922304.3144   22693813.56143  17681603.11242  22922305.0064   22922302.8914
        49.0004         42.0004
  22366855.5784   24386372.33143  18999632.27542  22366858.1534   22366853.7724
        53.0004         44.0004
  22782238.1614   12335468.18543   9618000.85042  22782240.0914   22782235.7614
        50.0004         42.0004
  22698868.9044    5579532.91343   4339520.88242  22698869.3144   22698866.0934
        51.0004         43.0004
  22656110.8524   -9164665.30143  -7126771.91042  22656112.7124   22656109.3514
        50.0004         42.0004
 04  6 22 14 26  0.0000000  0  8G21G18G 6G17G30G29G10G26
  21692649.5744   12337879.58543   9617653.99742  21692651.0584   21692644.5924
        55.0004         47.0004
  22563963.8984  -10893321.15143  -8470400.13642  22563964.8774   22563961.2394
        53.0004         44.0004
  20258030.6504   14653818.28544  11421219.73142  20258032.7974   20258027.5324
        57.0004         50.0004
  22930254.0674   22735587.50643  17714154.19542  22930254.2484   22930252.5924
        49.0004         42.0004
  22378547.8854   24447816.05143  19047510.47042  22378550.2654   22378545.7754
        53.0004         44.0004
  22777522.9504   12310689.95143   9598693.14542  22777525.7784   22777520.9404
        49.0004         42.0004
  22710805.9624    5642260.72143   4388399.65642  22710807.3874   22710804.6164
        50.0004         43.0004
  22647176.2024   -9211616.20643  -7163357.02642  22647178.7464   22647174.6984
        50.0004         42.0004
 04  6 22 14 26 20.0000000  0  8G21G18G 6G17G30G29G10G26
  21686788.9524   12307081.78843   9593655.72042  21686790.7424   21686784.3864
        55.0004         47.0004
  22552344.9044  -10954380.27643  -8517978.65142  22552347.6754   22552342.0794
        53.0004         44.0004
  20256504.2054   14645797.13444  11414969.47442  20256506.3224   20256501.0664
        57.0004         50.0004
  22938208.4434   22777389.95643  17746727.50242  22938207.2384   22938206.0464
        49.0004         42.0004
  22390259.6364   24509360.97943  19095467.52242  22390262.3044   22390256.3214
        52.0004         44.0004
  22772845.8374   12286111.67043   9579541.24442  22772846.8644   22772842.9184
        49.0004         42.0004
  22722764.0084    5705099.32443   4437364.77942  22722765.4584   22722759.8524
        51.0004         43.0004
  22638273.9214   -9258395.91143  -7199808.73542  22638276.1324   22638273.4604
        50.0004         42.0004
 04  6 22 14 26 40.0000000  0  8G21G18G 6G17G30G29G10G26
  21680942.4604   12276358.94343   9569715.84342  21680943.9524   21680938.0674
        55.0004         47.0004
  22540749.6554  -11015312.81143  -8565458.53542  22540752.3414   22540746.5344
        53.0004         44.0004
  20255013.1104   14637960.73044  11408863.17042  20255014.8644   20255009.5514
        57.0004         50.0004
  22946169.1754   22819223.45043  17779324.97542  22946170.0734   22946166.9024
        49.0004         42.0004
  22401990.8594   24571008.77843  19143504.72542  22401992.7274   22401988.2584
        52.0004         44.0004
  22768207.0754   12261736.45243   9560547.56442  22768208.6774   22768203.7974
        49.0004         42.0004
  22734742.4474    5768050.36643   4486417.50042  22734744.5124   22734739.5844
        50.0004         43.0004
  22629405.2134   -9305001.06243  -7236124.44042  22629408.5614   22629401.9084
        50.0004         42.0004
 04  6 22 14 27  0.0000000  0  8G21G18G 6G17G30G29G10G26
  21675109.9344   12245708.12443   9545832.09242  21675111.8794   21675105.4594
        55.0004         47.0004
  22529178.1344  -11076120.78843  -8612841.35642  22529179.9264   22529175.2564
        53.0004         44.0004
  20253556.5074   14630306.62144  11402898.91542  20253558.5454   20253553.0534
        58.0004         50.0004
  22954135.2904   22861085.13043  17811944.42542  22954136.7864   22954133.6894
        49.0004         42.0004
  22413741.0864   24632755.75643  19191619.21042  22413743.5874   22413738.8774
        53.0004         44.0004
  22763606.9034   12237562.07643   9541710.39942  22763609.0084   22763605.9784
        49.0004         42.0004
  22746742.8634    5831110.14743   4535554.95542  22746744.3454   22746740.1764
        50.0004         43.0004
  22620569.9034   -9351433.30543  -7272305.39842  22620570.7844   22620568.3524
        50.0004         42.0004
 04  6 22 14 27 20.0000000  0  8G21G18G 6G17G30G29G10G26
  21669291.2014   12215130.65243   9522005.48942  21669293.3274   21669286.9304
        55.0004         47.0004
  22517631.0084  -11136802.56443  -8660125.83442  22517632.9234   22517628.1394
        53.0004         45.0004
  20252135.1464   14622836.72044  11397078.20442  20252137.2714   20252131.8374
        58.0004         50.0004
  22962106.7014   22902976.16843  17844586.74142  22962107.3064   22962103.6304
        49.0004         42.0004
  22425510.1384   24694602.30543  19239811.28142  22425513.5184   22425507.4494
        53.0004         44.0004
  22759045.4964   12213590.46443   9523031.23342  22759047.7804   22759043.2854
        49.0004         42.0004
  22758763.4764    5894279.09843   4584777.47142  22758764.5714   22758761.4364
        50.0004         43.0004
  22611766.6854   -9397690.47343  -7308349.93242  22611768.4094   22611764.6524
        49.0004         41.0004
 04  6 22 14 27 40.0000000  0  9G21G18G 6G17G30G29G10G26G16
  21663484.3674   12184616.54243   9498228.26542  21663486.0924   21663480.0934
        55.0004         47.0004
  22506105.9264  -11197367.50143  -8707319.28142  22506107.7134   22506102.0594
        53.0004         44.0004
  20250746.8844   14615541.26444  11391393.42142  20250748.8294   20250743.4914
        57.0004         50.0004
  22970082.8154   22944886.31943  17877243.97242  22970083.4744   22970078.6314
        49.0004         42.0004
  22437296.2024   24756537.49643  19288072.42142  22437298.6254   22437293.6614
        52.0004         44.0004
  22754521.1444   12189812.32643   9504502.82142  22754521.0544   22754519.3924
        49.0004         42.0004
  22770802.9154    5957546.39243   4634076.62742  22770803.5424   22770801.3294
        50.0004         43.0004
  22602996.0694   -9443781.45543  -7344264.97642  22602998.6544   22602993.5954
        50.0004         42.0004
  24759995.6384   -4096951.93353  -3140545.36752  24759997.3494   24759992.7284
        43.0004         36.0004
 04  6 22 14 28  0.0000000  0  9G21G18G 6G17G30G29G10G26G16
  21657693.9834   12154188.21643   9474517.87742  21657696.0114   21657689.7144
        55.0004         47.0004
  22494607.1614  -11257792.33643  -8754403.55142  22494608.5564   22494603.9574
        53.0004         44.0004
  20249396.0724   14608443.28044  11385862.51142  20249398.0094   20249392.7084
        57.0004         50.0004
  22978065.3994   22986838.28743  17909933.77242  22978067.1544   22978064.6584
        49.0004         42.0004
  22449102.8564   24818583.17343  19336419.65542  22449105.2694   22449100.6974
        53.0004         44.0004
  22750037.4174   12166250.82943   9486143.22342  22750038.9574   22750033.8644
        50.0004         42.0004
  22782865.4714    6020933.88943   4683469.44942  22782867.0264   22782861.1314
        50.0004         43.0004
  22594261.6784   -9489682.62343  -7380032.09842  22594263.5044   22594260.2634
        50.0004         42.0004
  24750286.4964   -4147973.09743  -3180302.13142  24750289.3394   24750283.9684
        43.0004         36.0004
 04  6 22 14 28 20.0000000  0  9G21G18G 6G17G30G29G10G26G16
  21651917.6304   12123831.74243   9450863.48142  21651919.1114   21651913.1114
        55.0004         47.0004
  22483132.8994  -11318090.63043  -8801389.21442  22483134.2814   22483130.2514
        53.0004         44.0004
  20248080.3854   14601529.21544  11380474.91742  20248082.3724   20248077.1314
        57.0004         50.0004
  22986053.7734   23028818.08943  17942645.27042  22986056.5714   22986052.1404
        49.0004         42.0004
  22460927.9584   24880724.41043  19384841.35742  22460931.1874   22460925.3734
        52.0004         44.0004
  22745592.8614   12142892.66243   9467942.06142  22745596.4804   22745590.7074
        50.0004         43.0004
  22794947.3894    6084426.78643   4732944.39542  22794949.5104   22794944.7874
        50.0004         43.0004
  22585560.1264   -9535406.99743  -7415661.47442  22585563.4274   22585558.2514
        49.0004         42.0004
  24740607.4124   -4198833.84643  -3219933.88342  24740608.8444   24740604.1344
        43.0004         36.0004
 04  6 22 14 28 40.0000000  0  9G21G18G 6G17G30G29G10G26G16
  21646155.2434   12093550.73443   9427267.89542  21646157.4284   21646150.8474
        55.0004         47.0004
  22471683.4144  -11378258.31143  -8848273.10242  22471685.2854   22471680.2104
        53.0004         44.0004
  20246800.6124   14594803.11144  11375233.78742  20246802.3104   20246797.1374
        57.0004         50.0004
  22994048.7074   23070829.04743  17975381.03142  22994051.5284   22994046.5334
        49.0004         42.0004
  22472771.6674   24942963.93943  19433339.65242  22472774.4304   22472769.9044
        52.0004         44.0004
  22741187.0044   12119742.12343   9449902.68542  22741188.6314   22741183.7434
        49.0004         43.0004
  22807050.8604    6148027.90843   4782503.68542  22807051.5254   22807047.8094
        50.0004         43.0004
  22576893.6414   -9580950.00643  -7451149.52142  22576896.5074   22576892.2484
        49.0004         42.0004
  24730961.1254   -4249529.85043  -3259437.28142  24730961.6744   24730958.4784
        44.0004         36.0004
 04  6 22 14 29  0.0000000  0  9G21G18G 6G17G30G29G10G26G16
  21640406.8344   12063343.11843   9403729.49942  21640408.4414   21640402.2684
        55.0004         47.0004
  22460258.2984  -11438296.68643  -8895056.23542  22460260.3774   22460255.3524
        53.0004         44.0004
  20245555.9244   14588263.45444  11370137.93942  20245557.9474   20245552.8474
        57.0004         50.0004
  23002047.8864   23112869.21543  18008139.57042  23002049.2754   23002046.4754
        48.0004         41.0004
  22484633.8664   25005298.85043  19481912.26642  22484636.6734   22484631.8244
        52.0004         44.0004
  22736820.8214   12096797.48943   9432023.76142  22736821.9744   22736820.3594
        50.0004         43.0004
  22819173.4174    6211734.42843   4832145.09542  22819175.1094   22819171.0724
        50.0004         43.0004
  22568261.3694   -9626312.57743  -7486496.96842  22568262.9184   22568260.6104
        50.0004         42.0004
  24721343.9024   -4300062.51843  -3298813.37742  24721346.0704   24721342.5254
        44.0004         36.0004
 04  6 22 14 29 20.0000000  0  9G21G18G 6G17G30G29G10G26G16
  21634672.4954   12033208.01843   9380247.60542  21634674.1034   21634668.2604
        55.0004         47.0004
  22448858.2524  -11498205.88243  -8941738.71842  22448859.8254   22448854.1054
        53.0004         44.0004
  20244347.0464   14581909.89944  11365187.10642  20244348.8414   20244343.5304
        57.0004         50.0004
  23010053.4984   23154937.52143  18040920.01842  23010056.3534   23010050.4684
        49.0004         41.0004
  22496513.6914   25067727.47143  19530557.89642  22496516.4384   22496511.7514
        52.0004         44.0004
  22732493.3224   12074058.86843   9414305.36342  22732495.4204   22732491.3774
        49.0004         43.0004
  22831316.4404    6275544.67643   4881867.32542  22831317.8694   22831312.8814
        50.0004         43.0004
  22559663.6884   -9671494.50743  -7521703.66442  22559665.8794   22559661.9174
        50.0004         42.0004
  24711759.5804   -4350431.86743  -3338062.23842  24711761.0984   24711756.7834
        43.0004         36.0004
 04  6 22 14 29 40.0000000  0  9G21G18G 6G17G30G29G10G26G16
  21628951.6994   12003145.98943   9356822.65042  21628953.5054   21628947.3974
        55.0004         47.0004
  22437482.2444  -11557985.35243  -8988320.10342  22437483.9914   22437479.5584
        53.0004         44.0004
  20243173.4184   14575742.54244  11360381.36842  20243175.1404   20243170.0484
        57.0004         50.0004
  23018064.5664   23197034.35743  18073722.70742  23018065.6304   23018061.9994
        49.0004         41.0004
  22508410.7884   25130249.34843  19579276.19242  22508414.2354   22508409.1214
        52.0004         44.0004
  22728205.5354   12051527.15443   9396748.19342  22728207.0184   22728204.3214
        50.0004         43.0004
  22843478.5934    6339458.29743   4931670.11742  22843480.5414   22843476.4394
        50.0004         43.0004
  22551100.5864   -9716494.40743  -7556768.51242  22551102.7274   22551098.0634
        50.0004         42.0004
  24702205.5484   -4400636.94243  -3377183.08842  24702206.3504   24702203.5754
        43.0004         36.0004
 04  6 22 14 30  0.0000000  0  9G21G18G 6G17G30G29G10G26G16
  21623245.4364   11973158.52343   9333455.79542  21623247.3484   21623240.9034
        55.0004         47.0004
  22426131.6884  -11617632.45843  -9034798.34842  22426134.4264   22426127.5864
        53.0004         44.0004
  20242035.8734   14569764.63344  11355723.24642  20242037.6884   20242032.6014
        57.0004         50.0004
  23026081.6674   23239161.69543  18106549.16642  23026083.9714   23026079.5984
        49.0004         41.0004
  22520326.3264   25192865.38443  19628067.86942  22520329.2114   22520324.8734
        52.0004         44.0004
  22723958.2804   12029204.92343   9379354.24642  22723960.5424   22723957.0004
        49.0004         43.0004
  22855660.6814    6403476.46643   4981554.37242  22855662.1424   22855658.3574
        50.0004         43.0004
  22542572.6614   -9761309.49643  -7591689.34642  22542575.0084   22542571.0584
        50.0004         42.0004
  24692684.3604   -4450675.18143  -3416173.93042  24692685.6014   24692680.6394
        44.0004         37.0004
 04  6 22 14 30 20.0000000  0  9G21G18G 6G17G30G29G10G26G16
  21617552.4694   11943242.86643   9310144.89842  21617554.6044   21617547.7264
        55.0004         47.0004
  22414806.2874  -11677149.64843  -9081175.36342  22414807.9884   22414802.5954
        53.0004         45.0004
  20240933.8224   14563973.21944  11351210.44942  20240935.9314   20240930.2254
        57.0004         50.0004
  23034102.5864   23281316.28943  18139396.85842  23034104.5674   23034100.9644
        48.0004         41.0004
  22532259.5904   25255571.67343  19676929.87542  22532261.8744   22532256.6154
        53.0004         44.0004
  22719750.2464   12007089.53243   9362121.48042  22719751.4104   22719747.3724
        49.0004         43.0004
  22867862.3834    6467595.09943   5031516.89642  22867863.5664   22867858.1844
        50.0004         43.0004
  22534079.3334   -9805941.77343  -7626467.71942  22534081.5764   22534077.2304
        50.0004         42.0004
  24683192.4104   -4500549.07543  -3455036.69142  24683194.6404   24683190.1854
        43.0004         37.0004
 04  6 22 14 30 40.0000000  0  9G21G18G 6G17G30G29G10G26G16
  21611873.9144   11913402.22843   9286892.45642  21611875.8004   21611869.6174
        55.0004         47.0004
  22403505.9214  -11736532.80043  -9127447.93442  22403508.4764   22403503.2004
        54.0004         45.0004
  20239867.9084   14558371.69344  11346845.61342  20239869.8954   20239864.5964
        57.0004         50.0004
  23042130.4604   23323501.44243  18172268.36542  23042133.3104   23042129.5094
        49.0004         41.0004
  22544209.6644   25318370.72143  19725864.16442  22544211.6704   22544207.5164
        52.0004         44.0004
  22715581.7134   11985185.16143   9345053.14742  22715583.2824   22715579.1764
        50.0004         43.0004
  22880082.7994    6531816.89943   5081559.81542  22880084.6444   22880080.4694
        50.0004         43.0004
  22525621.7694   -9850386.78843  -7661100.19142  22525624.3274   22525619.9754
        50.0004         42.0004
  24673733.8464   -4550254.30843  -3493768.04342  24673737.1884   24673730.2934
        42.0004         36.0004
 04  6 22 14 31  0.0000000  0  9G21G18G 6G17G30G29G10G26G16
  21606209.6354   11883634.29943   9263696.66842  21606211.2544   21606204.9874
        55.0004         47.0004
  22392230.6114  -11795784.13843  -9173617.80042  22392233.0394   22392227.5234
        53.0004         45.0004
  20238837.7224   14552958.07944  11342627.20342  20238839.4434   20238834.5854
        57.0004         50.0004
  23050163.9394   23365714.63643  18205161.73542  23050164.9284   23050162.2364
        48.0004         41.0004
  22556176.6774   25381259.13743  19774868.07842  22556179.5424   22556175.5094
        52.0004         44.0004
  22711452.7204   11963489.63543   9328147.54642  22711455.1574   22711450.6684
        50.0004         43.0004
  22892323.7654    6596138.58043   5131680.57442  22892325.2104   22892321.0104
        50.0004         43.0004
  22517199.4704   -9894646.07043  -7695587.93642  22517201.1184   22517198.1594
        50.0004         42.0004
  24664307.9794   -4599792.84543  -3532369.49942  24664309.2084   24664304.3184
        43.0004         37.0004
 04  6 22 14 31 20.0000000  0  9G21G18G 6G17G30G29G10G26G16
  21600558.5154   11853939.32343   9240557.73042  21600560.0824   21600554.2174
        55.0004         47.0004
  22380980.4884  -11854902.67243  -9219684.17942  22380982.3254   22380977.6874
        53.0004         45.0004
  20237843.6534   14547733.79044  11338556.32042  20237845.5554   20237839.9924
        57.0004         50.0004
  23058201.7464   23407956.22943  18238077.21742  23058203.3504   23058199.7834
        48.0004         41.0004
  22568160.8894   25444236.50443  19823941.30742  22568163.3724   22568158.1374
        52.0004         44.0004
  22707364.7824   11942004.18843   9311405.65342  22707367.3314   22707362.8584
        50.0004         43.0004
  22904581.8514    6660559.83343   5181878.90642  22904583.3274   22904580.8944
        50.0004         43.0004
  22508812.7414   -9938718.32843  -7729929.93742  22508815.1924   22508811.0044
        50.0004         42.0004
  24654912.8104   -4649163.54943  -3570840.18542  24654913.0144   24654910.2654
        43.0004         36.0004
 04  6 22 14 31 40.0000000  0  9G21G18G 6G17G30G29G10G26G16
  21594921.9244   11824317.91743   9217476.11742  21594923.7754   21594917.6004
        55.0004         47.0004
  22369756.5694  -11913886.90643  -9265645.90442  22369758.0084   22369752.9744
        53.0004         45.0004
  20236885.5814   14542699.33744  11334633.35742  20236887.6514   20236882.1304
        57.0004         50.0004
  23066246.2874   23450226.98243  18271015.43442  23066245.8914   23066244.8074
        48.0004         41.0004
  22580161.9474   25507302.70443  19873083.75142  22580164.1284   22580160.6114
        52.0004         44.0004
  22703316.3194   11920730.20343   9294828.51542  22703318.6144   22703312.4224
        50.0004         43.0004
  22916860.1954    6725080.55743   5232154.75342  22916861.7084   22916858.7354
        50.0004         42.0004
  22500461.5974   -9982601.63943  -7764124.71442  22500463.3704   22500460.1964
        50.0004         42.0004
  24645550.2044   -4698365.00243  -3609178.97242  24645552.6474   24645549.1024
        44.0004         37.0004
 04  6 22 14 32  0.0000000  0  9G21G18G 6G17G30G29G10G26G16
  21589298.4944   11794767.45243   9194449.78042  21589300.4624   21589294.2084
        55.0004         47.0004
  22358557.5014  -11972739.13943  -9311504.78042  22358559.1404   22358554.3244
        53.0004         45.0004
  20235963.2204   14537852.34244  11330856.46542  20235965.2294   20235959.8154
        57.0004         50.0004
  23074294.9824   23492523.85143  18303974.00042  23074295.8324   23074292.3894
        49.0004         41.0004
  22592179.7604   25570454.00943  19922292.51342  22592182.0534   22592177.7054
        52.0004         44.0004
  22699307.8904   11899665.43043   9278414.42242  22699309.4124   22699304.6474
        50.0004         43.0004
  22929156.5074    6789697.11343   5282505.29142  22929158.5514   22929154.9274
        50.0004         43.0004
  22492146.1414  -10026297.86143  -7798173.70842  22492149.0694   22492143.5214
        50.0004         42.0004
  24636219.5514   -4747399.29443  -3647387.49642  24636221.2644   24636217.9084
        44.0004         37.0004
 04  6 22 14 32 20.0000000  0  9G21G18G 6G17G30G29G10G26G16
  21583689.7654   11765292.52343   9171482.30742  21583691.5894   21583685.5614
        55.0004         47.0004
  22347384.0144  -12031454.43243  -9357256.94242  22347385.8904   22347380.5344
        53.0004         45.0004
  20235077.5584   14533198.06044  11327229.74242  20235079.5164   20235074.1474
        57.0004         50.0004
  23082349.7564   23534851.39943  18336956.46542  23082351.8704   23082347.1044
        49.0004         41.0004
  22604213.9914   25633694.03443  19971570.37842  22604215.6094   22604211.5054
        51.0004         43.0004
  22695339.8744   11878814.82943   9262167.20742  22695342.3864   22695338.4474
        50.0004         43.0004
  22941471.3644    6854413.16543   5332933.34342  22941472.4194   22941470.5684
        50.0004         43.0004
  22483868.5714  -10069801.55543  -7832072.67742  22483871.7644   22483865.6154
        50.0004         42.0004
  24626920.2724   -4796261.29143  -3685461.77142  24626922.0774   24626918.8964
        43.0004         37.0004
 04  6 22 14 32 40.0000000  0  9G21G18G 6G17G30G29G10G26G16
  21578094.7794   11735890.84143   9148571.90642  21578096.4134   21578090.3514
        55.0004         47.0004
  22336236.7374  -12090034.15543  -9402903.46142  22336237.9214   22336234.2004
        53.0004         45.0004
  20234228.1794   14528734.58744  11323751.69842  20234230.2504   20234224.7714
        57.0004         50.0004
  23090409.4434   23577207.50943  18369961.18242  23090409.0384   23090408.1134
        49.0004         41.0004
  22616264.6254   25697019.88343  20020915.13642  22616268.0374   22616261.7714
        51.0004         43.0004
  22691412.8474   11858177.16143   9246085.91842  22691415.5574   22691411.3254
        50.0004         43.0004
  22953804.5864    6919225.80443   5383436.66442  22953806.3234   22953802.1214
        50.0004         42.0004
  22475626.3514  -10113113.70043  -7865822.38442  22475630.0534   22475624.6254
        50.0004         43.0004
  24617656.4964   -4844952.42243  -3723402.90342  24617657.9234   24617653.2484
        45.0004         37.0004
 04  6 22 14 33  0.0000000  0  9G21G18G 6G17G30G29G10G26G16
  21572513.2274   11706559.32943   9125716.18142  21572514.9464   21572508.7504
        55.0004         47.0004
  22325114.7884  -12148481.20443  -9448446.60142  22325116.8084   22325111.0674
        53.0004         45.0004
  20233414.6854   14524459.28244  11320420.28342  20233416.7714   20233411.3144
        57.0004         50.0004
  23098474.1934   23619589.10543  18402985.74942  23098473.6764   23098472.2444
        48.0004         41.0004
  22628330.4604   25760427.67343  20070323.74542  22628333.3184   22628329.1744
        51.0004         43.0004
  22687525.5784   11837749.88143   9230168.55842  22687528.2694   22687523.6914
        50.0004         43.0004
  22966156.0824    6984131.32443   5434012.37142  22966158.5734   22966153.5954
        50.0004         42.0004
  22467420.0444  -10156236.35943  -7899424.44842  22467423.0764   22467417.8344
        50.0004         43.0004
  24608422.2294   -4893475.10443  -3761212.78842  24608425.1914   24608419.3914
        44.0004         37.0004
 04  6 22 14 33 20.0000000  0  9G21G18G 6G17G30G29G10G26G16
  21566945.8404   11677302.91643   9102918.97342  21566948.0694   21566941.2194
        55.0004         47.0004
  22314019.1664  -12206789.86143  -9493881.90342  22314021.0014   22314015.6264
        54.0004         45.0004
  20232637.8954   14520377.72844  11317239.83742  20232639.8484   20232634.5484
        57.0004         50.0004
  23106544.9134   23662000.90543  18436033.86842  23106545.4214   23106543.5364
        48.0004         41.0004
  22640412.5444   25823921.43043  20119799.35042  22640415.3704   22640410.7074
        51.0004         43.0004
  22683679.3344   11817538.32943   9214419.29542  22683680.6214   22683677.1514
        50.0004         43.0004
  22978525.4464    7049133.80043   5484663.60342  22978528.0284   22978522.9224
        49.0004         42.0004
  22459251.9264  -10199163.64443  -7932874.27642  22459254.4894   22459249.4444
        50.0004         43.0004
  24599220.0504   -4941823.63043  -3798886.95542  24599222.4904   24599217.6004
        44.0004         37.0004
 04  6 22 14 33 40.0000000  0  9G21G18G 6G17G30G29G10G26G16
  21561391.9184   11648116.95543   9080176.67042  21561394.1844   21561387.1234
        56.0004         47.0004
  22302948.8544  -12264964.47943  -9539212.76742  22302950.5354   22302945.4214
        53.0004         45.0004
  20231897.1614   14516484.80944  11314206.38642  20231899.0494   20231894.0204
        57.0004         50.0004
  23114620.4604   23704438.23043  18469101.86442  23114619.8084   23114618.4254
        48.0004         41.0004
  22652510.7944   25887495.45943  20169337.50442  22652513.5254   22652508.9794
        52.0004         43.0004
  22679873.4644   11797538.41143   9198834.95042  22679874.8924   22679872.5164
        50.0004         43.0004
  22990912.8444    7114227.66343   5535386.06542  22990914.0854   22990908.9534
        50.0004         42.0004
  22451119.4114  -10241899.38743  -7966174.84842  22451122.3754   22451118.7884
        50.0004         43.0004
  24590053.9664   -4990002.14343  -3836428.65142  24590054.3274   24590051.4164
        44.0004         37.0004
 04  6 22 14 34  0.0000000  0  9G21G18G 6G17G30G29G10G26G16
  21555852.7624   11619007.50443   9057493.97742  21555854.6684   21555847.9414
        56.0004         47.0004
  22291905.0154  -12322998.07843  -9584433.74242  22291907.2314   22291903.2884
        53.0004         45.0004
  20231193.7694   14512788.27344  11311325.95742  20231195.7234   20231190.3354
        57.0004         50.0004
  23122702.2934   23746907.46643  18502194.74442  23122703.6364   23122700.2464
        48.0004         41.0004
  22664624.7354   25951155.25243  20218942.48642  22664627.0774   22664622.6184
        51.0004         44.0004
  22676109.6854   11777757.02343   9183420.87942  22676112.4424   22676106.9554
        50.0004         43.0004
  23003318.1204    7179418.46443   5586184.04242  23003319.2724   23003314.4734
        49.0004         42.0004
  22443024.9694  -10284436.23043  -7999320.43442  22443026.6564   22443022.8674
        50.0004         43.0004
  24580919.0974   -5038003.66543  -3873832.42242  24580920.7834   24580917.4214
        45.0004         37.0004
 04  6 22 14 34 20.0000000  0  9G21G18G 6G17G30G29G10G26G16
  21550327.2464   11589971.15943   9034868.25242  21550328.7924   21550322.8354
        56.0004         47.0004
  22280888.1514  -12380893.62643  -9629547.15442  22280890.0794   22280884.6184
        54.0004         45.0004
  20230526.9194   14509284.05244  11308595.38642  20230528.9844   20230523.3984
        57.0004         50.0004
  23130789.4524   23789404.81043  18535309.51242  23130791.4244   23130786.7194
        48.0004         41.0004
  22676754.6014   26014896.33843  20268610.80942  22676756.8564   22676751.9684
        52.0004         43.0004
  22672386.0114   11758191.18143   9168174.77342  22672388.1134   22672384.9154
        50.0004         43.0004
  23015741.1164    7244701.87843   5637054.20542  23015742.1554   23015739.0774
        49.0004         42.0004
  22434967.4344  -10326776.83243  -8032313.10642  22434970.9434   22434965.5264
        50.0004         43.0004
  24571817.8614   -5085831.07043  -3911100.52642  24571820.8354   24571815.9644
        44.0004         37.0004
 04  6 22 14 34 40.0000000  0  9G21G18G 6G17G30G29G10G26G16
  21544815.5884   11561005.55343   9012297.64842  21544817.3234   21544810.8474
        56.0004         47.0004
  22269897.1224  -12438652.96443  -9674554.41342  22269899.0394   22269893.7524
        54.0004         45.0004
  20229896.5014   14505970.80444  11306013.62342  20229898.2134   20229893.0764
        57.0004         50.0004
  23138881.5294   23831927.83943  18568444.29742  23138882.7344   23138879.6314
        48.0004         41.0004
  22688898.7544   26078715.37643  20318339.87742  22688901.7034   22688898.2864
        52.0004         43.0004
  22668703.5794   11738838.88043   9153095.04742  22668705.9284   22668701.1474
        50.0004         43.0004
  23028180.9414    7310074.63343   5687993.96242  23028182.4714   23028179.9124
        49.0004         42.0004
  22426947.6004  -10368922.67043  -8065154.00642  22426948.4254   22426946.4694
        50.0004         43.0004
  24562749.4174   -5133486.24243  -3948234.42442  24562751.3514   24562747.0384
        45.0004         37.0004
 04  6 22 14 35  0.0000000  0  9G21G18G 6G17G30G29G10G26G16
  21539317.0034   11532113.18743   8989784.11942  21539318.9314   21539313.1654
        56.0004         47.0004
  22258932.2394  -12496273.19943  -9719453.27942  22258934.3304   22258929.4964
        54.0004         45.0004
  20229302.7174   14502850.82944  11303582.46242  20229304.5464   20229299.3124
        57.0004         50.0004
  23146978.8784   23874479.00543  18601601.00542  23146980.4854   23146976.4274
        49.0004         41.0004
  22701058.5104   26142614.06043  20368131.02042  22701061.4194   22701056.7214
        52.0004         43.0004
  22665062.2064   11719703.29843   9138184.20542  22665063.8424   22665059.9004
        50.0004         43.0004
  23040638.2604    7375538.55043   5739004.76442  23040639.6154   23040636.6034
        49.0004         42.0004
  22418965.6204  -10410870.22343  -8097840.40542  22418966.9414   22418963.5634
        50.0004         43.0004
  24553714.2054   -5180965.95343  -3985231.58242  24553717.6534   24553711.9034
        45.0004         37.0004
 04  6 22 14 35 20.0000000  0  9G21G18G 6G17G30G29G10G26G16
  21533833.4024   11503294.43643   8967327.94942  21533835.4614   21533829.0564
        56.0004         47.0004
  22247993.8494  -12553753.19643  -9764242.86642  22247995.7234   22247990.9184
        54.0004         45.0004
  20228746.1174   14499925.38044  11301302.88042  20228747.9024   20228742.8984
        57.0004         50.0004
  23155081.0284   23917058.77343  18634780.01042  23155083.1054   23155078.2844
        48.0004         41.0004
  22713233.0874   26206592.03443  20417983.94842  22713236.4164   22713230.3534
        52.0004         43.0004
  22661461.8734   11700785.54143   9123443.09242  22661464.8714   22661461.1284
        50.0004         43.0004
  23053113.4244    7441093.27943   5790086.32642  23053114.7264   23053111.1124
        49.0004         42.0004
  22411020.9264  -10452617.99743  -8130371.11842  22411023.4174   22411019.4844
        50.0004         43.0004
  24544712.6834   -5228269.12043  -4022091.17842  24544713.8844   24544710.3744
        45.0004         37.0004
 04  6 22 14 35 40.0000000  0  9G21G18G 6G17G30G29G10G26G16
  21528363.0654   11474548.12043   8944928.21642  21528364.8414   21528358.2404
        56.0004         47.0004
  22237082.5164  -12611093.73243  -9808923.79142  22237084.1184   22237079.3254
        54.0004         45.0004
  20228226.2754   14497193.43044  11299174.07842  20228228.3234   20228223.0044
        57.0004         50.0004
  23163189.5854   23959665.87843  18667980.29442  23163190.4654   23163188.5964
        48.0004         41.0004
  22725422.4684   26270647.18643  20467897.00942  22725426.0294   22725420.9624
        52.0004         43.0004
  22657903.7774   11682084.78843   9108871.07142  22657904.8524   22657901.5144
        50.0004         43.0004
  23065604.7344    7506736.70443   5841237.00742  23065606.3514   23065601.0454
        50.0004         42.0004
  22403114.5114  -10494166.24243  -8162746.35942  22403115.9564   22403111.4604
        50.0004         43.0004
  24535744.3274   -5275396.21943  -4058813.58942  24535746.6594   24535740.8104
        44.0004         37.0004
 04  6 22 14 36  0.0000000  0  9G21G18G 6G17G30G29G10G26G16
  21522906.5964   11445874.71743   8922585.30142  21522908.8204   21522902.3384
        56.0004         47.0004
  22226197.6154  -12668293.65343  -9853495.13942  22226200.0504   22226194.9024
        54.0004         46.0004
  20227743.2224   14494655.59444  11297196.53742  20227745.4334   20227739.9814
        57.0004         50.0004
  23171302.3654   24002300.83143  18701202.28542  23171303.2984   23171302.1254
        47.0004         41.0004
  22737626.2524   26334779.16343  20517869.92442  22737628.5324   22737623.6914
        52.0004         43.0004
  22654386.9954   11663602.24943   9094469.08442  22654387.6704   22654384.6954
        51.0004         43.0004
  23078112.9644    7572468.70843   5892456.70242  23078113.3064   23078112.3624
        49.0004         42.0004
  22395246.1574  -10535513.44643  -8194964.94642  22395249.9824   22395244.8264
        50.0004         42.0004
  24526810.4354   -5322346.02343  -4095397.84942  24526811.5244   24526806.9444
        45.0004         37.0004
 04  6 22 14 36 20.0000000  0  9G21G18G 6G17G30G29G10G26G16
  21517463.6704   11417271.69643   8900297.23542  21517465.4284   21517459.4414
        56.0004         47.0004
  22215339.2964  -12725355.17643  -9897958.65542  22215341.1974   22215336.0154
        54.0004         46.0004
  20227296.8654   14492309.93144  11295368.73842  20227299.0404   20227293.6274
        57.0004         50.0004
  23179419.8574   24044961.03643  18734443.97942  23179422.9864   23179419.6084
        47.0004         41.0004
  22749844.5804   26398984.57943  20567900.07342  22749847.7844   22749841.7724
        52.0004         43.0004
  22650910.7804   11645335.85343   9080235.51842  22650912.3524   22650908.5764
        51.0004         43.0004
  23090638.0254    7638286.05743   5943742.90542  23090639.3274   23090635.9434
        49.0004         42.0004
  22387416.0484  -10576661.22643  -8227028.11042  22387419.2254   22387413.7794
        50.0004         43.0004
  24517909.7014   -5369120.51843  -4131845.48742  24517911.2214   24517908.2084
        44.0004         37.0004
 04  6 22 14 36 40.0000000  0  9G21G18G 6G17G30G29G10G26G16
  21512035.0444   11388744.52743   8878068.26942  21512036.7374   21512030.6744
        56.0004         47.0004
  22204508.5654  -12782272.39743  -9942309.71742  22204510.5814   22204504.8724
        54.0004         46.0004
  20226888.2034   14490162.54144  11293695.43742  20226890.1534   20226885.0034
        57.0004         50.0004
  23187544.1364   24087651.79443  18767709.45142  23187545.7994   23187541.5594
        47.0004         41.0004
  22762076.9994   26463267.89243  20617990.92742  22762079.7214   22762074.6964
        51.0004         43.0004
  22647476.5674   11627291.66143   9066175.12242  22647478.8284   22647475.3814
        50.0004         43.0004
  23103179.5074    7704193.41643   5995099.25942  23103181.3824   23103178.6774
        49.0004         42.0004
  22379624.6604  -10617603.11143  -8258930.87142  22379627.5064   22379623.8604
        50.0004         43.0004
  24509042.7694   -5415713.65843  -4168151.82442  24509045.7934   24509041.1004
        44.0004         37.0004
 04  6 22 14 37  0.0000000  0  9G21G18G 6G17G30G29G10G26G16
  21506619.9864   11360287.34243   8855893.83242  21506621.4554   21506615.4064
        56.0004         47.0004
  22193703.6574  -12839050.52243  -9986552.39542  22193705.5724   22193700.3684
        54.0004         45.0004
  20226516.2334   14488207.78944  11292172.24842  20226518.4544   20226513.1914
        57.0004         50.0004
  23195673.2914   24130367.43943  18800994.33742  23195673.6714   23195671.1594
        48.0004         41.0004
  22774323.0624   26527622.50643  20668137.33942  22774324.7284   22774322.4174
        51.0004         43.0004
  22644084.3884   11609464.25943   9052283.63242  22644086.1684   22644081.3054
        51.0004         43.0004
  23115737.0334    7770184.15243   6046520.57542  23115737.9114   23115735.5314
        49.0004         42.0004
  22371872.6214  -10658344.05143  -8290677.03542  22371874.4834   22371869.8054
        50.0004         43.0004
  24500210.0154   -5462130.55543  -4204320.83342  24500211.3584   24500207.0534
        44.0004         37.0004
 04  6 22 14 37 20.0000000  0  9G21G18G 6G17G30G29G10G26G16
  21501218.9114   11331904.89243   8833777.63642  21501220.6194   21501214.3724
        56.0004         47.0004
  22182926.7674  -12895684.05143 -10030682.40442  22182929.1154   22182922.9584
        54.0004         46.0004
  20226181.9314   14486450.62844  11290803.01942  20226183.8574   20226178.6834
        57.0004         50.0004
  23203807.0604   24173112.52143  18834302.15142  23203809.5224   23203805.8304
        48.0004         41.0004
  22786583.6584   26592052.26243  20718342.28642  22786585.1364   22786582.8884
        51.0004         42.0004
  22640733.9264   11591858.93043   9038565.18242  22640735.4644   22640732.8084
        51.0004         43.0004
  23128311.8654    7836262.19843   6098009.92542  23128313.6794   23128309.1434
        49.0004         42.0004
  22364158.9294  -10698878.35943  -8322262.19742  22364160.9134   22364157.8034
        50.0004         43.0004
  24491412.2684   -5508365.93943  -4240348.40842  24491412.4644   24491407.6964
        44.0004         37.0004
 04  6 22 14 37 40.0000000  0  9G21G18G 6G17G30G29G10G26G16
  21495831.3604   11303594.75243   8811717.78442  21495833.3464   21495827.5454
        56.0004         47.0004
  22172176.5264  -12952175.08243 -10074701.38042  22172178.8994   22172173.5734
        54.0004         46.0004
  20225884.9374   14484889.14144  11289586.27042  20225886.8034   20225881.6904
        57.0004         50.0004
  23211945.8934   24215884.58443  18867630.98442  23211947.3194   23211945.7264
        48.0004         41.0004
  22798858.1104   26656553.83443  20768603.19942  22798860.8444   22798855.2134
        50.0004         43.0004
  22637425.1384   11574473.71143   9025018.25642  22637427.4374   22637423.9014
        50.0004         43.0004
  23140902.3894    7902424.33843   6149564.80442  23140902.0964   23140899.5764
        49.0004         42.0004
  22356484.7334  -10739207.47243  -8353687.44942  22356485.9044   22356482.5284
        50.0004         43.0004
  24482647.7464   -5554421.49343  -4276235.85042  24482649.8214   24482645.7304
        44.0004         37.0004
 04  6 22 14 38  0.0000000  0  9G21G18G 6G17G30G29G10G26G16
  21490458.0664   11275356.85343   8789714.23042  21490459.5924   21490453.2174
        56.0004         47.0004
  22161454.0694  -13008523.13443 -10118608.93942  22161455.9814   22161451.2944
        54.0004         46.0004
  20225624.8874   14483523.56744  11288522.17342  20225626.8614   20225621.5864
        57.0004         50.0004
  23220090.7854   24258683.60443  18900980.82842  23220090.1074   23220089.2604
        47.0004         40.0004
  22811145.7734   26721126.32843  20818919.37842  22811147.6144   22811143.2624
        51.0004         42.0004
  22634159.3074   11557309.19643   9011643.30142  22634162.3644   22634158.0074
        50.0004         43.0004
  23153508.0264    7968669.81543   6201184.61742  23153510.0814   23153504.2514
        49.0004         42.0004
  22348849.3544  -10779330.47443  -8384952.10742  22348852.4134   22348848.1584
        51.0004         43.0004
  24473918.2114   -5600296.54743  -4311982.64142  24473920.1284   24473916.7264
        44.0004         37.0004
 04  6 22 14 38 20.0000000  0  9G21G18G 6G17G30G29G10G26G16
  21485098.5804   11247191.45943   8767767.17242  21485100.3734   21485093.7514
        56.0004         47.0004
  22150758.7434  -13064727.51843 -10162404.54242  22150761.1044   22150755.5244
        54.0004         46.0004
  20225402.4994   14482354.39644  11287611.12142  20225404.5164   20225399.1994
        57.0004         50.0004
  23228240.0334   24301509.72543  18934351.79542  23228242.7294   23228238.2724
        47.0004         40.0004
  22823447.2624   26785769.05343  20869290.27742  22823449.6534   22823444.9094
        51.0004         43.0004
  22630934.9284   11540366.03743   8998440.82942  22630936.2264   22630934.6934
        50.0004         43.0004
  23166129.8134    8034997.82943   6252868.74242  23166129.6654   23166128.2064
        49.0004         42.0004
  22341253.6604  -10819246.29343  -8416055.32942  22341254.5634   22341251.3834
        50.0004         43.0004
  24465222.4474   -5645990.49243  -4347588.29642  24465225.8484   24465219.3454
        43.0004         37.0004
 04  6 22 14 38 40.0000000  0  9G21G18G 6G17G30G29G10G26G16
  21479752.3264   11219098.62943   8745876.65442  21479754.2464   21479748.4514
        56.0004         47.0004
  22140091.0404  -13120787.71643 -10206087.79442  22140092.9444   22140087.5454
        54.0004         46.0004
  20225217.3184   14481381.96444  11286853.37342  20225219.0584   20225214.1634
        58.0004         50.0004
  23236394.3924   24344362.87343  18967743.80242  23236395.9144   23236393.3824
        47.0004         40.0004
  22835761.4864   26850481.14743  20919715.24142  22835764.1224   22835759.3894
        51.0004         43.0004
  22627753.5934   11523644.78443   8985411.27242  22627755.3754   22627752.7154
        51.0004         43.0004
  23178766.8854    8101407.69943   6304616.66542  23178767.8684   23178763.9484
        49.0004         42.0004
  22333697.4294  -10858954.00443  -8446996.37742  22333700.1724   22333695.4824
        50.0004         43.0004
  24456561.5844   -5691502.56543  -4383052.23742  24456562.8734   24456557.3534
        43.0004         37.0004
 04  6 22 14 39  0.0000000  0  9G21G18G 6G17G30G29G10G26G16
  21474420.1644   11191077.26343   8724041.82442  21474422.2464   21474416.0634
        56.0004         47.0004
  22129450.1564  -13176704.31543 -10249659.15742  22129452.3244   22129447.1454
        54.0004         46.0004
  20225069.6184   14480605.94044  11286248.66842  20225071.5874   20225066.7114
        57.0004         50.0004
  23244553.9544   24387242.15443  19001156.18042  23244555.2404   23244553.0944
        46.0004         40.0004
  22848088.6004   26915260.94243  20970192.96042  22848091.2374   22848087.3664
        51.0004         43.0004
  22624613.6264   11507145.10343   8972554.37542  22624615.6684   22624611.4374
        51.0004         43.0004
  23191419.6594    8167897.80643   6356427.08142  23191421.4234   23191418.4934
        48.0004         42.0004
  22326181.0074  -10898453.42143  -8477775.12742  22326182.7074   22326178.7644
        50.0004         43.0004
  24447935.4494   -5736833.00343  -4418374.64642  24447936.9784   24447934.0624
        43.0004         37.0004
 04  6 22 14 39 20.0000000  0  9G21G18G 6G17G30G29G10G26G16
  21469102.2484   11163131.26743   8702265.72442  21469104.1274   21469097.7054
        56.0004         47.0004
  22118837.7024  -13232472.97743 -10293115.23842  22118839.5374   22118834.9024
        54.0004         46.0004
  20224960.2354   14480030.36144  11285800.15842  20224962.1914   20224956.9814
        57.0004         50.0004
  23252719.1394   24430151.45943  19034591.94742  23252720.4304   23252717.5124
        47.0004         40.0004
  22860429.1064   26980111.16543  21020725.56342  22860431.0924   22860427.0794
        50.0004         43.0004
  22621516.9954   11490871.24143   8959873.43142  22621519.0744   22621515.4904
        50.0004         43.0004
  23204088.4224    8234471.15943   6408302.37442  23204088.2254   23204084.6894
        48.0004         42.0004
  22318704.9914  -10937739.89343  -8508387.95142  22318706.7274   22318703.4904
        50.0004         43.0004
  24439345.7094   -5781977.38743  -4453552.08742  24439346.6004   24439340.6564
        44.0004         37.0004
 04  6 22 14 39 40.0000000  0  9G21G18G 6G17G30G29G10G26G16
  21463797.7074   11135254.56743   8680543.62042  21463799.3684   21463793.0534
        56.0004         47.0004
  22108252.7254  -13288098.74143 -10336459.97642  22108254.6334   22108249.7324
        54.0004         46.0004
  20224887.7674   14479649.29844  11285503.21342  20224889.4874   20224884.4154
        57.0004         50.0004
  23260890.1204   24473084.56343  19068046.28242  23260891.2934   23260887.3544
        48.0004         41.0004
  22872782.0884   27045025.12743  21071307.82942  22872783.9474   22872780.7954
        51.0004         43.0004
  22618461.6414   11474817.70843   8947364.18342  22618464.7984   22618460.1314
        50.0004         43.0004
  23216771.3974    8301120.88843   6460237.19742  23216773.7434   23216770.5334
        48.0004         41.0004
  22311268.5214  -10976818.61143  -8538838.88142  22311270.5464   22311265.6594
        50.0004         43.0004
  24430789.6254   -5826941.28143  -4488588.86442  24430791.5344   24430785.9104
        43.0004         37.0004
 04  6 22 14 40  0.0000000  0  9G21G18G 6G17G30G29G10G26G16
  21458507.2514   11107452.59043   8658879.74142  21458509.2284   21458502.7194
        56.0004         48.0004
  22097695.4754  -13343575.84743 -10379688.87742  22097697.5154   22097692.7084
        54.0004         46.0004
  20224853.4424   14479468.92844  11285362.65642  20224855.7064   20224850.1134
        57.0004         50.0004
  23269064.5864   24516046.96043  19101523.42342  23269065.9894   23269064.0904
        48.0004         41.0004
  22885147.4874   27110007.23243  21121943.17842  22885149.7304   22885145.8834
        51.0004         43.0004
  22615449.4584   11458990.27643   8935031.10542  22615452.1234   22615449.1314
        50.0004         43.0004
  23229469.6554    8367851.69843   6512235.19042  23229471.2034   23229466.3764
        48.0004         41.0004
  22303872.8314  -11015682.97243  -8569122.78442  22303874.6954   22303870.4094
        50.0004         43.0004
  24422267.6944   -5871718.40143  -4523480.12142  24422269.2554   24422265.8564
        43.0004         37.0004
 04  6 22 14 40 20.0000000  0  9G21G18G 6G17G30G29G10G26G16
  21453229.7914   11079720.68143   8637270.45942  21453231.7304   21453225.2284
        56.0004         48.0004
  22087165.8554  -13398908.66843 -10422805.34942  22087168.1134   22087163.1304
        54.0004         46.0004
  20224856.4704   14479484.70044  11285374.93242  20224858.2284   20224853.1244
        57.0004         50.0004
  23277245.2804   24559033.88843  19135019.69942  23277247.1384   23277244.6494
        48.0004         41.0004
  22897525.2864   27175051.99243  21172627.35842  22897528.2064   22897523.0644
        50.0004         43.0004
  22612480.2874   11443384.93643   8922871.11442  22612483.2904   22612478.7764
        50.0004         43.0004
  23242182.9074    8434658.18043   6564292.15342  23242184.6734   23242180.2124
        49.0004         42.0004
  22296516.9384  -11054336.89643  -8599242.71042  22296519.5124   22296515.1914
        50.0004         43.0004
  24413781.8194   -5916312.96843  -4558229.12642  24413784.0534   24413779.5144
        44.0004         37.0004
 04  6 22 14 40 40.0000000  0  9G21G18G 6G17G30G29G10G26G16
  21447966.6574   11052062.06043   8615718.28542  21447968.2614   21447962.3144
        56.0004         48.0004
  22076664.5064  -13454093.22443 -10465806.28842  22076666.6944   22076662.0534
        54.0004         45.0004
  20224897.4494   14479700.30944  11285542.93542  20224899.3454   20224894.2214
        57.0004         50.0004
  23285430.5124   24602048.59243  19168537.59442  23285431.8714   23285430.0924
        48.0004         41.0004
  22909915.2984   27240161.88843  21223362.28642  22909918.2844   22909913.4204
        51.0004         43.0004
  22609554.0224   11428005.40343   8910887.07142  22609557.1094   22609551.4354
        51.0004         43.0004
  23254910.5594    8501542.95843   6616410.12642  23254911.4174   23254908.7894
        48.0004         42.0004
  22289202.8284  -11092776.13743  -8629195.36542  22289205.5384   22289201.3314
        51.0004         43.0004
  24405332.3294   -5960720.88343  -4592832.67842  24405333.6544   24405328.2994
        44.0004         37.0004
 04  6 22 14 41  0.0000000  0  9G21G18G 6G17G30G29G10G26G16
  21442717.2034   11024475.71443   8594222.42942  21442719.1024   21442712.5544
        56.0004         48.0004
  22066191.6444  -13509130.23743 -10508692.25942  22066193.9024   22066188.4074
        54.0004         46.0004
  20224976.1724   14480114.90744  11285865.98542  20224978.4344   20224973.1454
        57.0004         50.0004
  23293621.1264   24645090.06143  19202076.34642  23293623.2814   23293620.3104
        48.0004         41.0004
  22922317.4454   27305334.89443  21274146.38042  22922319.8104   22922314.8574
        50.0004         43.0004
  22606670.1634   11412851.01143   8899078.44642  22606672.6004   22606668.2294
        50.0004         43.0004
  23267652.9304    8568504.06243   6668587.56142  23267655.2314   23267651.1464
        48.0004         42.0004
  22281929.0094  -11131000.91143  -8658980.88742  22281931.4894   22281926.4814
        51.0004         43.0004
  24396916.3774   -6004942.88643  -4627291.37142  24396917.6464   24396912.9674
        44.0004         37.0004
 04  6 22 14 41 20.0000000  0  9G21G18G 6G17G30G29G10G26G16
  21437481.3234   10996961.85343   8572783.05542  21437483.2194   21437477.3494
        56.0004         48.0004
  22055746.3314  -13564019.07243 -10551462.76542  22055748.1974   22055742.7814
        54.0004         46.0004
  20225093.3344   14480729.23644  11286344.67042  20225095.1534   20225089.9634
        57.0004         50.0004
  23301817.2004   24688158.47543  19235636.09442  23301817.8424   23301814.0554
        48.0004         41.0004
  22934731.2874   27370570.43143  21324979.21642  22934734.7744   22934729.6434
        50.0004         43.0004
  22603829.2654   11397922.61043   8887445.93542  22603830.6994   22603828.0524
        51.0004         43.0004
  23280409.8054    8635541.37443   6720824.38642  23280410.9714   23280407.5414
        48.0004         42.0004
  22274695.9614  -11169009.84843  -8688598.23042  22274697.3554   22274694.2074
        51.0004         43.0004
  24388536.8144   -6048977.94543  -4661604.38142  24388538.8064   24388535.7674
        44.0004         38.0004
 04  6 22 14 41 40.0000000  0  9G21G18G 6G17G30G29G10G26G16
  21432259.5614   10969520.83943   8551400.44542  21432261.4314   21432255.0244
        56.0004         47.0004
  22045329.8794  -13618758.81643 -10594117.10942  22045331.7534   22045326.5064
        54.0004         46.0004
  20225248.2074   14481543.75744  11286979.35042  20225249.9994   20225244.9264
        57.0004         50.0004
  23310017.9134   24731254.04043  19269217.00442  23310020.3274   23310016.4744
        48.0004         41.0004
  22947157.1664   27435867.93843  21375860.33642  22947159.9744   22947154.8464
        50.0004         43.0004
  22601031.9974   11383220.86143   8875990.02742  22601034.8264   22601030.1544
        50.0004         43.0004
  23293180.8224    8702653.98043   6773119.88542  23293181.9144   23293178.9574
        48.0004         42.0004
  22267503.9834  -11206802.08843  -8718046.72642  22267506.8114   22267502.4764
        51.0004         43.0004
  24380192.6414   -6092825.35143  -4695771.18242  24380195.0964   24380188.9834
        44.0004         38.0004
 04  6 22 14 42  0.0000000  0  9G21G18G 6G17G30G29G10G26G16
  21427050.9624   10942150.76143   8530073.11142  21427053.0664   21427046.6504
        56.0004         48.0004
  22034941.3344  -13673350.96743 -10636656.43242  22034943.8814   22034938.3494
        54.0004         46.0004
  20225441.0944   14482557.01944  11287768.89642  20225442.9574   20225438.0654
        57.0004         50.0004
  23318223.7854   24774374.94843  19302817.66242  23318224.7474   23318221.5164
        48.0004         40.0004
  22959594.1564   27501224.62943  21426787.57642  22959595.9894   22959592.1594
        50.0004         43.0004
  22598276.9144   11368744.49743   8864709.75242  22598279.1884   22598274.4864
        50.0004         43.0004
  23305966.5884    8769839.38043   6825472.10542  23305968.5624   23305964.3054
        48.0004         42.0004
  22260353.7834  -11244378.26543  -8747326.85542  22260356.1734   22260351.8694
        51.0004         43.0004
  24371884.0214   -6136486.18343  -4729792.60842  24371885.0574   24371881.3264
        44.0004         38.0004
 04  6 22 14 42 20.0000000  0  9G21G18G 6G17G30G29G10G26G16
  21421856.2064   10914852.73943   8508801.92742  21421858.4284   21421851.6684
        56.0004         48.0004
  22024581.0754  -13727794.01743 -10679079.57642  22024583.1044   22024577.6154
        54.0004         46.0004
  20225672.0204   14483770.25144  11288714.26042  20225674.1084   20225668.9014
        57.0004         50.0004
  23326434.9044   24817522.23243  19336438.88742  23326435.2124   23326432.6214
        48.0004         41.0004
  22972042.7604   27566640.56443  21477760.97842  22972044.4954   22972040.0944
        50.0004         42.0004
  22595565.1594   11354494.88543   8853606.16142  22595567.7184   22595563.2504
        51.0004         43.0004
  23318765.0744    8837097.77943   6877881.20342  23318767.0724   23318762.8234
        49.0004         42.0004
  22253244.5724  -11281736.63443  -8776437.27742  22253247.3354   22253242.6294
        50.0004         43.0004
  24363612.2114   -6179958.80343  -4763667.36142  24363614.2724   24363609.6384
        44.0004         38.0004
 04  6 22 14 42 40.0000000  0  9G21G18G 6G17G30G29G10G26G16
  21416675.9424   10887629.03843   8487588.64942  21416677.8964   21416670.9204
        56.0004         48.0004
  22014249.8504  -13782084.71943 -10721384.00742  22014251.8144   22014246.9674
        54.0004         46.0004
  20225941.4904   14485186.39544  11289817.73542  20225943.2864   20225938.2134
        57.0004         50.0004
  23334650.3624   24860698.26443  19370082.49042  23334652.3834   23334648.6054
        47.0004         41.0004
  22984502.0384   27632117.44743  21528781.86542  22984506.2174   22984499.7354
        50.0004         42.0004
  22592897.4174   11340475.05343   8842681.62342  22592899.8704   22592895.8394
        50.0004         43.0004
  23331577.6494    8904430.87243   6930348.50442  23331578.6204   23331574.9424
        48.0004         41.0004
  22246177.5694  -11318873.66543  -8805375.20942  22246180.4074   22246176.6224
        51.0004         43.0004
  24355375.7444   -6223240.17443  -4797393.08642  24355377.8424   24355372.6864
        45.0004         38.0004
 04  6 22 14 43  0.0000000  0  9G21G18G 6G17G30G29G10G26G16
  21411509.1424   10860476.37443   8466430.72542  21411510.9224   21411504.1214
        56.0004         47.0004
  22003947.1814  -13836225.89843 -10763571.92842  22003948.7604   22003944.1904
        54.0004         46.0004
  20226249.0034   14486802.41544  11291076.96042  20226251.0654   20226245.7764
        57.0004         50.0004
  23342871.9334   24903899.76543  19403745.93342  23342873.8534   23342869.4574
        48.0004         40.0004
  22996973.2174   27697651.20743  21579847.08942  22996976.5154   22996969.9694
        51.0004         42.0004
  22590272.2414   11326682.03743   8831933.82942  22590274.5414   22590271.2184
        50.0004         43.0004
  23344404.2004    8971834.86943   6982871.05442  23344405.6694   23344400.2724
        48.0004         41.0004
  22239152.1094  -11355791.76643  -8834142.54842  22239153.4944   22239149.6184
        51.0004         43.0004
  24347175.9454   -6266332.86043  -4830971.78242  24347178.5894   24347173.1464
        45.0004         38.0004
 04  6 22 14 43 20.0000000  0  9G21G18G 6G17G30G29G10G26G16
  21406355.5554   10833394.84043   8445328.22542  21406357.0264   21406350.9854
        56.0004         47.0004
  21993672.9074  -13890217.46843 -10805643.26842  21993674.7324   21993670.4014
        54.0004         46.0004
  20226594.5874   14488618.46544  11292492.05142  20226596.5234   20226591.5824
        57.0004         50.0004
  23351097.4554   24947126.68343  19437429.19342  23351097.3814   23351094.2214
        48.0004         40.0004
  23009454.3574   27763240.87743  21630955.87742  23009456.5664   23009452.1594
        51.0004         42.0004
  22587690.9114   11313116.32043   8821363.14142  22587692.9354   22587689.1754
        50.0004         43.0004
  23357244.2194    9039308.70343   7035448.02242  23357245.2084   23357241.4214
        48.0004         41.0004
  22232169.1734  -11392490.33643  -8862738.83042  22232170.6274   22232166.6184
        51.0004         43.0004
  24339010.9404   -6309236.50043  -4864403.17242  24339013.4764   24339007.5274
        44.0004         38.0004
 04  6 22 14 43 40.0000000  0  9G21G18G 6G17G30G29G10G26G16
  21401215.9534   10806385.31143   8424281.83642  21401217.3184   21401211.0704
        56.0004         47.0004
  21983427.6814  -13944057.84543 -10847596.80242  21983429.4784   21983424.3784
        55.0004         46.0004
  20226978.4674   14490635.87044  11294064.04542  20226980.4774   20226975.3664
        57.0004         50.0004
  23359328.1634   24990379.83043  19471132.89542  23359330.7174   23359325.0954
        48.0004         40.0004
  23021946.3694   27828886.36043  21682108.15242  23021948.5534   23021946.3784
        51.0004         43.0004
  22585152.9154   11299779.19543   8810970.59142  22585154.8664   22585150.4714
        51.0004         43.0004
  23370097.8424    9106852.62743   7088079.59142  23370098.3684   23370095.7964
        48.0004         42.0004
  22225227.6754  -11428967.32743  -8891162.45442  22225229.7974   22225225.4254
        51.0004         43.0004
  24330882.9124   -6351949.51143  -4897686.02342  24330885.0034   24330879.6194
        44.0004         38.0004
 04  6 22 14 44  0.0000000  0  9G21G18G 6G17G30G29G10G26G16
  21396090.4084   10779450.85043   8403293.94242  21396092.1314   21396086.3834
        56.0004         47.0004
  21973211.6644  -13997743.67743 -10889429.91042  21973213.6344   21973208.1134
        55.0004         46.0004
  20227401.3614   14492857.90144  11295795.48042  20227403.1004   20227398.2524
        57.0004         50.0004
  23367564.3344   25033662.24943  19504859.39842  23367565.2974   23367561.3104
        47.0004         40.0004
  23034449.2134   27894589.79243  21733305.57442  23034451.1074   23034449.1354
        51.0004         42.0004
  22582659.5914   11286674.05843   8800758.80642  22582662.9914   22582657.8814
        51.0004         43.0004
  23382964.3244    9174468.88443   7140767.54542  23382965.0424   23382962.4034
        48.0004         41.0004
  22218329.2704  -11465218.98243  -8919410.49342  22218330.7314   22218327.3124
        51.0004         43.0004
  24322792.1814   -6394468.45743  -4930817.64842  24322794.0994   24322789.8014
        45.0004         38.0004
 04  6 22 14 44 20.0000000  0  9G21G18G 6G17G30G29G10G26G16
  21390978.5304   10752586.70543   8382360.84342  21390980.1394   21390973.8004
        56.0004         48.0004
  21963023.9394  -14051279.26743 -10931145.94042  21963025.8344   21963020.7594
        55.0004         46.0004
  20227862.2454   14495280.17944  11297682.95842  20227864.1944   20227859.0194
        57.0004         50.0004
  23375805.6134   25076969.25343  19538605.08642  23375807.4854   23375802.8894
        48.0004         40.0004
  23046962.3734   27960345.73943  21784543.90842  23046962.7894   23046960.9904
        51.0004         42.0004
  22580208.9564   11273796.82643   8790724.61142  22580211.7844   22580206.2114
        51.0004         43.0004
  23395843.8674    9242151.92343   7193507.53042  23395845.1994   23395842.1814
        49.0004         42.0004
  22211472.5594  -11501249.04943  -8947485.86242  22211474.8524   22211470.5174
        51.0004         43.0004
  24314737.8644   -6436797.36443  -4963801.20642  24314738.9474   24314734.5584
        46.0004         39.0004
 04  6 22 14 44 40.0000000  0 10G22G21G18G 6G17G30G29G10G26G16
  24615264.6544   -2681434.28453  -2078228.36852  24615265.0564   24615261.4474
        44.0004         37.0004
  21385877.4194   10725780.16243   8361472.62442  21385878.8914   21385872.7094
        56.0004         48.0004
  21952862.7734  -14104676.87043 -10972754.44642  21952865.0114   21952858.9194
        55.0004         46.0004
  20228358.9484   14497890.21144  11299716.73942  20228360.6074   20228355.7704
        57.0004         50.0004
  23384049.1614   25120287.95443  19572359.86842  23384049.0994   23384047.5444
        47.0004         40.0004
  23059482.8844   28026140.50043  21835812.50342  23059485.5574   23059481.6094
        51.0004         42.0004
  22577799.3774   11261134.95743   8780858.22642  22577801.8154   22577796.2704
        50.0004         43.0004
  23408734.2884    9309888.34443   7246289.12842  23408734.5244   23408730.4514
        49.0004         42.0004
  22204656.4664  -11537069.44843  -8975397.85442  22204657.9894   22204654.2964
        51.0004         43.0004
  24306715.6654   -6478948.41843  -4996646.17042  24306717.5584   24306714.4954
        44.0004         38.0004
 04  6 22 14 45  0.0000000  0 10G22G21G18G 6G17G30G29G10G26G16
  24601875.3544   -2751799.57043  -2133058.41242  24601874.1064   24601870.9134
        45.0004         38.0004
  21380792.7874   10699061.42843   8340652.82642  21380794.8904   21380788.2304
        56.0004         48.0004
  21942733.7114  -14157905.74343 -11014231.48642  21942736.0934   21942730.2654
        55.0004         46.0004
  20228897.2844   14500718.48144  11301920.56642  20228899.1014   20228894.1214
        57.0004         50.0004
  23392300.8444   25163648.45343  19606147.23142  23392302.3524   23392299.5624
        47.0004         40.0004
  23072016.1614   28092003.40543  21887134.19142  23072018.7844   23072016.1074
        51.0004         42.0004
  22575436.9834   11248719.09843   8771183.54942  22575438.4344   22575433.6454
        50.0004         43.0004
  23421639.4484    9377707.55943   7299135.22742  23421639.8854   23421639.5374
        49.0004         42.0004
  22197885.4594  -11572649.07743  -9003122.23542  22197887.5094   22197883.0464
        51.0004         43.0004
  24298735.0244   -6520890.88543  -5029328.58942  24298735.9114   24298732.5484
        45.0004         38.0004
 04  6 22 14 45 20.0000000  0 10G22G21G18G 6G17G30G29G10G26G16
  24588494.6794   -2822106.59543  -2187843.05442  24588495.6374   24588491.4934
        44.0004         37.0004
  21375722.2074   10672415.58943   8319889.83042  21375724.0354   21375717.6534
        56.0004         48.0004
  21932633.7424  -14210980.46643 -11055588.40442  21932635.3754   21932629.8354
        55.0004         46.0004
  20229474.0914   14503750.27344  11304282.98942  20229476.1124   20229471.0144
        57.0004         50.0004
  23400556.9464   25207036.00843  19639955.65342  23400558.9674   23400553.8824
        47.0004         40.0004
  23084559.1844   28157918.74443  21938496.74342  23084561.0594   23084558.3754
        51.0004         42.0004
  22573117.9464   11236534.77343   8761689.27942  22573118.9124   22573116.0604
        51.0004         43.0004
  23434558.0454    9445593.78143   7352033.53742  23434558.4354   23434555.7954
        48.0004         41.0004
  22191158.0484  -11608002.20843  -9030670.11642  22191159.8994   22191155.7474
        50.0004         43.0004
  24290789.6944   -6562639.16243  -5061859.69642  24290792.7734   24290787.1904
        44.0004         38.0004
 04  6 22 14 45 40.0000000  0 10G22G21G18G 6G17G30G29G10G26G16
  24575128.0044   -2892356.90743  -2242583.49742  24575126.7714   24575124.6084
        45.0004         37.0004
  21370665.0114   10645840.46643   8299181.94342  21370667.1014   21370660.8694
        56.0004         48.0004
  21922562.9244  -14263902.48343 -11096826.32342  21922565.3274   21922559.1014
        55.0004         46.0004
  20230089.5414   14506984.03144  11306802.79042  20230091.4384   20230086.2684
        57.0004         50.0004
  23408817.8874   25250448.46143  19673783.49142  23408820.1704   23408817.6624
        47.0004         40.0004
  23097111.7724   28223883.47443  21989897.77242  23097114.5424   23097108.7974
        50.0004         42.0004
  22570843.1364   11224580.31943   8752374.14142  22570845.2794   22570841.5804
        50.0004         43.0004
  23447488.5744    9513544.32643   7404981.98542  23447489.4604   23447488.5524
        49.0004         41.0004
  22184473.8624  -11643129.79743  -9058042.26242  22184476.2604   22184471.1404
        51.0004         43.0004
  24282882.6424   -6604194.66543  -5094240.59842  24282885.8514   24282880.3904
        45.0004         38.0004
 04  6 22 14 46  0.0000000  0 10G22G21G18G 6G17G30G29G10G26G16
  24561769.1704   -2962549.40143  -2297278.89642  24561769.6744   24561766.7084
        45.0004         37.0004
  21365621.7194   10619336.63743   8278529.60042  21365623.7624   21365616.7814
        56.0004         48.0004
  21912521.5454  -14316670.95243 -11137944.59942  21912523.1824   21912518.0454
        55.0004         46.0004
  20230743.3764   14510420.23544  11309480.33842  20230745.4314   20230740.2104
        57.0004         50.0004
  23417083.9334   25293886.33043  19707631.12842  23417083.7434   23417083.2994
        46.0004         39.0004
  23109674.3244   28289897.21243  22041336.99842  23109676.1114   23109673.4004
        50.0004         42.0004
  22568612.6384   11212856.69243   8743238.85742  22568613.8304   22568610.7604
        51.0004         43.0004
  23460432.0804    9581558.80643   7457980.23942  23460431.6294   23460429.1454
        49.0004         41.0004
  22177832.7384  -11678030.60243  -9085237.68542  22177834.7204   22177829.2084
        51.0004         43.0004
  24275011.5684   -6645556.32943  -5126470.46142  24275014.7594   24275009.5544
        45.0004         39.0004
 04  6 22 14 46 20.0000000  0 10G22G21G18G 6G17G30G29G10G26G16
  24548424.5584   -3032683.24143  -2351928.60042  24548424.7404   24548421.9964
        45.0004         38.0004
  21360591.6544   10592904.32343   8257932.98742  21360593.7344   21360587.0894
        56.0004         48.0004
  21902509.2334  -14369285.02743 -11178942.56342  21902510.9344   21902506.1204
        55.0004         46.0004
  20231436.0484   14514059.70244  11312316.27442  20231437.6044   20231432.8804
        57.0004         50.0004
  23425354.7164   25337349.75343  19741498.68442  23425356.9774   23425354.9774
        46.0004         39.0004
  23122245.0484   28355959.41443  22092813.99342  23122247.9844   23122243.6544
        50.0004         42.0004
  22566425.6754   11201364.63143   8734284.02042  22566428.0474   22566422.5024
        51.0004         43.0004
  23473386.0534    9649636.87943   7511028.05142  23473387.7334   23473384.6244
        48.0004         41.0004
  22171234.5154  -11712703.34643  -9112255.38942  22171236.1654   22171233.7924
        51.0004         43.0004
  24267177.9404   -6686723.18443  -5158548.52842  24267180.3544   24267175.2024
        45.0004         38.0004
 04  6 22 14 46 40.0000000  0 10G22G21G18G 6G17G30G29G10G26G16
  24535089.5464   -3102755.15143  -2406530.02842  24535090.1784   24535086.2884
        45.0004         38.0004
  21355576.3084   10566546.18943   8237394.17842  21355577.5464   21355571.1984
        56.0004         48.0004
  21892527.0944  -14421741.57943 -11219817.79142  21892529.0144   21892523.7264
        55.0004         47.0004
  20232167.8464   14517905.35744  11315312.87442  20232169.9064   20232164.6734
        57.0004         50.0004
  23433631.3454   25380841.58343  19775388.35342  23433633.1404   23433629.6354
        47.0004         39.0004
  23134826.2634   28422071.92143  22144330.17042  23134828.1764   23134825.8354
        49.0004         42.0004
  22564283.5604   11190107.13043   8725511.94942  22564286.2234   22564280.2404
        50.0004         43.0004
  23486353.6834    9717780.51743   7564126.93342  23486353.9264   23486349.9374
        48.0004         41.0004
  22164680.3084  -11747144.56443  -9139092.69842  22164682.7724   22164678.6144
        51.0004         43.0004
  24259381.5204   -6727692.27243  -5190472.48942  24259382.9404   24259379.4144
        45.0004         38.0004
 04  6 22 14 47  0.0000000  0 11G22G21G18G 6G17G30G29G10G26G16G15
  24521766.4574   -3172769.98243  -2461086.97642  24521766.9194   24521762.8144
        46.0004         38.0004
  21350573.4274   10540256.79843   8216908.93342  21350575.2574   21350568.7454
        56.0004         48.0004
  21882574.2794  -14474045.46443 -11260574.05042  21882576.0754   21882570.8424
        55.0004         47.0004
  20232937.9224   14521952.04844  11318466.12942  20232940.2074   20232934.8484
        57.0004         50.0004
  23441911.6834   25424356.20343  19809295.79342  23441912.0524   23441909.8544
        46.0004         39.0004
  23147414.9624   28488228.55743  22195880.75642  23147416.2704   23147415.2594
        49.0004         41.0004
  22562184.7754   11179079.15043   8716918.73742  22562186.2034   22562183.2124
        51.0004         43.0004
  23499332.0454    9785983.53243   7617272.09342  23499333.3114   23499330.3254
        48.0004         41.0004
  22158169.3174  -11781358.78543  -9165753.10642  22158172.0154   22158167.5584
        51.0004         43.0004
  24251622.6774   -6768468.31643  -5222246.01342  24251624.8374   24251620.4954
        46.0004         39.0004
  24700577.0614   -3369109.04253  -2581341.89152  24700577.4944   24700576.4224
        44.0004         36.0004
 04  6 22 14 47 20.0000000  0 11G22G21G18G 6G17G30G29G10G26G16G15
  24508454.8454   -3242722.19243  -2515595.13142  24508455.1904   24508450.9254
        46.0004         38.0004
  21345584.8314   10514041.34143   8196481.30442  21345586.3254   21345580.0614
        56.0004         48.0004
  21872651.4194  -14526191.31843 -11301207.17142  21872653.3394   21872647.6494
        55.0004         47.0004
  20233747.2474   14526205.01544  11321780.11242  20233749.3324   20233744.2434
        57.0004         50.0004
  23450197.8244   25467898.79543  19843225.03342  23450198.0654   23450195.1444
        45.0004         39.0004
  23160013.7754   28554433.33943  22247468.85542  23160014.5924   23160012.2874
        49.0004         41.0004
  22560130.7704   11168286.23443   8708508.68142  22560133.3684   22560128.4244
        51.0004         43.0004
  23512322.7594    9854250.28343   7670466.92242  23512324.1374   23512320.6854
        48.0004         41.0004
  22151702.8624  -11815340.18943  -9192232.10842  22151704.6934   22151701.0294
        51.0004         43.0004
  24243900.6164   -6809045.66943  -5253864.74142  24243900.6644   24243898.1144
        45.0004         38.0004
  24690729.1604   -3420858.96143  -2621666.51842  24690729.3474   24690730.8424
        44.0004         36.0004
 04  6 22 14 47 40.0000000  0 11G22G21G18G 6G17G30G29G10G26G16G15
  24495155.5734   -3312612.21443  -2570054.81742  24495155.7084   24495153.4634
        46.0004         38.0004
  21340609.7314   10487898.82543   8176110.50542  21340611.2364   21340605.7184
        56.0004         48.0004
  21862757.9404  -14578179.82943 -11341717.69242  21862759.8484   21862754.6394
        55.0004         47.0004
  20234595.6084   14530663.46244  11325254.21242  20234597.7874   20234592.6854
        57.0004         50.0004
  23458488.9354   25511468.19043  19877175.16042  23458490.6874   23458487.4934
        46.0004         39.0004
  23172620.8454   28620684.37943  22299092.99242  23172622.6914   23172619.5704
        49.0004         41.0004
  22558121.7074   11157727.51743   8700281.11642  22558123.4754   22558119.5104
        51.0004         43.0004
  23525325.5634    9922578.80443   7723709.88342  23525327.0744   23525322.9914
        48.0004         40.0004
  22145280.8474  -11849089.06843  -9218529.91842  22145281.4554   22145278.7384
        51.0004         43.0004
  24236216.7144   -6849424.86043  -5285329.03642  24236217.3864   24236215.1464
        46.0004         38.0004
  24680886.6984   -3472587.33343  -2661974.30642  24680887.2064   24680883.7634
        46.0004         36.0004
 04  6 22 14 48  0.0000000  0 11G22G21G18G 6G17G30G29G10G26G16G15
  24481867.0004   -3382442.37343  -2624467.86442  24481868.3524   24481863.4864
        46.0004         38.0004
  21335648.3394   10461826.12843   8155794.11242  21335650.3434   21335644.5304
        56.0004         48.0004
  21852894.4284  -14630013.46943 -11382107.52442  21852895.8784   21852890.8624
        55.0004         47.0004
  20235482.7354   14535324.70644  11328886.33742  20235484.6584   20235479.5594
        57.0004         50.0004
  23466784.3654   25555061.49943  19911143.91342  23466784.9284   23466782.3974
        47.0004         39.0004
  23185236.1704   28686977.74543  22350750.09242  23185238.0464   23185235.1404
        49.0004         41.0004
  22556156.6544   11147400.67443   8692234.24042  22556157.8394   22556154.4984
        51.0004         43.0004
  23538338.9484    9990965.43043   7776998.11542  23538337.8284   23538336.6764
        47.0004         40.0004
  22138902.3554  -11882607.34143  -9244648.02942  22138904.5554   22138901.0334
        51.0004         43.0004
  24228569.5974   -6889608.27243  -5316640.79442  24228571.2784   24228567.9374
        45.0004         38.0004
  24671045.9614   -3524297.42043  -2702267.92942  24671048.0854   24671047.8954
        45.0004         36.0004
 04  6 22 14 48 20.0000000  0 11G22G21G18G 6G17G30G29G10G26G16G15
  24468590.2324   -3452208.85943  -2678831.29942  24468591.4214   24468586.1604
        47.0004         38.0004
  21330701.0284   10435826.97143   8135535.02442  21330702.5724   21330696.5444
        56.0004         48.0004
  21843060.9774  -14681688.28643 -11422373.60242  21843063.0664   21843057.8364
        55.0004         47.0004
  20236408.9794   14540192.44044  11332679.36342  20236410.8754   20236405.6924
        57.0004         50.0004
  23475084.8074   25598682.05343  19945133.91242  23475085.9334   23475084.0404
        46.0004         39.0004
  23197859.4734   28753316.09243  22402442.26342  23197861.4304   23197858.0244
        48.0004         41.0004
  22554236.1534   11137309.27043   8684370.82242  22554237.6054   22554232.9444
        50.0004         43.0004
  23551364.4814   10059412.96743   7830333.80642  23551366.3694   23551362.6924
        47.0004         40.0004
  22132569.1544  -11915890.92243  -9270583.25942  22132570.3914   22132566.7554
        51.0004         43.0004
  24220961.1264   -6929591.96043  -5347796.91542  24220962.2694   24220957.3344
        45.0004         38.0004
  24661210.8394   -3575985.50643  -2742544.36142  24661211.9544   24661208.0434
        46.0004         37.0004
 04  6 22 14 48 40.0000000  0 11G22G21G18G 6G17G30G29G10G26G16G15
  24455326.6494   -3521912.17043  -2733145.52242  24455327.0954   24455323.2274
        47.0004         38.0004
  21325767.0534   10409899.68343   8115331.93542  21325768.9614   21325763.2274
        56.0004         48.0004
  21833257.6894  -14733205.29843 -11462516.71942  21833259.5224   21833254.5204
        55.0004         47.0004
  20237374.4074   14545265.76444  11336632.58642  20237376.6794   20237371.2024
        57.0004         50.0004
  23483391.3364   25642328.66643  19979144.19842  23483392.4324   23483388.9554
        46.0004         39.0004
  23210491.8044   28819697.37943  22454167.88742  23210495.4434   23210490.9774
        48.0004         41.0004
  22552360.3514   11127452.46443   8676690.21042  22552363.1224   22552358.9334
        51.0004         43.0004
  23564400.4644   10127919.39743   7883715.40042  23564402.8004   23564397.7544
        47.0004         40.0004
  22126280.0884  -11948940.06543  -9296335.80742  22126282.6134   22126278.1334
        51.0004         43.0004
  24213390.5364   -6969376.72443  -5378798.03342  24213392.7874   24213387.0684
        45.0004         38.0004
  24651377.5694   -3627653.14643  -2782804.90442  24651382.0084   24651376.9154
        46.0004         36.0004
 04  6 22 14 49  0.0000000  0 11G22G21G18G 6G17G30G29G10G26G16G15
  24442074.8064   -3591550.82643  -2787409.36942  24442074.1894   24442069.5134
        47.0004         37.0004
  21320847.4274   10384045.48943   8095185.80042  21320848.9764   21320843.0094
        56.0004         48.0004
  21823484.4914  -14784562.99343 -11502535.69042  21823486.6454   21823481.4474
        55.0004         47.0004
  20238379.2294   14550546.02744  11340747.05942  20238381.2934   20238376.0234
        57.0004         50.0004
  23491700.3714   25686002.31543  20013175.55542  23491700.6484   23491701.1334
        46.0004         39.0004
  23223131.6174   28886121.73543  22505927.07442  23223135.7754   23223131.5014
        48.0004         41.0004
  22550530.1324   11117831.85843   8669193.64342  22550532.1504   22550528.5304
        51.0004         43.0004
  23577448.6574   10196484.87743   7937143.00242  23577449.3344   23577447.5474
        48.0004         40.0004
  22120036.0434  -11981753.01943  -9321904.31542  22120037.9534   22120034.0374
        52.0004         43.0004
  24205857.4524   -7008960.92543  -5409642.87242  24205858.4404   24205854.8014
        45.0004         38.0004
  24641551.0084   -3679299.38043  -2823048.83242  24641552.4754   24641550.2344
        45.0004         35.0004
 04  6 22 14 49 20.0000000  0 11G22G21G18G 6G17G30G29G10G26G16G15
  24428835.2124   -3661127.82043  -2841625.17942  24428834.1414   24428827.8884
        47.0004         37.0004
  21315940.7094   10358260.81143   8075093.83642  21315942.2054   21315936.0694
        56.0004         48.0004
  21813741.1274  -14835764.59843 -11542433.02842  21813743.0934   21813737.8284
        55.0004         47.0004
  20239422.5884   14556029.64244  11345019.99442  20239424.7314   20239419.6204
        57.0004         50.0004
  23500016.6174   25729699.26943  20047225.07442  23500017.7494   23500014.5074
        46.0004         39.0004
  23235779.2964   28952584.62743  22557716.29842  23235781.6044   23235777.5804
        49.0004         41.0004
  22548742.8424   11108443.99243   8661878.43142  22548744.7664   22548740.6284
        50.0004         43.0004
  23590505.5674   10265105.17543   7990613.33242  23590507.6974   23590506.0084
        47.0004         39.0004
  22113836.3974  -12014332.70443  -9347291.05342  22113839.1684   22113834.5364
        52.0004         44.0004
  24198363.8744   -7048347.69843  -5440333.85942  24198365.1364   24198359.5434
        46.0004         38.0004
  24631725.6334   -3730927.58443  -2863278.57442  24631726.3054   24631724.1884
        45.0004         36.0004
 04  6 22 14 49 40.0000000  0 11G22G21G18G 6G17G30G29G10G26G16G15
  24415607.2294   -3730636.84943  -2895787.98042  24415607.2414   24415600.9624
        46.0004         37.0004
  21311048.4034   10332551.29643   8055060.44042  21311050.1374   21311043.7044
        56.0004         48.0004
  21804028.8084  -14886804.01543 -11582203.98742  21804031.0964   21804025.1164
        55.0004         47.0004
  20240505.9084   14561722.46644  11349455.94242  20240507.7314   20240502.8334
        57.0004         50.0004
  23508336.9824   25773425.39943  20081297.32742  23508339.4494   23508336.7684
        46.0004         39.0004
  23248434.7974   29019090.82343  22609539.25942  23248438.6794   23248435.2344
        48.0004         41.0004
  22547002.1944   11099295.01643   8654749.36942  22547004.4244   22546999.6854
        51.0004         43.0004
  23603575.5404   10333785.35543   8044130.30342  23603577.6244   23603574.3864
        46.0004         39.0004
  22107682.0314  -12046672.45343  -9372490.83042  22107683.9014   22107680.7284
        51.0004         44.0004
  24190906.9474   -7087530.71843  -5470866.10442  24190909.4444   24190902.9814
        46.0004         38.0004
  24621904.7334   -3782532.11643  -2903489.92242  24621905.6974   24621905.3034
        44.0004         36.0004
 04  6 22 14 50  0.0000000  0 11G22G21G18G 6G17G30G29G10G26G16G15
  24402393.2614   -3800082.78243  -2949901.63242  24402394.3554   24402390.0294
        46.0004         37.0004
  21306169.3474   10306911.69343   8035081.52242  21306170.7584   21306164.6884
        56.0004         48.0004
  21794346.3044  -14937686.18943 -11621852.42342  21794348.4524   21794342.7454
        55.0004         47.0004
  20241628.3364   14567619.50844  11354051.02342  20241630.2714   20241624.9494
        57.0004         50.0004
  23516662.9904   25817175.15843  20115387.98142  23516664.3194   23516661.9044
        46.0004         39.0004
  23261098.3894   29085634.12743  22661391.13342  23261100.3414   23261096.9414
        49.0004         41.0004
  22545305.9134   11090379.76943   8647802.43242  22545307.8804   22545303.8894
        51.0004         43.0004
  23616655.1494   10402519.16643   8097689.07542  23616655.8904   23616653.6524
        46.0004         39.0004
  22101572.7084  -12078776.88343  -9397507.23642  22101574.5754   22101569.7844
        51.0004         43.0004
  24183488.3864   -7126514.83843  -5501243.33842  24183489.5094   24183486.3364
        46.0004         38.0004
  24612089.6444   -3834118.31443  -2943686.95442  24612090.5224   24612087.4744
        45.0004         36.0004
 04  6 22 14 50 20.0000000  0 11G22G21G18G 6G17G30G29G10G26G16G15
  24389189.4304   -3869462.60243  -3003963.75242  24389191.8244   24389183.5754
        45.0004         37.0004
  21301304.1774   10281344.38343   8015158.93542  21301305.7264   21301299.4094
        56.0004         48.0004
  21784693.8134  -14988408.03643 -11661375.92242  21784695.9644   21784690.7514
        55.0004         47.0004
  20242789.7534   14573723.29044  11358807.19842  20242791.7874   20242786.5764
        57.0004         50.0004
  23524992.9934   25860951.14643  20149499.06242  23524993.9714   23524992.2604
        46.0004         39.0004
  23273768.4294   29152216.09043  22713273.12242  23273771.7754   23273767.4884
        50.0004         41.0004
  22543654.1304   11081701.09943   8641039.84742  22543657.7924   22543651.2284
        51.0004         43.0004
  23629745.5104   10471308.43643   8151291.06442  23629748.5514   23629742.5214
        47.0004         39.0004
  22095508.5694  -12110642.69543  -9422337.71242  22095510.4234   22095506.5604
        51.0004         43.0004
  24176108.1204   -7165297.19643  -5531463.35942  24176111.4714   24176106.1674
        46.0004         39.0004
  24602277.1624   -3885683.74043  -2983867.77042  24602280.4374   24602276.6134
        45.0004         36.0004
 04  6 22 14 50 40.0000000  0 11G22G21G18G 6G17G30G29G10G26G16G15
  24376000.1564   -3938775.82443  -3057973.96242  24375998.6844   24375999.4434
        46.0004         37.0004
  21296452.1744   10255849.27143   7995292.61142  21296453.9754   21296448.8234
        56.0004         48.0004
  21775072.6804  -15038969.18243 -11700774.20142  21775074.1494   21775069.1994
        55.0004         47.0004
  20243990.8034   14580034.37644  11363724.90842  20243992.8434   20243987.6994
        57.0004         50.0004
  23533328.1234   25904753.27243  20183630.54142  23533330.6834   23533327.1994
        45.0004         39.0004
  23286446.3964   29218835.99143  22765184.70542  23286449.9214   23286445.3124
        50.0004         41.0004
  22542047.8004   11073259.46943   8634461.97142  22542048.9044   22542047.0974
        51.0004         43.0004
  23642845.4184   10540152.27543   8204935.56542  23642846.9184   23642844.5654
        46.0004         39.0004
  22089490.5044  -12142269.10243  -9446981.62442  22089492.0474   22089488.8254
        51.0004         44.0004
  24168766.8854   -7203877.30643  -5561525.79742  24168767.8874   24168763.9034
        46.0004         39.0004
  24592467.3974   -3937228.47243  -3024032.53542  24592469.5194   24592466.2434
        43.0004         36.0004
 04  6 22 14 51  0.0000000  0 11G22G21G18G 6G17G30G29G10G26G16G15
  24362822.7504   -4008022.86143  -3111932.63842  24362822.5854   24362816.1154
        46.0004         38.0004
  21291614.2414   10230425.45943   7975481.84642  21291615.9094   21291610.1354
        56.0004         48.0004
  21765481.5524  -15089370.23443 -11740047.72942  21765484.1344   21765478.4714
        55.0004         47.0004
  20245231.1004   14586552.23844  11368803.74342  20245233.0904   20245228.0344
        57.0004         50.0004
  23541668.6774   25948580.52743  20217781.59242  23541670.3674   23541668.0324
        46.0004         39.0004
  23299130.1174   29285491.89243  22817124.30842  23299132.5794   23299128.4424
        50.0004         41.0004
  22540486.4414   11065054.13543   8628068.21642  22540488.2204   22540484.7074
        51.0004         43.0004
  23655956.6504   10609049.02743   8258621.30642  23655958.2374   23655954.8384
        46.0004         39.0004
  22083517.6704  -12173656.29043  -9471439.13542  22083519.5944   22083515.4324
        51.0004         44.0004
  24161462.7454   -7242255.43243  -5591430.84742  24161466.0014   24161461.4494
        46.0004         38.0004
  24582662.6724   -3988753.37943  -3064181.82942  24582666.0634   24582661.9524
        43.0004         36.0004
 04  6 22 14 51 20.0000000  0 11G22G21G18G 6G17G30G29G10G26G16G15
  24349658.6704   -4077201.94843  -3165838.38242  24349659.4514   24349655.2504
        46.0004         38.0004
  21286790.4384   10205074.20743   7955727.61842  21286792.1544   21286785.9874
        56.0004         48.0004
  21755921.4624  -15139609.89943 -11779195.50142  21755923.0994   21755917.8824
        55.0004         47.0004
  20246510.8974   14593277.90144  11374044.50242  20246513.0444   20246507.8034
        57.0004         50.0004
  23550014.0224   25992434.11843  20251953.15442  23550016.0384   23550012.7894
        46.0004         39.0004
  23311821.5054   29352184.14043  22869092.24242  23311823.6644   23311818.6894
        49.0004         41.0004
  22538970.1904   11057086.48643   8621859.67342  22538973.0424   22538969.0684
        51.0004         43.0004
  23669077.5024   10677999.19943   8312348.66542  23669079.3314   23669075.8284
        46.0004         39.0004
  22077590.7324  -12204802.36043  -9495708.76142  22077592.7664   22077589.9824
        51.0004         44.0004
  24154199.4814   -7280430.10643  -5621177.34442  24154202.1484   24154196.7694
        46.0004         39.0004
  24572862.3014   -4040257.48343  -3104314.90342  24572862.4604   24572862.1774
        45.0004         37.0004
 04  6 22 14 51 40.0000000  0 11G22G21G18G 6G17G30G29G10G26G16G15
  24336507.3714   -4146312.12043  -3219690.40742  24336507.0534   24336501.7004
        47.0004         38.0004
  21281980.0594   10179795.74343   7936030.10742  21281981.5864   21281975.5704
        56.0004         48.0004
  21746391.8014  -15189687.05243 -11818216.64642  21746393.9324   21746388.8294
        55.0004         47.0004
  20247830.2474   14600211.58644  11379447.35542  20247832.2364   20247827.1694
        57.0004         50.0004
  23558364.3834   26036314.36443  20286145.50242  23558365.3674   23558362.7484
        46.0004         39.0004
  23324518.9884   29418912.24843  22921088.10542  23324520.0914   23324516.5524
        49.0004         41.0004
  22537499.1634   11049357.36943   8615836.98742  22537501.0944   22537496.9154
        50.0004         43.0004
  23682208.7534   10747002.44043   8366117.38642  23682209.9124   23682206.8734
        46.0004         40.0004
  22071709.7944  -12235706.08943  -9519789.55542  22071711.5674   22071708.2004
        51.0004         43.0004
  24146973.5434   -7318400.30043  -5650764.52442  24146974.4164   24146971.3124
        45.0004         39.0004
  24563065.5774   -4091740.29343  -3144431.38142  24563067.2814   24563066.6784
        44.0004         37.0004
 04  6 22 14 52  0.0000000  0 11G22G21G18G 6G17G30G29G10G26G16G15
  24323367.7474   -4215355.94943  -3273490.76042  24323367.6944   24323363.1024
        46.0004         38.0004
  21277182.9214   10154586.63343   7916386.63742  21277185.0474   21277178.6604
        56.0004         48.0004
  21736893.0204  -15239604.48043 -11857113.33242  21736895.0534   21736889.6104
        55.0004         47.0004
  20249188.8714   14607351.04844  11385010.55042  20249191.1284   20249185.5864
        57.0004         50.0004
  23566718.3004   26080218.08643  20320356.13242  23566720.4884   23566718.3374
        45.0004         39.0004
  23337223.3754   29485672.08443  22973108.68842  23337226.4324   23337222.4824
        49.0004         41.0004
  22536073.0784   11041863.87143   8609997.90542  22536074.8744   22536070.9694
        50.0004         43.0004
  23695349.1414   10816054.90943   8419924.45142  23695348.6054   23695347.7444
        46.0004         40.0004
  22065874.4514  -12266369.88243  -9543683.37942  22065877.4934   22065871.9594
        51.0004         44.0004
  24139786.4194   -7356168.69743  -5680194.44742  24139788.1924   24139784.9684
        46.0004         39.0004
  24553271.6894   -4143204.89343  -3184533.64342  24553276.3004   24553270.3544
        44.0004         37.0004
 04  6 22 14 52 20.0000000  0 11G22G21G18G 6G17G30G29G10G26G16G15
  24310243.4944   -4284328.77743  -3327235.76542  24310241.9734   24310237.8064
        46.0004         38.0004
  21272399.8024   10129451.92343   7896801.14542  21272401.7564   21272395.1424
        56.0004         48.0004
  21727425.3534  -15289357.66343 -11895882.02942  21727427.4804   21727421.5944
        55.0004         47.0004
  20250587.6954   14614700.34044  11390737.25342  20250589.7454   20250584.3904
        57.0004         50.0004
  23575078.3104   26124149.67143  20354588.46842  23575080.1654   23575077.1394
        46.0004         39.0004
  23349933.8424   29552467.08743  23025156.69242  23349937.2424   23349933.1564
        49.0004         41.0004
  22534693.1884   11034610.81443   8604346.18542  22534694.9384   22534691.0234
        50.0004         43.0004
  23708498.6324   10885160.09943   8473772.59642  23708500.3074   23708497.6884
        46.0004         40.0004
  22060086.5724  -12296788.60143  -9567386.24242  22060088.9134   22060083.9264
        52.0004         44.0004
  24132638.3484   -7393730.51743  -5709463.39042  24132638.1164   24132635.8744
        46.0004         39.0004
  24543482.1264   -4194647.04543  -3224618.46742  24543482.2754   24543482.7814
        43.0004         36.0004
 04  6 22 14 52 40.0000000  0 11G22G21G18G 6G17G30G29G10G26G16G15
  24297131.1034   -4353233.30743  -3380927.54742  24297130.0784   24297127.3424
        47.0004         38.0004
  21267630.4964   10104387.83843   7877270.67942  21267632.1424   21267626.2024
        56.0004         48.0004
  21717988.2584  -15338949.59043 -11934525.07442  21717990.0864   21717985.2784
        55.0004         47.0004
  20252025.4074   14622256.53544  11396625.17842  20252027.3834   20252022.2874
        57.0004         50.0004
  23583443.3454   26168105.65843  20388839.82842  23583444.8024   23583441.0244
        46.0004         39.0004
  23362650.5824   29619293.27443  23077228.98142  23362653.4874   23362649.9614
        49.0004         41.0004
  22533358.2504   11027594.89643   8598879.23742  22533360.6144   22533355.5754
        51.0004         43.0004
  23721658.4774   10954314.02943   8527658.72642  23721660.5214   23721657.6794
        46.0004         40.0004
  22054343.7434  -12326964.90143  -9590900.20342  22054345.8314   22054342.1434
        51.0004         44.0004
  24125529.4764   -7431088.57543  -5738573.57842  24125532.2224   24125527.2084
        45.0004         38.0004
  24533697.3324   -4246070.16043  -3264688.44442  24533698.5324   24533697.9824
        44.0004         36.0004
 04  6 22 14 53  0.0000000  0 11G22G21G18G 6G17G30G29G10G26G16G15
  24284032.3474   -4422066.13243  -3434563.44042  24284033.4804   24284027.8644
        46.0004         39.0004
  21262874.7764   10079397.18243   7857797.43342  21262876.3634   21262870.1744
        56.0004         48.0004
  21708582.6714  -15388376.86543 -11973039.81342  21708583.7634   21708579.3194
        55.0004         47.0004
  20253503.3534   14630022.81344  11402676.80442  20253505.2164   20253500.1074
        57.0004         50.0004
  23591812.6574   26212088.91843  20423112.44142  23591814.6874   23591811.1914
        46.0004         39.0004
  23375373.4504   29686152.38443  23129326.92042  23375375.5704   23375373.6444
        49.0004         41.0004
  22532068.5634   11020819.20343   8593599.49342  22532071.7054   22532066.4074
        50.0004         43.0004
  23734828.3714   11023518.72143   8581584.41742  23734830.0004   23734826.9004
        47.0004         40.0004
  22048648.3894  -12356895.15543  -9614222.43942  22048650.7174   22048646.6244
        51.0004         44.0004
  24118459.3374   -7468239.57143  -5767522.39542  24118461.7324   24118457.1164
        45.0004         38.0004
  24523916.8544   -4297471.49443  -3304741.44942  24523919.0744   24523914.4534
        44.0004         36.0004
 04  6 22 14 53 20.0000000  0 11G22G21G18G 6G17G30G29G10G26G16G15
  24270947.3024   -4490829.89143  -3488145.51342  24270948.0704   24270941.8474
        46.0004         39.0004
  21258132.8784   10054476.87843   7838379.00742  21258134.1304   21258128.5724
        56.0004         48.0004
  21699207.6114  -15437642.12643 -12011428.31242  21699209.5374   21699204.2234
        55.0004         47.0004
  20255020.6604   14637995.90344  11408889.58742  20255022.5534   20255017.6764
        57.0004         50.0004
  23600187.3104   26256096.18143  20457403.75542  23600188.0224   23600185.5144
        46.0004         39.0004
  23388101.7504   29753040.33743  23181447.33842  23388104.7894   23388098.8984
        49.0004         41.0004
  22530824.2564   11014281.02243   8588504.82742  22530828.4254   22530823.3774
        51.0004         43.0004
  23748005.8344   11092770.23443   8635546.56942  23748007.6214   23748003.9844
        47.0004         40.0004
  22042999.0014  -12386581.89143  -9637354.92542  22043001.9654   22042996.0434
        51.0004         44.0004
  24111429.8804   -7505186.22443  -5796311.99242  24111430.4754   24111427.2964
        46.0004         39.0004
  24514138.6254   -4348854.24543  -3344779.98342  24514140.6494   24514138.9044
        43.0004         37.0004
 04  6 22 14 53 40.0000000  0 11G22G21G18G 6G17G30G29G10G26G16G15
  24257875.6074   -4559521.25243  -3541671.20742  24257878.2204   24257871.1984
        47.0004         38.0004
  21253404.5674   10029629.83843   7819017.66842  21253406.3884   21253400.2144
        56.0004         48.0004
  21689864.2844  -15486742.33943 -12049688.21342  21689865.7974   21689860.6094
        55.0004         47.0004
  20256577.6704   14646178.77144  11415265.83242  20256579.5564   20256574.5284
        57.0004         50.0004
  23608566.3024   26300130.31143  20491716.01242  23608567.7384   23608565.4444
        46.0004         39.0004
  23400836.1824   29819959.30743  23233591.94142  23400838.9414   23400835.4314
        49.0004         41.0004
  22529625.9024   11007983.31143   8583597.52342  22529628.6334   22529624.4004
        50.0004         43.0004
  23761193.8014   11162070.47743   8689546.71942  23761194.8984   23761192.1404
        47.0004         40.0004
  22037396.6364  -12416021.42943  -9660294.79542  22037399.0794   22037394.3834
        52.0004         44.0004
  24104438.2824   -7541925.31443  -5824939.83242  24104440.7994   24104434.7764
        45.0004         39.0004
  24504364.9204   -4400215.45643  -3384801.73042  24504366.6354   24504363.4824
        44.0004         37.0004
 04  6 22 14 54  0.0000000  0 11G22G21G18G 6G17G30G29G10G26G16G15
  24244817.1584   -4628142.08643  -3595141.93642  24244818.6204   24244813.9514
        45.0004         38.0004
  21248689.6154   10004853.61243   7799711.51042  21248691.5054   21248685.3114
        56.0004         48.0004
  21680551.6904  -15535679.53843 -12087821.08842  21680553.7234   21680548.3934
        55.0004         47.0004
  20258174.2434   14654569.42544  11421803.98842  20258176.2044   20258171.3534
        57.0004         50.0004
  23616950.9444   26344189.00843  20526047.40242  23616951.4384   23616950.8354
        46.0004         39.0004
  23413575.3714   29886905.87743  23285758.02842  23413579.3104   23413573.4104
        49.0004         41.0004
  22528473.0884   11001924.24243   8578876.19042  22528475.2824   22528470.3324
        51.0004         43.0004
  23774389.2784   11231416.53843   8743582.55942  23774391.7214   23774386.9704
        48.0004         40.0004
  22031841.1674  -12445215.33743  -9683043.26142  22031843.4394   22031839.7164
        52.0004         44.0004
  24097486.6094   -7578458.64143  -5853407.34842  24097487.3194   24097484.4704
        46.0004         39.0004
  24494594.9254   -4451557.69843  -3424808.66642  24494594.4464   24494593.0364
        41.0004         37.0004
 04  6 22 14 54 20.0000000  0 11G22G21G18G 6G17G30G29G10G26G16G15
  24231773.1904   -4696690.32443  -3648556.11842  24231772.2554   24231770.1604
        45.0004         38.0004
  21243988.7224    9980149.66143   7780461.66842  21243990.3294   21243984.3294
        56.0004         48.0004
  21671270.6844  -15584451.77743 -12125825.42142  21671272.8524   21671267.2024
        55.0004         47.0004
  20259811.0674   14663169.61144  11428505.41842  20259812.8534   20259808.0334
        57.0004         50.0004
  23625339.9104   26388273.70943  20560399.04342  23625340.9144   23625340.2884
        46.0004         39.0004
  23426320.2664   29953880.78743  23337946.20442  23426322.2634   23426319.0364
        49.0004         41.0004
  22527365.7214   10996105.38843   8574342.02842  22527366.5884   22527363.8734
        50.0004         43.0004
  23787595.0314   11300809.27543   8797654.76842  23787596.2974   23787594.7554
        47.0004         41.0004
  22026333.1414  -12474161.37443  -9705598.58342  22026336.2104   22026331.5324
        52.0004         44.0004
  24090573.6044   -7614784.23243  -5881712.98742  24090576.3484   24090571.4594
        46.0004         39.0004
  24484828.2914   -4502879.29543  -3464799.54142  24484829.1884   24484828.9134
        44.0004         37.0004
 04  6 22 14 54 40.0000000  0 11G22G21G18G 6G17G30G29G10G26G16G15
  24218742.5594   -4765164.81743  -3701912.85142  24218744.8024   24218740.2014
        45.0004         38.0004
  21239301.5834    9955518.51843   7761268.56342  21239303.3914   21239297.0064
        56.0004         48.0004
  21662021.4634  -15633058.04943 -12163700.42942  21662023.7494   21662017.5234
        55.0004         47.0004
  20261487.6364   14671979.97744  11435370.62242  20261489.2944   20261484.4734
        57.0004         50.0004
  23633734.9004   26432385.01343  20594771.41842  23633735.5004   23633732.8764
        47.0004         40.0004
  23439070.7314   30020883.56543  23390156.09842  23439074.9314   23439071.2404
        49.0004         41.0004
  22526304.2324   10990527.59143   8569995.70142  22526305.4794   22526300.5504
        50.0004         43.0004
  23800808.2294   11370248.48143   8851763.18742  23800809.5854   23800807.2584
        48.0004         41.0004
  22020872.2704  -12502858.32543  -9727959.81342  22020874.7964   22020870.7444
        51.0004         44.0004
  24083701.7304   -7650900.99443  -5909855.91542  24083703.0614   24083697.2474
        46.0004         39.0004
  24475066.6084   -4554179.83443  -3504773.95942  24475066.4544   24475065.8404
        42.0004         37.0004
 04  6 22 14 55  0.0000000  0 11G22G21G18G 6G17G30G29G10G26G16G15
  24205727.3894   -4833568.42543  -3755214.32342  24205726.3554   24205721.8704
        45.0004         38.0004
  21234627.6144    9930957.02043   7742129.72242  21234629.4194   21234622.8844
        56.0004         48.0004
  21652802.6164  -15681501.51843 -12201448.57942  21652804.5714   21652799.9294
        56.0004         47.0004
  20263203.5754   14680997.47644  11442397.23142  20263205.4274   20263200.8494
        57.0004         50.0004
  23642132.1304   26476519.47043  20629161.85242  23642134.5464   23642131.3694
        47.0004         40.0004
  23451825.9704   30087910.22943  23442384.59942  23451826.9054   23451825.9094
        49.0004         41.0004
  22525288.4554   10985187.95943   8565834.95442  22525290.0834   22525286.7254
        50.0004         43.0004
  23814030.4204   11439729.99443   8905904.58542  23814031.5414   23814027.8434
        48.0004         41.0004
  22015458.3914  -12531308.82843  -9750129.00742  22015460.7544   22015455.9824
        51.0004         44.0004
  24076866.7254   -7686811.86143  -5937838.38742  24076869.0784   24076864.6344
        46.0004         39.0004
  24465306.4454   -4605462.73843  -3544734.67142  24465307.9084   24465307.1014
        41.0004         37.0004
 04  6 22 14 55 20.0000000  0 11G22G21G18G 6G17G30G29G10G26G16G15
  24192723.6234   -4901895.26143  -3808455.98042  24192723.8714   24192720.4594
        45.0004         38.0004
  21229968.0284    9906470.53643   7723049.33642  21229970.0824   21229963.6694
        56.0004         48.0004
  21643616.4024  -15729776.32343 -12239065.29642  21643618.5644   21643612.5594
        56.0004         47.0004
  20264960.1974   14690227.54444  11449589.48342  20264962.1354   20264957.0864
        57.0004         50.0004
  23650536.9704   26520682.46543  20663574.52442  23650539.3964   23650536.2934
        46.0004         40.0004
  23464586.0234   30154965.14843  23494635.12842  23464590.7824   23464585.6684
        50.0004         41.0004
  22524318.7274   10980091.87143   8561863.98742  22524320.5084   22524316.7734
        51.0004         43.0004
  23827261.4214   11509258.54543   8960082.62742  23827262.6214   23827261.1074
        47.0004         41.0004
  22010092.7194  -12559506.74543  -9772101.39342  22010094.1434   22010090.2154
        52.0004         44.0004
  24070073.8784   -7722511.19543  -5965656.04442  24070075.1154   24070071.8874
        46.0004         39.0004
  24455552.6904   -4656722.66243  -3584677.50042  24455552.5554   24455551.6294
        41.0004         37.0004
 04  6 22 14 55 40.0000000  0 11G22G21G18G 6G17G30G29G10G26G16G15
  24179734.4824   -4970148.51243  -3861640.28742  24179734.8904   24179731.6514
        43.0004         38.0004
  21225321.9884    9882055.34343   7704024.50342  21225323.8054   21225317.6494
        56.0004         48.0004
  21634461.5674  -15777885.63143 -12276553.05942  21634463.0954   21634458.1914
        55.0004         47.0004
  20266755.7884   14699666.68844  11456944.64642  20266758.4194   20266753.2134
        57.0004         50.0004
  23658945.7504   26564870.33743  20698006.57042  23658947.5764   23658943.2204
        47.0004         40.0004
  23477350.4464   30222043.72143  23546904.08442  23477355.1004   23477348.8764
        49.0004         41.0004
  22523394.3774   10975235.89043   8558080.11642  22523396.8744   22523392.8774
        50.0004         43.0004
  23840500.4494   11578829.81843   9014293.95842  23840501.1064   23840499.5024
        47.0004         40.0004
  22004774.1054  -12587455.08443  -9793879.29142  22004775.8984   22004771.1544
        51.0004         44.0004
  24063319.7524   -7758002.07643  -5993311.26442  24063320.2234   24063315.7024
        46.0004         38.0004
  24445803.9844   -4707963.33043  -3624605.27642  24445804.0834   24445800.5804
        42.0004         37.0004
 04  6 22 14 56  0.0000000  0 11G22G21G18G 6G17G30G29G10G26G16G15
  24166760.7164   -5038327.23043  -3914766.50942  24166760.7194   24166758.0554
        44.0004         38.0004
  21220689.4454    9857711.50743   7685055.27042  21220691.0664   21220685.1574
        56.0004         48.0004
  21625338.3064  -15825829.10643 -12313911.59842  21625340.3444   21625334.9754
        56.0004         47.0004
  20268592.2714   14709315.36444  11464463.08542  20268594.2064   20268589.2264
        57.0004         50.0004
  23667359.0344   26609083.17543  20732458.07242  23667360.4744   23667358.8494
        46.0004         40.0004
  23490120.0564   30289145.36543  23599191.00542  23490123.0494   23490119.5444
        49.0004         42.0004
  22522516.4004   10970620.64643   8554483.83342  22522518.7344   22522513.5314
        51.0004         43.0004
  23853747.5234   11648443.27343   9068538.15342  23853749.3804   23853746.3254
        47.0004         40.0004
  21999503.3054  -12615152.86343  -9815461.95742  21999505.4074   21999501.1054
        51.0004         44.0004
  24056606.1304   -7793283.75043  -6020803.47342  24056607.0104   24056604.2014
        45.0004         38.0004
  24436055.9844   -4759184.40843  -3664517.78942  24436056.5504   24436054.7734
        42.0004         37.0004
 04  6 22 14 56 20.0000000  0 11G22G21G18G 6G17G30G29G10G26G16G15
  24153801.5414   -5106430.44943  -3967833.88442  24153799.8104   24153798.3804
        45.0004         38.0004
  21216070.9034    9833440.00943   7666142.40642  21216072.7234   21216066.4874
        56.0004         48.0004
  21616246.8004  -15873605.68543 -12351140.09042  21616248.6954   21616242.6484
        56.0004         47.0004
  20270468.4254   14719174.39044  11472145.42942  20270470.3374   20270465.1494
        57.0004         50.0004
  23675777.6934   26653321.93143  20766929.76242  23675778.5634   23675776.0774
        46.0004         39.0004
  23502893.3984   30356269.99343  23651495.85542  23502896.9594   23502893.3124
        49.0004         41.0004
  22521683.6804   10966246.99743   8551075.80442  22521686.4234   22521682.0694
        51.0004         43.0004
  23867002.7864   11718098.98443   9122815.29442  23867003.6584   23867000.1404
        48.0004         40.0004
  21994280.3994  -12642598.58643  -9836848.22242  21994282.5304   21994278.3514
        51.0004         44.0004
  24049933.3544   -7828355.01643  -6048131.74042  24049934.2924   24049929.3754
        45.0004         39.0004
  24426311.2114   -4810385.20843  -3704414.50842  24426312.1774   24426310.9824
        42.0004         37.0004
 04  6 22 14 56 40.0000000  0 11G22G21G18G 6G17G30G29G10G26G16G15
  24140856.0034   -5174457.36043  -4020841.84042  24140857.2694   24140854.3754
        45.0004         38.0004
  21211465.8714    9809240.99643   7647286.02642  21211467.8134   21211461.6284
        56.0004         48.0004
  21607186.6814  -15921214.94543 -12388238.20542  21607188.8474   21607182.8944
        56.0004         47.0004
  20272384.7594   14729244.03744  11479991.89542  20272386.6684   20272381.6094
        57.0004         50.0004
  23684201.0014   26697586.52643  20801421.59742  23684202.9344   23684201.0424
        47.0004         40.0004
  23515670.3794   30423416.96943  23703818.10742  23515674.7814   23515671.8334
        49.0004         41.0004
  22520897.8924   10962115.41843   8547856.39542  22520900.3054   22520895.9974
        51.0004         43.0004
  23880265.8104   11787796.32943   9177124.87542  23880265.9314   23880265.8384
        47.0004         40.0004
  21989106.0874  -12669791.51943  -9858037.50842  21989107.0874   21989104.5334
        52.0004         44.0004
  24043298.5504   -7863215.42843  -6075295.69542  24043300.5284   24043296.3144
        45.0004         39.0004
  24416573.0634   -4861565.72943  -3744295.44242  24416574.8264   24416573.1144
        43.0004         37.0004
 04  6 22 14 57  0.0000000  0 11G22G21G18G 6G17G30G29G10G26G16G15
  24127926.5114   -5242407.33443  -4073789.84442  24127927.2064   24127921.0534
        45.0004         39.0004
  21206875.0444    9785114.43243   7628486.10142  21206876.6534   21206870.4434
        56.0004         48.0004
  21598158.7984  -15968656.34743 -12425205.51142  21598160.4064   21598155.7264
        56.0004         47.0004
  20274340.9584   14739524.67444  11488002.76742  20274343.0104   20274337.8504
        57.0004         50.0004
  23692628.8174   26741877.31343  20835933.84742  23692630.4184   23692628.0014
        46.0004         40.0004
  23528452.2964   30490585.37743  23756157.06342  23528456.0264   23528454.8394
        48.0004         41.0004
  22520157.5754   10958226.27943   8544825.90942  22520160.4484   22520154.6184
        50.0004         43.0004
  23893536.5874   11857534.73843   9231466.43742  23893539.6724   23893534.8004
        47.0004         40.0004
  21983979.5134  -12696730.79443  -9879029.13042  21983981.9944   21983978.0364
        52.0004         44.0004
  24036704.8394   -7897864.30743  -6102294.82942  24036705.2174   24036702.2434
        46.0004         38.0004
  24406837.2894   -4912725.76343  -3784160.41542  24406838.7214   24406836.3074
        43.0004         37.0004
 04  6 22 14 57 20.0000000  0 11G22G21G18G 6G17G30G29G10G26G16G15
  24115010.3434   -5310281.38343  -4126678.69842  24115011.2024   24115005.6104
        46.0004         39.0004
  21202297.0094    9761058.62743   7609741.31542  21202298.7454   21202292.7764
        56.0004         48.0004
  21589162.8184  -16015930.92143 -12462042.82142  21589164.3454   21589159.6984
        56.0004         47.0004
  20276337.2614   14750014.87044  11496176.93142  20276339.2294   20276334.2324
        57.0004         50.0004
  23701061.8054   26786192.43743  20870465.04642  23701064.2614   23701061.5994
        47.0004         40.0004
  23541238.0554   30557772.78943  23808510.83742  23541239.7404   23541234.6084
        48.0004         40.0004
  22519463.6424   10954578.06243   8541983.14442  22519465.8954   22519461.5894
        51.0004         43.0004
  23906814.5164   11927311.78943   9285838.12542  23906816.1034   23906813.0334
        46.0004         40.0004
  21978901.4904  -12723417.20643  -9899823.72742  21978903.4834   21978899.1974
        52.0004         44.0004
  24030151.3564   -7932302.86843  -6129130.05642  24030153.0174   24030148.7684
        46.0004         39.0004
  24397104.8644   -4963866.80743  -3824010.57942  24397106.7084   24397104.3764
        43.0004         37.0004
 04  6 22 14 57 40.0000000  0 11G22G21G18G 6G17G30G29G10G26G16G15
  24102109.3164   -5378077.98943  -4179507.19742  24102108.9034   24102105.8944
        46.0004         39.0004
  21197733.1364    9737074.61243   7591052.47342  21197735.0784   21197728.4254
        56.0004         48.0004
  21580198.6854  -16063037.25043 -12498749.03242  21580200.7144   21580195.0574
        56.0004         47.0004
  20278373.5074   14760715.77344  11504515.28342  20278375.5344   20278370.3094
        57.0004         50.0004
  23709500.1984   26830533.06243  20905016.12542  23709500.6714   23709499.0404
        47.0004         39.0004
  23554026.4224   30624979.39843  23860879.55642  23554029.7254   23554024.7234
        47.0004         40.0004
  22518815.3694   10951172.15143   8539329.19442  22518817.6464   22518812.1104
        50.0004         43.0004
  23920100.8224   11997127.86743   9340240.20542  23920101.6184   23920098.8424
        46.0004         40.0004
  21973871.7044  -12749849.15043  -9920420.03542  21973873.4604   21973869.2824
        52.0004         44.0004
  24023638.8124   -7966529.75143  -6155800.37642  24023639.9474   24023635.8424
        46.0004         38.0004
  24387378.1484   -5014987.93243  -3863845.20842  24387378.5824   24387377.3954
        44.0004         38.0004
 04  6 22 14 58  0.0000000  0 11G22G21G18G 6G17G30G29G10G26G16G15
  24089222.6454   -5445795.34843  -4232273.93342  24089223.3464   24089217.7174
        46.0004         39.0004
  21193183.2754    9713163.99644   7572420.81742  21193184.7694   21193178.6624
        57.0004         48.0004
  21571266.9084  -16109973.92243 -12535323.03842  21571269.0594   21571263.8374
        55.0004         47.0004
  20280450.1574   14771628.87244  11513018.98942  20280452.1704   20280447.1144
        57.0004         50.0004
  23717942.2864   26874900.36443  20939587.98642  23717944.0714   23717942.9214
        46.0004         39.0004
  23566819.0784   30692205.49443  23913263.44542  23566820.7674   23566819.6764
        47.0004         40.0004
  22518213.5254   10948010.21643   8536865.35542  22518216.2494   22518211.0074
        51.0004         43.0004
  23933392.6304   12066983.50043   9394673.12542  23933395.7584   23933392.9594
        46.0004         39.0004
  21968890.2994  -12776024.55743  -9940816.45542  21968893.2964   21968887.9284
        51.0004         44.0004
  24017166.4674   -8000543.06543  -6182304.26142  24017168.0704   24017162.5974
        46.0004         38.0004
  24377652.2264   -5066087.86643  -3903663.33542  24377655.6204   24377654.3474
        44.0004         38.0004
 04  6 22 14 58 20.0000000  0 11G22G21G18G 6G17G30G29G10G26G16G15
  24076351.8334   -5513433.79643  -4284979.18642  24076352.7684   24076347.7184
        47.0004         39.0004
  21188646.8874    9689325.97544   7553845.72942  21188648.7484   21188642.4884
        57.0004         48.0004
  21562367.3304  -16156741.29443 -12571765.12642  21562369.0644   21562364.4894
        55.0004         47.0004
  20282567.1074   14782753.57344  11521687.57142  20282569.1014   20282563.9784
        57.0004         50.0004
  23726390.7374   26919293.78343  20974180.20542  23726390.9764   23726388.4854
        47.0004         39.0004
  23579615.5984   30759449.79343  23965661.54342  23579616.3774   23579616.3234
        47.0004         40.0004
  22517658.0294   10945091.55343   8534591.08642  22517659.6234   22517656.9544
        51.0004         43.0004
  23946694.4184   12136877.28843   9449135.75542  23946693.7014   23946693.9314
        45.0004         39.0004
  21963958.3964  -12801943.40943  -9961012.95242  21963960.0714   21963956.1734
        52.0004         44.0004
  24010734.2174   -8034343.07343  -6208641.94542  24010737.0504   24010730.6324
        46.0004         38.0004
  24367932.7524   -5117167.37243  -3943465.55042  24367935.0954   24367933.4154
        44.0004         38.0004
 04  6 22 14 58 40.0000000  0 11G22G21G18G 6G17G30G29G10G26G16G15
  24063495.5474   -5580993.60443  -4337623.17142  24063495.2354   24063492.1414
        46.0004         39.0004
  21184124.1324    9665559.47543   7535326.36842  21184126.3904   21184119.8094
        56.0004         48.0004
  21553500.0084  -16203339.94043 -12608075.74742  21553501.7334   21553496.8134
        56.0004         48.0004
  20284724.3224   14794089.00144  11530520.36042  20284726.3604   20284721.3154
        57.0004         50.0004
  23734842.9844   26963712.23743  21008791.91542  23734845.0474   23734842.5164
        46.0004         39.0004
  23592414.6654   30826710.19643  24018072.18642  23592417.0354   23592413.7174
        47.0004         40.0004
  22517148.8004   10942415.17843   8532505.60142  22517150.9484   22517145.4674
        50.0004         43.0004
  23959999.9044   12206807.46143   9503626.75642  23960001.0874   23960000.6254
        45.0004         39.0004
  21959074.8294  -12827606.21443  -9981009.93742  21959076.9344   21959072.3454
        52.0004         44.0004
  24004342.5944   -8067930.56443  -6234814.02942  24004344.2534   24004341.0454
        46.0004         38.0004
  24358216.6184   -5168227.55543  -3983252.70042  24358218.2744   24358215.6574
        46.0004         38.0004
 04  6 22 14 59  0.0000000  0 11G22G21G18G 6G17G30G29G10G26G16G15
  24050654.3214   -5648472.79243  -4390204.31042  24050655.3244   24050651.0174
        47.0004         39.0004
  21179615.5704    9641865.83843   7516863.79142  21179617.5124   21179611.3754
        56.0004         48.0004
  21544665.3174  -16249768.09143 -12644253.51242  21544667.1224   21544662.5504
        56.0004         48.0004
  20286921.8814   14805636.91744  11539518.72142  20286923.6994   20286919.0754
        57.0004         50.0004
  23743300.4564   27008157.24643  21043424.32342  23743303.7284   23743299.9794
        46.0004         39.0004
  23605217.2944   30893987.45243  24070495.95942  23605220.0304   23605216.3984
        47.0004         40.0004
  22516685.9414   10939983.19043   8530610.54842  22516687.5984   22516683.2184
        50.0004         43.0004
  23973315.2084   12276775.08543   9558146.93642  23973318.5084   23973313.4524
        46.0004         39.0004
  21954240.5734  -12853010.64643 -10000805.59242  21954243.2514   21954238.4854
        52.0004         44.0004
  23997992.1494   -8101303.42243  -6260818.85942  23997995.4494   23997988.8374
        46.0004         38.0004
  24348504.0544   -5219266.85843  -4023023.58542  24348507.6354   24348503.4844
        46.0004         38.0004
 04  6 22 14 59 20.0000000  0 11G22G21G18G 6G17G30G29G10G26G16G15
  24037829.2504   -5715874.51543  -4442725.12542  24037829.0024   24037824.9224
        48.0004         40.0004
  21175120.0594    9618241.74543   7498455.40342  21175121.8334   21175115.3814
        56.0004         48.0004
  21535861.9664  -16296029.21743 -12680301.12942  21535863.4714   21535858.8134
        56.0004         48.0004
  20289158.9724   14817393.59944  11548679.76142  20289161.2414   20289156.2634
        57.0004         50.0004
  23751762.6204   27052625.12943  21078074.56042  23751764.7784   23751760.3984
        46.0004         40.0004
  23618022.4964   30961277.11543  24122929.39742  23618024.5514   23618022.3584
        47.0004         40.0004
  22516268.8504   10937791.91743   8528903.06042  22516271.4834   22516266.9914
        50.0004         43.0004
  23986636.5044   12346775.63043   9612692.76442  23986637.2704   23986634.9884
        45.0004         39.0004
  21949454.3114  -12878159.77843 -10020402.31442  21949457.1444   21949453.0234
        52.0004         44.0004
  23991681.0524   -8134464.94843  -6286659.03242  23991683.2134   23991679.6274
        45.0004         38.0004
  24338794.3154   -5270288.99343  -4062781.08442  24338797.8504   24338794.8564
        45.0004         39.0004
 04  6 22 14 59 40.0000000  0 11G22G21G18G 6G17G30G29G10G26G16G15
  24025018.1834   -5783192.27843  -4495180.50042  24025019.4384   24025015.2454
        48.0004         39.0004
  21170638.8274    9594693.02543   7480105.74542  21170640.3034   21170634.7554
        56.0004         48.0004
  21527091.8314  -16342116.75643 -12716213.48842  21527093.6004   21527088.4944
        56.0004         48.0004
  20291437.2004   14829365.23544  11558008.29442  20291439.1114   20291434.1064
        57.0004         50.0004
  23760230.6724   27097121.77943  21112747.20642  23760231.8524   23760229.3204
        46.0004         39.0004
  23630830.0204   31028584.23143  24175376.42742  23630834.3364   23630830.2714
        47.0004         40.0004
  22515898.9704   10935847.55043   8527387.97242  22515901.2804   22515896.5454
        50.0004         43.0004
  23999963.7204   12416814.37343   9667268.35842  23999963.5524   23999963.3314
        45.0004         38.0004
  21944719.0264  -12903046.99243 -10039794.94242  21944721.2504   21944716.9144
        51.0004         44.0004
  23985413.4014   -8167408.73043  -6312329.51842  23985413.4584   23985410.1664
        46.0004         39.0004
  24329089.7604   -5321287.88943  -4102520.50042  24329091.4844   24329091.6044
        46.0004         39.0004
 04  6 22 15  0  0.0000000  0 11G22G21G18G 6G17G30G29G10G26G16G15
  24012223.5414   -5850430.26243  -4547573.70242  24012223.7354   24012220.7064
        48.0004         39.0004
  21166171.2254    9571215.05343   7461811.21542  21166173.0124   21166166.5324
        56.0004         48.0004
  21518353.7924  -16388035.04543 -12751993.96542  21518355.7224   21518350.4774
        56.0004         48.0004
  20293755.4584   14841547.37044  11567500.85242  20293757.2344   20293752.5444
        57.0004         50.0004
  23768702.4204   27141642.64043  21147438.72642  23768703.2184   23768702.3964
        47.0004         39.0004
  23643640.9804   31095903.26843  24227832.76142  23643643.7074   23643640.8434
        46.0004         39.0004
  22515575.2314   10934145.64243   8526061.81942  22515576.6104   22515572.8764
        51.0004         43.0004
  24013297.7444   12486885.99843   9721869.58342  24013298.9964   24013296.4884
        45.0004         38.0004
  21940032.1324  -12927676.27643 -10058986.59242  21940034.1864   21940030.6104
        52.0004         44.0004
  23979183.5354   -8200139.13643  -6337833.75842  23979186.5584   23979179.8874
        44.0004         38.0004
  24319388.7184   -5372268.28543  -4142245.49242  24319389.3584   24319388.4744
        47.0004         39.0004
 04  6 22 15  0 20.0000000  0 11G22G21G18G 6G17G30G29G10G26G16G15
  23999444.5514   -5917584.95943  -4599902.01542  23999444.6884   23999441.0244
        48.0004         40.0004
  21161717.5364    9547810.59343   7443573.96542  21161719.2234   21161713.0914
        56.0004         48.0004
  21509648.5234  -16433780.84743 -12787640.02042  21509650.3364   21509645.2304
        56.0004         48.0004
  20296114.1824   14853942.98944  11577159.76342  20296116.2684   20296111.5254
        57.0004         50.0004
  23777178.9014   27186190.70643  21182151.44242  23777180.5954   23777179.7964
        45.0004         39.0004
  23656454.4574   31163236.33743  24280300.01642  23656456.7394   23656453.8534
        47.0004         40.0004
  22515298.1224   10932689.24443   8524926.96242  22515300.7464   22515295.1244
        50.0004         43.0004
  24026640.0704   12556992.82943   9776498.22842  24026639.6034   24026636.7224
        45.0004         38.0004
  21935394.8244  -12952043.89143 -10077974.34342  21935397.6284   21935392.7584
        52.0004         44.0004
  23972996.6884   -8232652.67643  -6363169.00442  23972996.5084   23972994.3334
        44.0004         38.0004
  24309691.5694   -5423227.12043  -4181953.68842  24309692.6344   24309690.5544
        46.0004         39.0004
 04  6 22 15  0 40.0000000  0 11G22G21G18G 6G17G30G29G10G26G16G15
  23986679.7624   -5984662.09443  -4652169.90442  23986680.3524   23986672.2434
        47.0004         39.0004
  21157276.7244    9524474.01343   7425389.60742  21157278.0934   21157272.0054
        56.0004         48.0004
  21500975.1954  -16479359.88443 -12823156.13542  21500976.9944   21500971.6624
        56.0004         48.0004
  20298512.7154   14866546.11844  11586980.36642  20298514.4904   20298509.6244
        58.0004         50.0004
  23785660.2714   27230759.81043  21216880.55442  23785662.9534   23785661.3234
        46.0004         39.0004
  23669269.0254   31230576.45343  24332772.76042  23669270.1214   23669267.0974
        47.0004         40.0004
  22515066.0974   10931472.51343   8523978.86142  22515068.6934   22515064.7924
        50.0004         43.0004
  24039984.9794   12627127.90943   9831148.89742  24039988.3164   24039983.8314
        45.0004         38.0004
  21930807.0834  -12976155.45943 -10096762.58042  21930808.4224   21930803.7534
        52.0004         44.0004
  23966850.0014   -8264955.11243  -6388339.74042  23966852.1324   23966847.2814
        45.0004         38.0004
  24299997.4594   -5474170.67243  -4221649.95942  24299999.9844   24299996.3804
        47.0004         39.0004
 04  6 22 15  1  0.0000000  0 11G22G21G18G 6G17G30G29G10G26G16G15
  23973931.9504   -6051652.84743  -4704370.47342  23973931.5024   23973927.5104
        47.0004         39.0004
  21152850.5054    9501213.25643   7407264.33842  21152851.9704   21152845.8784
        56.0004         48.0004
  21492335.0894  -16524763.76743 -12858535.77742  21492336.9024   21492332.0824
        56.0004         48.0004
  20300951.9354   14879365.06744  11596969.14242  20300953.8664   20300948.9064
        57.0004         50.0004
  23794147.9344   27275358.09143  21251632.40942  23794148.8684   23794146.6504
        45.0004         39.0004
  23682085.8594   31297931.06343  24385256.81542  23682088.8664   23682084.1634
        47.0004         40.0004
  22514882.0794   10930503.80043   8523224.02942  22514884.2184   22514879.6214
        50.0004         43.0004
  24053339.0684   12697298.86943   9885827.52042  24053339.0434   24053337.3724
        45.0004         38.0004
  21926268.6704  -13000002.10643 -10115344.38142  21926271.3254   21926267.0644
        52.0004         44.0004
  23960745.6554   -8297037.85643  -6413339.29442  23960748.1194   23960742.7354
        45.0004         38.0004
  24290307.9284   -5525090.70743  -4261327.91842  24290310.7494   24290309.2474
        47.0004         39.0004
 04  6 22 15  1 20.0000000  0 11G22G21G18G 6G17G30G29G10G26G16G15
  23961199.7864   -6118561.39143  -4756506.98242  23961200.0554   23961196.7384
        47.0004         40.0004
  21148437.5684    9478023.79044   7389194.61642  21148439.1404   21148432.9044
        57.0004         48.0004
  21483727.6694  -16569996.66143 -12893782.17042  21483729.6054   21483724.3004
        56.0004         48.0004
  20303431.6204   14892395.55544  11607122.75242  20303433.3554   20303428.5604
        58.0004         50.0004
  23802640.1234   27319980.98543  21286403.43442  23802639.3134   23802638.3764
        45.0004         39.0004
  23694905.2364   31365294.48043  24437747.71042  23694907.1414   23694904.4974
        47.0004         40.0004
  22514744.3614   10929778.73143   8522659.04542  22514746.2214   22514741.5904
        50.0004         43.0004
  24066697.4924   12767500.38643   9940529.97642  24066701.1564   24066694.3454
        46.0004         38.0004
  21921780.8314  -13023587.71743 -10133722.78342  21921782.7654   21921779.3994
        52.0004         44.0004
  23954681.6664   -8328905.02243  -6438170.85542  23954682.9284   23954678.4204
        46.0004         39.0004
  24280621.8534   -5575991.99043  -4300991.26042  24280622.7564   24280622.4594
        47.0004         39.0004
 04  6 22 15  1 40.0000000  0 11G22G21G18G 6G17G30G29G10G26G16G15
  23948484.0144   -6185386.13743  -4808578.18742  23948483.6474   23948478.0894
        48.0004         40.0004
  21144038.2654    9454906.77243   7371181.34942  21144040.2364   21144033.8324
        56.0004         48.0004
  21475153.0154  -16615057.07043 -12928894.16442  21475155.1344   21475149.5064
        56.0004         48.0004
  20305951.6994   14905638.43544  11617441.86342  20305953.3534   20305948.6494
        57.0004         50.0004
  23811136.0224   27364629.59143  21321194.47642  23811136.0444   23811134.6444
        44.0004         38.0004
  23707725.3224   31432667.07743  24490245.76942  23707728.2794   23707725.2644
        47.0004         40.0004
  22514652.8264   10929298.58643   8522284.91042  22514654.9144   22514650.3674
        51.0004         43.0004
  24080062.2204   12837732.82143   9995256.51142  24080063.7014   24080062.2744
        45.0004         38.0004
  21917342.6524  -13046910.63843 -10151896.49442  21917344.4564   21917340.3274
        52.0004         44.0004
  23948658.5894   -8360555.20243  -6462833.34542  23948659.2124   23948655.9274
        45.0004         39.0004
  24270939.7074   -5626873.43843  -4340639.13642  24270943.0284   24270939.8074
        47.0004         39.0004
 04  6 22 15  2  0.0000000  0 11G22G21G18G 6G17G30G29G10G26G16G15
  23935783.1984   -6252124.23743  -4860581.90142  23935782.7954   23935778.4864
        48.0004         40.0004
  21139653.7084    9431864.42743   7353226.27042  21139655.5244   21139649.4534
        56.0004         48.0004
  21466611.4444  -16659942.64443 -12963869.92642  21466613.4394   21466607.7224
        56.0004         48.0004
  20308512.7954   14919096.37144  11627928.55042  20308514.4624   20308509.7904
        57.0004         50.0004
  23819637.3714   27409306.23643  21356007.39042  23819636.8364   23819635.7784
        44.0004         38.0004
  23720547.9284   31500050.45743  24542752.22642  23720550.5294   23720548.6504
        47.0004         39.0004
  22514608.9744   10929065.77043   8522103.49142  22514611.9774   22514604.8404
        50.0004         43.0004
  24093433.2934   12907997.82943  10050008.43242  24093432.9804   24093432.1704
        45.0004         38.0004
  21912954.5814  -13069967.98343 -10169863.25842  21912956.8074   21912952.5044
        51.0004         44.0004
  23942677.5474   -8391985.76143  -6487324.70242  23942679.9134   23942675.7474
        45.0004         39.0004
  24261261.3524   -5677732.66143  -4380269.69142  24261262.4584   24261261.2384
        47.0004         39.0004
 04  6 22 15  2 20.0000000  0 11G22G21G18G 6G17G30G29G10G26G16G15
  23923098.9404   -6318781.47443  -4912522.58942  23923100.3804   23923093.4644
        48.0004         40.0004
  21135281.8344    9408890.59843   7335324.57742  21135283.4184   21135277.4394
        56.0004         48.0004
  21458102.0734  -16704659.52943 -12998714.24542  21458104.1974   21458098.8984
        56.0004         48.0004
  20311113.2304   14932763.07444  11638577.91142  20311115.3414   20311110.3134
        57.0004         50.0004
  23828142.8764   27454004.50443  21390837.13442  23828145.4254   23828142.7364
        44.0004         38.0004
  23733370.8724   31567437.33443  24595261.40442  23733371.6584   23733370.8674
        47.0004         39.0004
  22514609.8114   10929074.05243   8522109.95442  22514610.9934   22514608.0034
        51.0004         43.0004
  24106808.7364   12978288.34743  10104780.22142  24106808.9794   24106807.2954
        45.0004         38.0004
  21908616.8414  -13092765.38843 -10187627.47442  21908618.7064   21908614.2764
        52.0004         44.0004
  23936737.9274   -8423202.53743  -6511649.46742  23936738.6744   23936734.3904
        45.0004         38.0004
  24251584.9004   -5728576.01343  -4419887.87042  24251588.4224   24251586.4184
        46.0004         38.0004
 04  6 22 15  2 40.0000000  0 11G22G21G18G 6G17G30G29G10G26G16G15
  23910431.2084   -6385351.93243  -4964395.66242  23910430.4894   23910425.7644
        48.0004         40.0004
  21130924.2974    9385990.61343   7317480.42942  21130926.0844   21130919.7884
        56.0004         48.0004
  21449625.8854  -16749201.73043 -13033422.43942  21449628.1754   21449622.4874
        56.0004         48.0004
  20313754.7884   14946644.04844  11649394.23642  20313756.6614   20313751.8444
        57.0004         50.0004
  23836654.8524   27498729.94343  21425688.05542  23836655.9644   23836654.8864
        44.0004         38.0004
  23746196.1314   31634832.28043  24647776.88742  23746196.9484   23746197.4054
        47.0004         39.0004
  22514658.9254   10929329.02543   8522308.63142  22514661.5524   22514655.8564
        51.0004         43.0004
  24120190.6284   13048609.16943  10159575.61242  24120192.5944   24120190.3144
        45.0004         38.0004
  21904329.0374  -13115296.75843 -10205184.38742  21904331.3614   21904327.8654
        52.0004         44.0004
  23930838.4844   -8454199.71743  -6535803.13742  23930840.0354   23930837.1394
        45.0004         38.0004
  24241915.1114   -5779398.08143  -4459489.49942  24241914.3114   24241914.4454
        46.0004         38.0004
 04  6 22 15  3  0.0000000  0 11G22G21G18G 6G17G30G29G10G26G16G15
  23897780.4354   -6451835.35043  -5016200.91242  23897781.0214   23897777.4654
        49.0004         40.0004
  21126580.4824    9363164.20643   7299693.61242  21126582.2114   21126576.2254
        56.0004         48.0004
  21441183.1454  -16793569.22143 -13067994.50342  21441185.0244   21441179.6904
        56.0004         48.0004
  20316437.0354   14960739.21944  11660377.46742  20316438.9184   20316434.1654
        57.0004         50.0004
  23845170.2084   27543482.29643  21460559.94642  23845172.9414   23845171.3014
        43.0004         37.0004
  23759022.7214   31702234.39843  24700297.94742  23759024.7714   23759022.0894
        47.0004         39.0004
  22514754.3604   10929830.69343   8522699.55142  22514756.8884   22514752.2294
        51.0004         43.0004
  24133579.0364   13118959.38943  10214393.91442  24133580.2304   24133577.9334
        45.0004         38.0004
  21900092.0654  -13137561.78643 -10222533.75742  21900095.0714   21900090.4094
        52.0004         44.0004
  23924981.6874   -8484977.25343  -6559785.64242  23924982.8914   23924978.7454
        45.0004         39.0004
  24232247.2354   -5830199.29043  -4499074.82942  24232250.5184   24232245.0644
        47.0004         38.0004
 04  6 22 15  3 20.0000000  0 11G22G21G18G 6G17G30G29G10G26G16G15
  23885144.6364   -6518232.39343  -5067938.82642  23885148.0404   23885139.7214
        48.0004         40.0004
  21122250.5024    9340410.17443   7281963.19642  21122251.9204   21122246.5614
        56.0004         48.0004
  21432773.3244  -16837762.84143 -13102431.07942  21432774.9824   21432769.9404
        56.0004         48.0004
  20319159.7794   14975047.46944  11671526.73642  20319161.8154   20319156.8024
        57.0004         50.0004
  23853691.5174   27588260.37843  21495451.89142  23853692.2784   23853691.8764
        44.0004         37.0004
  23771849.7524   31769641.33243  24752822.76942  23771852.0624   23771849.0984
        47.0004         39.0004
  22514896.3794   10930577.95243   8523281.82542  22514897.0394   22514893.6094
        51.0004         43.0004
  24146971.1454   13189337.15343  10269233.67942  24146972.4364   24146968.2314
        45.0004         38.0004
  21895905.8774  -13159561.06143 -10239676.04942  21895908.4004   21895903.7214
        52.0004         44.0004
  23919165.9294   -8515535.85943  -6583597.55742  23919167.2964   23919163.1964
        45.0004         39.0004
  24222584.0394   -5880980.74543  -4538644.80142  24222587.1054   24222580.7794
        46.0004         38.0004
 04  6 22 15  3 40.0000000  0 11G22G21G18G 6G17G30G29G10G26G16G15
  23872526.5644   -6584542.10343  -5119608.71442  23872527.2844   23872524.1394
        49.0004         40.0004
  21117934.4324    9317729.31043   7264289.79642  21117936.1584   21117929.9754
        56.0004         48.0004
  21424396.7344  -16881781.83343 -13136731.58142  21424398.7564   21424393.0154
        56.0004         48.0004
  20321923.1374   14989569.38244  11682842.48942  20321925.0614   20321920.5184
        57.0004         50.0004
  23862218.4364   27633064.75843  21530364.32242  23862216.9354   23862218.1954
        44.0004         37.0004
  23784677.7974   31837052.87143  24805351.16142  23784681.4054   23784679.9984
        47.0004         39.0004
  22515085.2124   10931571.35043   8524055.90442  22515086.9364   22515082.8894
        51.0004         43.0004
  24160367.3204   13259742.23343  10324094.72542  24160368.9784   24160366.1304
        45.0004         38.0004
  21891770.3334  -13181293.45243 -10256610.38742  21891772.6704   21891768.8774
        52.0004         44.0004
  23913393.3004   -8545874.78343  -6607238.28342  23913395.6364   23913390.5854
        45.0004         39.0004
  24212924.3694   -5931741.86343  -4578198.95042  24212924.5274   24212925.0434
        45.0004         37.0004
 04  6 22 15  4  0.0000000  0 11G22G21G18G 6G17G30G29G10G26G16G15
  23859924.3664   -6650767.27943  -5171212.72542  23859923.7414   23859919.7204
        48.0004         40.0004
  21113631.6774    9295118.18343   7246670.73042  21113633.4864   21113627.4184
        56.0004         48.0004
  21416052.6584  -16925629.10943 -13170898.28042  21416054.7604   21416049.9664
        56.0004         48.0004
  20324726.7364   15004301.65444  11694322.16542  20324728.4644   20324723.8964
        57.0004         50.0004
  23870749.0554   27677891.79343  21565294.41742  23870748.6054   23870745.4044
        43.0004         36.0004
  23797505.4724   31904464.78843  24857879.86142  23797509.3094   23797505.9284
        47.0004         40.0004
  22515320.8204   10932807.79043   8525019.36442  22515322.5264   22515318.2914
        50.0004         43.0004
  24173770.4464   13330170.59743  10378973.91842  24173771.1674   24173768.1184
        46.0004         38.0004
  21887685.1744  -13202761.78043 -10273338.96342  21887687.0934   21887682.2734
        52.0004         44.0004
  23907661.6354   -8575997.05343  -6630710.20842  23907663.0084   23907658.2924
        46.0004         39.0004
  24203269.0054   -5982486.12343  -4617739.93442  24203269.5684   24203269.1704
        46.0004         37.0004
 04  6 22 15  4 20.0000000  0 11G22G21G18G 6G17G30G29G10G26G16G15
  23847338.7664   -6716902.55743  -5222746.70042  23847341.6774   23847334.7264
        48.0004         40.0004
  21109343.1604    9272581.95343   7229110.02942  21109345.2544   21109339.1454
        56.0004         48.0004
  21407743.0094  -16969299.55743 -13204927.18142  21407744.5314   21407739.0584
        56.0004         48.0004
  20327571.1794   15019249.45044  11705969.78042  20327573.2124   20327568.1974
        57.0004         50.0004
  23879283.4324   27722746.86443  21600246.33542  23879283.3924   23879281.6604
        43.0004         36.0004
  23810334.7594   31971881.31643  24910412.15342  23810338.3904   23810334.9734
        48.0004         40.0004
  22515602.8234   10934292.36543   8526176.18642  22515604.2624   22515600.7844
        50.0004         43.0004
  24187177.8194   13400626.59443  10433874.65842  24187178.7204   24187175.4484
        46.0004         38.0004
  21883651.2534  -13223960.32543 -10289857.31442  21883653.9514   21883649.1834
        52.0004         44.0004
  23901971.2874   -8605897.14043  -6654008.98542  23901973.3114   23901968.9754
        46.0004         39.0004
  24193616.5714   -6033208.43443  -4657263.77442  24193615.7624   24193617.7854
        45.0004         37.0004
 04  6 22 15  4 40.0000000  0 11G22G21G18G 6G17G30G29G10G26G16G15
  23834771.2444   -6782950.76943  -5274212.80742  23834771.0544   23834766.7824
        49.0004         40.0004
  21105068.3054    9250117.00543   7211604.87042  21105069.9174   21105064.0594
        56.0004         48.0004
  21399465.5294  -17012796.20943 -13238820.65942  21399467.4474   21399462.0944
        56.0004         48.0004
  20330456.2064   15034409.47344  11717782.76142  20330458.0574   20330453.0554
        57.0004         50.0004
  23887824.3184   27767626.44843  21635217.40142  23887823.3904   23887822.0444
        42.0004         36.0004
  23823164.1124   32039298.15343  24962944.70242  23823166.7364   23823164.9134
        48.0004         40.0004
  22515931.8654   10936021.77743   8527523.77742  22515933.9674   22515930.6244
        50.0004         43.0004
  24200590.7264   13471106.22343  10488793.80542  24200590.8734   24200587.9214
        47.0004         39.0004
  21879668.0974  -13244891.99843 -10306167.71642  21879670.4804   21879666.5254
        52.0004         44.0004
  23896324.0244   -8635578.12743  -6677137.05042  23896326.1334   23896322.2504
        46.0004         39.0004
  24183968.3984   -6083912.20243  -4696773.18742  24183968.9124   24183968.3074
        46.0004         37.0004
 04  6 22 15  5  0.0000000  0 11G22G21G18G 6G17G30G29G10G26G16G15
  23822218.7294   -6848907.88343  -5325607.93542  23822221.2754   23822214.0314
        49.0004         40.0004
  21100807.5264    9227726.78343   7194157.94142  21100809.2444   21100803.3084
        56.0004         48.0004
  21391222.1564  -17056115.57743 -13272575.99342  21391224.1714   21391218.8614
        56.0004         48.0004
  20333381.9754   15049785.10244  11729763.74942  20333384.1094   20333379.0874
        57.0004         50.0004
  23896369.5824   27812534.07143  21670210.28042  23896369.6284   23896369.6604
        43.0004         36.0004
  23835993.6394   32106717.98543  25015479.57742  23835996.1244   23835993.0204
        48.0004         40.0004
  22516308.7994   10937999.65943   8529064.98742  22516310.6764   22516306.0374
        50.0004         43.0004
  24214007.0044   13541612.14943  10543733.45442  24214008.1724   24214007.5584
        46.0004         39.0004
  21875736.0824  -13265552.75443 -10322267.01542  21875738.5334   21875733.6294
        52.0004         44.0004
  23890717.9014   -8665036.33143  -6700091.51442  23890719.7744   23890717.4134
        46.0004         39.0004
  24174323.3674   -6134594.07543  -4736265.53342  24174328.0334   24174324.0984
        45.0004         37.0004
 04  6 22 15  5 20.0000000  0 11G22G21G18G 6G17G30G29G10G26G16G15
  23809685.4524   -6914775.83143  -5376933.60242  23809685.6634   23809680.3874
        48.0004         40.0004
  21096560.7534    9205408.95943   7176767.42042  21096562.6694   21096556.1294
        56.0004         48.0004
  21383012.2654  -17099259.41243 -13306194.55142  21383013.9154   21383008.9504
        56.0004         48.0004
  20336348.5524   15065374.20544  11741911.08042  20336350.5034   20336345.5964
        58.0004         50.0004
  23904919.3784   27857467.32643  21705223.14842  23904921.0604   23904919.1594
        42.0004         36.0004
  23848822.8394   32174137.67143  25068014.31342  23848826.6744   23848826.2594
        47.0004         40.0004
  22516731.9444   10940223.62043   8530797.94042  22516734.4364   22516730.4394
        51.0004         43.0004
  24227427.3014   13612141.39143  10598691.26742  24227429.4434   24227427.1724
        46.0004         39.0004
  21871855.8414  -13285944.32343 -10338156.55742  21871858.5784   21871854.2934
        52.0004         44.0004
  23885153.6144   -8694273.74543  -6722873.92242  23885154.0984   23885151.2214
        45.0004         39.0004
  24164683.2594   -6185256.36143  -4775742.62542  24164685.9474   24164682.0084
        46.0004         37.0004
 04  6 22 15  5 40.0000000  0 11G22G21G18G 6G17G30G29G10G26G16G15
  23797167.7704   -6980554.89843  -5428189.96742  23797168.8724   23797164.5734
        48.0004         40.0004
  21092327.6714    9183163.13044   7159433.00342  21092329.2644   21092323.3724
        57.0004         48.0004
  21374835.5734  -17142228.09743 -13339676.63342  21374837.3924   21374832.0404
        56.0004         48.0004
  20339355.5384   15081176.05444  11754224.19242  20339357.4454   20339352.7314
        57.0004         50.0004
  23913475.3424   27902425.44243  21740255.36442  23913477.2084   23913474.4134
        43.0004         36.0004
  23861651.7554   32241555.30443  25120547.47242  23861654.0324   23861650.9214
        47.0004         40.0004
  22517201.4084   10942693.11143   8532722.21342  22517203.9854   22517199.2384
        50.0004         43.0004
  24240852.8824   13682692.54843  10653666.14142  24240855.9294   24240853.3554
        45.0004         39.0004
  21868026.9004  -13306066.92943 -10353836.51942  21868028.2774   21868025.1254
        52.0004         44.0004
  23879631.9324   -8723290.71143  -6745484.55842  23879634.5634   23879628.1094
        46.0004         39.0004
  24155046.3344   -6235899.90843  -4815205.16742  24155045.7354   24155044.5744
        45.0004         37.0004
 04  6 22 15  6  0.0000000  0 11G22G21G18G 6G17G30G29G10G26G16G15
  23784667.2764   -7046243.65243  -5479375.98142  23784667.4904   23784666.3554
        47.0004         40.0004
  21088108.2384    9160990.03843   7142155.26342  21088109.6804   21088103.6934
        56.0004         48.0004
  21366692.2734  -17185020.68743 -13373021.49942  21366693.9974   21366688.7084
        56.0004         48.0004
  20342403.1114   15097191.67944  11766703.87942  20342404.9944   20342400.5314
        57.0004         50.0004
  23922034.9854   27947409.43043  21775307.75842  23922035.4894   23922034.8654
        43.0004         36.0004
  23874481.1534   32308971.49743  25173079.52342  23874481.5634   23874482.3734
        47.0004         39.0004
  22517718.6904   10945409.19043   8534838.63142  22517720.9544   22517715.9804
        50.0004         43.0004
  24254283.7544   13753265.88743  10708658.30242  24254283.3534   24254282.2994
        46.0004         39.0004
  21864249.1604  -13325919.09443 -10369305.74542  21864251.5384   21864247.5644
        52.0004         44.0004
  23874152.4804   -8752085.90143  -6767922.38342  23874155.0364   23874148.7764
        46.0004         39.0004
  24145411.5154   -6286523.87543  -4854652.38442  24145412.3474   24145412.2204
        44.0004         36.0004
 04  6 22 15  6 20.0000000  0 11G22G21G18G 6G17G30G29G10G26G16G15
  23772184.2584   -7111842.58243  -5530491.98342  23772184.5634   23772178.6834
        47.0004         39.0004
  21083902.5394    9138888.38144   7124933.18942  21083904.0804   21083897.9054
        57.0004         48.0004
  21358582.5984  -17227637.63643 -13406229.49942  21358584.5564   21358579.3504
        56.0004         48.0004
  20345491.3844   15113420.18944  11779349.45242  20345493.3864   20345488.3974
        57.0004         50.0004
  23930601.6844   27992418.43843  21810379.64742  23930601.7454   23930600.1544
        43.0004         36.0004
  23887309.9764   32376384.07843  25225608.72542  23887312.6494   23887310.2124
        47.0004         39.0004
  22518282.1124   10948371.21143   8537146.70242  22518285.1354   22518279.1874
        50.0004         43.0004
  24267717.4864   13823860.01843  10763666.67542  24267718.6534   24267714.6574
        46.0004         38.0004
  21860522.7354  -13345501.04543 -10384564.41542  21860525.1434   21860520.5524
        52.0004         44.0004
  23868715.9654   -8780659.72643  -6790187.72542  23868716.4534   23868712.3804
        46.0004         39.0004
  24135782.9814   -6337128.94243  -4894084.90042  24135784.2504   24135780.8704
        45.0004         36.0004
 04  6 22 15  6 40.0000000  0 11G22G21G18G 6G17G30G29G10G26G16G15
  23759717.1034   -7177349.25043  -5581536.11242  23759717.9324   23759713.9474
        46.0004         39.0004
  21079710.4984    9116860.53244   7107768.62642  21079712.0734   21079706.3624
        57.0004         48.0004
  21350506.4254  -17270076.83243 -13439298.99342  21350508.7934   21350503.0784
        56.0004         48.0004
  20348620.4694   15129863.71944  11792162.57142  20348622.6364   20348617.5124
        57.0004         50.0004
  23939171.2724   28037454.24143  21845472.41642  23939172.6004   23939169.5544
        44.0004         36.0004
  23900137.0564   32443794.30443  25278136.11542  23900137.6314   23900138.2514
        46.0004         39.0004
  22518892.7414   10951580.81343   8539647.67942  22518894.9334   22518890.4584
        51.0004         43.0004
  24281154.3274   13894476.00843  10818692.07842  24281155.2224   24281153.5254
        46.0004         38.0004
  21856848.2684  -13364810.51443 -10399610.75642  21856850.5194   21856846.2754
        52.0004         44.0004
  23863320.9774   -8809010.23843  -6812279.03742  23863323.8234   23863318.0484
        46.0004         39.0004
  24126156.2554   -6387713.35243  -4933501.35242  24126157.5934   24126156.0604
        44.0004         37.0004
 04  6 22 15  7  0.0000000  0 11G22G21G18G 6G17G30G29G10G26G16G15
  23747270.9464   -7242763.92143  -5632508.55342  23747271.2894   23747266.7414
        46.0004         39.0004
  21075532.6794    9094905.75843   7090661.00442  21075534.6714   21075528.2894
        56.0004         48.0004
  21342464.3964  -17312339.03543 -13472230.56542  21342466.2294   21342460.8714
        56.0004         48.0004
  20351790.3594   15146521.19144  11805142.39742  20351792.3274   20351787.3134
        57.0004         50.0004
  23947746.4434   28082515.98543  21880585.40342  23947748.3764   23947743.9204
        44.0004         36.0004
  23912964.6384   32511200.47643  25330660.32242  23912965.1114   23912962.4394
        47.0004         39.0004
  22519550.7444   10955037.14743   8542340.91342  22519552.7154   22519548.2504
        51.0004         43.0004
  24294596.0264   13965112.34843  10873733.32642  24294598.0844   24294595.4424
        45.0004         38.0004
  21853225.4794  -13383847.69443 -10414444.92042  21853228.3884   21853223.3994
        52.0004         44.0004
  23857968.3334   -8837138.02043  -6834196.80742  23857970.1754   23857965.4564
        47.0004         39.0004
  24116534.4604   -6438278.07243  -4972902.39242  24116534.9904   24116531.6494
        43.0004         36.0004
 04  6 22 15  7 20.0000000  0 11G22G21G18G 6G17G30G29G10G26G16G15
  23734839.2514   -7308086.00343  -5683408.83642  23734840.8834   23734835.5044
        46.0004         39.0004
  21071368.8404    9073024.19543   7073610.43142  21071370.4254   21071364.4624
        56.0004         48.0004
  21334456.0494  -17354423.59243 -13505023.71542  21334457.7694   21334452.4544
        56.0004         48.0004
  20355001.0554   15163392.94744  11818289.19942  20355002.9384   20354998.0614
        57.0004         50.0004
  23956325.2014   28127603.86843  21915718.74642  23956326.1714   23956327.2374
        45.0004         37.0004
  23925790.0804   32578601.87843  25383180.83142  23925791.9754   23925789.6534
        47.0004         39.0004
  22520255.8084   10958740.85543   8545226.91842  22520257.6054   22520253.8564
        51.0004         43.0004
  24308041.5734   14035768.65643  10928790.14142  24308042.3234   24308041.2904
        45.0004         38.0004
  21849654.7674  -13402611.89143 -10429066.37942  21849656.2454   21849653.4014
        52.0004         45.0004
  23852657.6184   -8865042.42943  -6855940.52742  23852660.3314   23852655.2384
        47.0004         39.0004
  24106917.8184   -6488822.82543  -5012287.87542  24106918.3294   24106914.9494
        44.0004         36.0004
 04  6 22 15  7 40.0000000  0 11G22G21G18G 6G17G30G29G10G26G16G15
  23722427.9714   -7373314.04043  -5734235.84742  23722429.4734   23722424.1144
        46.0004         39.0004
  21067218.6844    9051216.85543   7056617.69542  21067220.7574   21067214.5154
        56.0004         48.0004
  21326481.4414  -17396329.16243 -13537677.39242  21326483.3424   21326478.3754
        56.0004         48.0004
  20358252.6564   15180480.04344  11831603.79642  20358254.3764   20358249.7544
        57.0004         50.0004
  23964909.9834   28172718.96643  21950873.31242  23964912.1804   23964908.7004
        45.0004         37.0004
  23938616.1904   32645998.67643  25435697.75442  23938618.1404   23938614.3224
        47.0004         39.0004
  22521007.8924   10962692.96143   8548306.46942  22521010.1214   22521005.6244
        51.0004         43.0004
  24321491.5574   14106445.12843  10983862.68142  24321492.3094   24321488.9114
        45.0004         38.0004
  21846136.5994  -13421101.52843 -10443473.88842  21846137.8424   21846134.1854
        52.0004         45.0004
  23847391.0074   -8892722.07843  -6877509.09842  23847391.2244   23847389.3274
        46.0004         39.0004
  24097301.8314   -6539346.50743  -5051656.99142  24097302.9264   24097301.7934
        44.0004         36.0004
 04  6 22 15  8  0.0000000  0 11G22G21G18G 6G17G30G29G10G26G16G15
  23710031.9004   -7438451.61643  -5784992.35342  23710032.3944   23710028.4704
        46.0004         39.0004
  21063082.4744    9029479.39543   7039679.41142  21063084.2454   21063077.7834
        56.0004         48.0004
  21318540.4574  -17438059.67743 -13570194.66542  21318542.4024   21318536.8764
        56.0004         48.0004
  20361544.2174   15197778.49344  11845083.08842  20361546.1024   20361541.5744
        57.0004         50.0004
  23973499.6234   28217857.13543  21986045.84342  23973500.4604   23973499.5884
        46.0004         37.0004
  23951439.2794   32713386.05543  25488207.32442  23951441.6694   23951437.0404
        47.0004         39.0004
  22521806.3094   10966889.30543   8551576.34242  22521807.4864   22521803.1964
        51.0004         43.0004
  24334943.2744   14177136.92943  11038947.15842  24334945.6204   24334942.9534
        45.0004         38.0004
  21842669.6734  -13439320.24343 -10457670.28542  21842670.3894   21842667.6234
        52.0004         45.0004
  23842165.7914   -8920180.94043  -6898905.63242  23842166.0064   23842162.8124
        46.0004         39.0004
  24087689.0104   -6589853.49843  -5091013.05342  24087692.3954   24087690.2344
        43.0004         36.0004
